[[{"header":{"parameterUnit":"m.s-1","parameterCategory":1,"la1":30.6,"la2":28.766,"lo1":-90.7593,"lo2":-88.6598,"dy":0.0162,"dx":0.0183,"nx":116,"ny":114,"refTime":"2023-10-15T18:00:00:Z","depth":0,"parameterNumber":2,"parameterNumberName":"U-component_of_WINDS"},"data":[0.0,0.0,0.0,0.0,0.0,0.0,0.0,0.0,0.0,0.0,0.0,0.0,0.0,0.0,0.0,0.0,0.0,0.0,0.0,0.0,0.0,0.0,0.0,0.0,0.0,0.0,0.0,0.0,0.0,0.0,0.0,0.0,0.0,0.0,0.0,0.0,0.0,0.0,0.0,0.0,0.0,0.0,0.0,0.0,0.0,0.0,0.0,0.0,0.0,0.0,0.0,0.0,0.0,0.0,0.0,0.0,0.0,0.0,0.0,0.0,0.0,0.0,0.0,0.0,0.0,0.0,0.0,0.0,0.0,0.0,0.0,0.0,0.0,0.0,0.0,0.0,0.0,0.0,0.0,0.0,0.0,0.0,0.0,0.0,0.0,0.0,0.0,0.0,0.0,0.0,0.0,0.0,0.0,0.0,0.0,0.0,0.0,0.0,0.0,0.0,0.0,0.0,0.0,0.0,0.0,0.0,0.0,0.0,0.0,0.0,0.0,0.0,0.0,0.0,0.0,0.0,0.0,0.0,0.0,0.0,0.0,0.0,0.0,0.0,0.0,0.0,0.0,0.0,0.0,0.0,0.0,0.0,0.0,0.0,0.0,0.0,0.0,0.0,0.0,0.0,0.0,0.0,0.0,0.0,0.0,0.0,0.0,0.0,0.0,0.0,0.0,0.0,0.0,0.0,0.0,0.0,0.0,0.0,0.0,0.0,0.0,0.0,0.0,0.0,0.0,0.0,0.0,0.0,0.0,0.0,0.0,0.0,0.0,0.0,0.0,0.0,0.0,0.0,0.0,0.0,0.0,0.0,0.0,0.0,0.0,0.0,0.0,0.0,0.0,0.0,0.0,0.0,0.0,0.0,0.0,0.0,0.0,0.0,0.0,0.0,0.0,0.0,0.0,0.0,0.0,0.0,0.0,0.0,0.0,0.0,0.0,0.0,0.0,0.0,0.0,0.0,0.0,0.0,0.0,0.0,0.0,0.0,0.0,0.0,0.0,0.0,0.0,0.0,0.0,0.0,0.0,0.0,0.0,0.0,0.0,0.0,0.0,0.0,0.0,0.0,0.0,0.0,0.0,0.0,0.0,0.0,0.0,0.0,0.0,0.0,0.0,0.0,0.0,0.0,0.0,0.0,0.0,0.0,0.0,0.0,0.0,0.0,0.0,0.0,0.0,0.0,0.0,0.0,0.0,0.0,0.0,0.0,0.0,0.0,0.0,0.0,0.0,0.0,0.0,0.0,0.0,0.0,0.0,0.0,0.0,0.0,0.0,0.0,0.0,0.0,0.0,0.0,0.0,0.0,0.0,0.0,0.0,0.0,0.0,0.0,0.0,0.0,0.0,0.0,0.0,0.0,0.0,0.0,0.0,0.0,0.0,0.0,0.0,0.0,0.0,0.0,0.0,0.0,0.0,0.0,0.0,0.0,0.0,0.0,0.0,0.0,0.0,0.0,0.0,0.0,0.0,0.0,0.0,0.0,0.0,0.0,0.0,0.0,0.0,0.0,0.0,0.0,0.0,0.0,0.0,0.0,0.0,0.0,0.0,0.0,0.0,0.0,0.0,0.0,0.0,0.0,0.0,0.0,0.0,0.0,0.0,0.0,0.0,0.0,0.0,0.0,0.0,0.0,0.0,0.0,0.0,0.0,0.0,0.0,0.0,0.0,0.0,0.0,0.0,0.0,0.0,0.0,0.0,0.0,0.0,0.0,0.0,0.0,0.0,0.0,0.0,0.0,0.0,0.0,0.0,0.0,0.0,0.0,0.0,0.0,0.0,0.0,0.0,0.0,0.0,0.0,0.0,0.0,0.0,0.0,0.0,0.0,0.0,0.0,0.0,0.0,0.0,0.0,0.0,0.0,0.0,0.0,0.0,0.0,0.0,0.0,0.0,0.0,0.0,0.0,0.0,0.0,0.0,0.0,0.0,0.0,0.0,0.0,0.0,0.0,0.0,0.0,0.0,0.0,0.0,0.0,0.0,0.0,0.0,0.0,0.0,0.0,0.0,0.0,0.0,0.0,0.0,0.0,0.0,0.0,0.0,0.0,0.0,0.0,0.0,0.0,0.0,0.0,0.0,0.0,0.0,0.0,0.0,0.0,0.0,0.0,0.0,0.0,0.0,0.0,0.0,0.0,0.0,0.0,0.0,0.0,0.0,0.0,0.0,0.0,0.0,0.0,0.0,0.0,0.0,0.0,0.0,0.0,0.0,0.0,0.0,0.0,0.0,0.0,0.0,0.0,0.0,0.0,0.0,0.0,0.0,0.0,0.0,0.0,0.0,0.0,0.0,0.0,0.0,0.0,0.0,0.0,0.0,0.0,0.0,0.0,0.0,0.0,0.0,0.0,0.0,0.0,0.0,0.0,0.0,0.0,0.0,0.0,0.0,0.0,0.0,0.0,0.0,0.0,0.0,0.0,0.0,0.0,0.0,0.0,0.0,0.0,0.0,0.0,0.0,0.0,0.0,0.0,0.0,0.0,0.0,0.0,0.0,0.0,0.0,0.0,0.0,0.0,0.0,0.0,0.0,0.0,0.0,0.0,0.0,0.0,0.0,0.0,0.0,0.0,0.0,0.0,0.0,0.0,0.0,0.0,0.0,0.0,0.0,0.0,0.0,0.0,0.0,0.0,0.0,0.0,0.0,0.0,0.0,0.0,0.0,0.0,0.0,0.0,0.0,0.0,0.0,0.0,0.0,0.0,0.0,0.0,0.0,0.0,0.0,0.0,0.0,0.0,0.0,0.0,0.0,0.0,0.0,0.0,0.0,0.0,0.0,0.0,0.0,0.0,0.0,0.0,0.0,0.0,0.0,0.0,0.0,0.0,0.0,0.0,0.0,0.0,0.0,0.0,0.0,0.0,0.0,0.0,0.0,0.0,0.0,0.0,0.0,0.0,0.0,0.0,0.0,0.0,0.0,0.0,0.0,0.0,0.0,0.0,0.0,0.0,0.0,0.0,0.0,0.0,0.0,0.0,0.0,0.0,0.0,0.0,0.0,0.0,0.0,0.0,0.0,0.0,0.0,0.0,0.0,0.0,0.0,0.0,0.0,0.0,0.0,0.0,0.0,0.0,0.0,0.0,0.0,0.0,0.0,0.0,0.0,0.0,0.0,0.0,0.0,0.0,0.0,0.0,0.0,0.0,0.0,0.0,0.0,0.0,0.0,0.0,0.0,0.0,0.0,0.0,0.0,0.0,0.0,0.0,0.0,0.0,0.0,0.0,0.0,0.0,0.0,0.0,0.0,0.0,0.0,0.0,0.0,0.0,0.0,0.0,0.0,0.0,0.0,0.0,0.0,0.0,0.0,0.0,0.0,0.0,0.0,0.0,0.0,0.0,0.0,0.0,0.0,0.0,0.0,0.0,0.0,0.0,0.0,0.0,0.0,0.0,0.0,0.0,0.0,0.0,0.0,0.0,0.0,0.0,0.0,0.0,0.0,0.0,0.0,0.0,0.0,0.0,0.0,0.0,0.0,0.0,0.0,0.0,0.0,0.0,0.0,0.0,0.0,0.0,0.0,0.0,0.0,0.0,0.0,0.0,0.0,0.0,0.0,0.0,0.0,0.0,0.0,0.0,0.0,0.0,0.0,0.0,0.0,0.0,0.0,0.0,0.0,0.0,0.0,0.0,0.0,0.0,0.0,0.0,0.0,0.0,0.0,0.0,0.0,0.0,0.0,0.0,0.0,0.0,0.0,0.0,0.0,0.0,0.0,0.0,0.0,0.0,0.0,0.0,0.0,0.0,0.0,0.0,0.0,0.0,0.0,0.0,0.0,0.0,0.0,0.0,0.0,0.0,0.0,0.0,0.0,0.0,0.0,0.0,0.0,0.0,0.0,0.0,0.0,0.0,0.0,0.0,0.0,0.0,0.0,0.0,0.0,0.0,0.0,0.0,0.0,0.0,0.0,0.0,0.0,0.0,0.0,0.0,0.0,0.0,0.0,0.0,0.0,0.0,0.0,0.0,0.0,0.0,0.0,0.0,0.0,0.0,0.0,0.0,0.0,0.0,0.0,0.0,0.0,0.0,0.0,0.0,0.0,0.0,0.0,0.0,0.0,0.0,0.0,0.0,0.0,0.0,0.0,0.0,0.0,0.0,0.0,0.0,0.0,0.0,0.0,0.0,0.0,0.0,0.0,0.0,0.0,0.0,0.0,0.0,0.0,0.0,0.0,0.0,0.0,0.0,0.0,0.0,0.0,0.0,0.0,0.0,0.0,0.0,0.0,0.0,0.0,0.0,0.0,0.0,0.0,0.0,0.0,0.0,0.0,0.0,0.0,0.0,0.0,0.0,0.0,0.0,0.0,0.0,0.0,0.0,0.0,0.0,0.0,0.0,0.0,0.0,0.0,0.0,0.0,0.0,0.0,0.0,0.0,0.0,0.0,0.0,0.0,0.0,0.0,0.0,0.0,0.0,0.0,0.0,0.0,0.0,0.0,0.0,0.0,0.0,0.0,0.0,0.0,0.0,0.0,0.0,0.0,0.0,0.0,0.0,0.0,0.0,0.0,0.0,0.0,0.0,0.0,0.0,0.0,0.0,0.0,0.0,0.0,0.0,0.0,0.0,0.0,0.0,0.0,0.0,0.0,0.0,0.0,0.0,0.0,0.0,0.0,0.0,0.0,0.0,0.0,0.0,0.0,0.0,0.0,0.0,0.0,0.0,0.0,0.0,0.0,0.0,0.0,0.0,0.0,0.0,0.0,0.0,0.0,0.0,0.0,0.0,0.0,0.0,0.0,0.0,0.0,0.0,0.0,0.0,0.0,0.0,0.0,0.0,0.0,0.0,0.0,0.0,0.0,0.0,0.0,0.0,0.0,0.0,0.0,0.0,0.0,0.0,0.0,0.0,0.0,0.0,0.0,0.0,0.0,0.0,0.0,0.0,0.0,0.0,0.0,0.0,0.0,0.0,0.0,0.0,0.0,0.0,0.0,0.0,0.0,0.0,0.0,0.0,0.0,0.0,0.0,0.0,0.0,0.0,0.0,0.0,0.0,0.0,0.0,0.0,0.0,0.0,0.0,0.0,0.0,0.0,0.0,0.0,0.0,0.0,0.0,0.0,0.0,0.0,0.0,0.0,0.0,0.0,0.0,0.0,0.0,0.0,0.0,0.0,0.0,0.0,0.0,0.0,0.0,0.0,0.0,0.0,0.0,0.0,0.0,0.0,0.0,0.0,0.0,0.0,0.0,0.0,0.0,0.0,0.0,0.0,0.0,0.0,0.0,0.0,0.0,0.0,0.0,0.0,0.0,0.0,0.0,0.0,0.0,0.0,0.0,0.0,0.0,0.0,0.0,0.0,0.0,0.0,0.0,0.0,0.0,0.0,0.0,0.0,0.0,0.0,0.0,0.0,0.0,0.0,0.0,0.0,0.0,0.0,0.0,0.0,0.0,0.0,0.0,0.0,0.0,0.0,0.0,0.0,0.0,0.0,0.0,0.0,0.0,0.0,0.0,0.0,0.0,0.0,0.0,0.0,0.0,0.0,0.0,0.0,0.0,0.0,0.0,0.0,0.0,0.0,0.0,0.0,0.0,0.0,0.0,0.0,0.0,0.0,0.0,0.0,0.0,0.0,0.0,0.0,0.0,0.0,0.0,0.0,0.0,0.0,0.0,0.0,0.0,0.0,0.0,0.0,0.0,0.0,0.0,0.0,0.0,0.0,0.0,0.0,0.0,0.0,0.0,0.0,0.0,0.0,0.0,0.0,0.0,0.0,0.0,0.0,0.0,0.0,0.0,0.0,0.0,0.0,0.0,0.0,0.0,0.0,0.0,0.0,0.0,0.0,0.0,0.0,0.0,0.0,0.0,0.0,0.0,0.0,0.0,0.0,0.0,0.0,0.0,0.0,0.0,0.0,0.0,0.0,0.0,0.0,0.0,0.0,0.0,0.0,0.0,0.0,0.0,0.0,0.0,0.0,0.0,0.0,0.0,0.0,0.0,0.0,0.0,0.0,0.0,0.0,0.0,0.0,0.0,0.0,0.0,0.0,0.0,0.0,0.0,0.0,0.0,0.0,0.0,0.0,0.0,0.0,0.0,0.0,0.0,0.0,0.0,0.0,0.0,0.0,0.0,0.0,0.0,0.0,0.0,0.0,0.0,0.0,6.0358,0.0,0.0,0.0,0.0,0.0,0.0,0.0,0.0,0.0,0.0,0.0,0.0,0.0,0.0,0.0,0.0,0.0,0.0,0.0,0.0,0.0,0.0,0.0,0.0,0.0,0.0,0.0,0.0,0.0,0.0,0.0,0.0,0.0,0.0,0.0,0.0,0.0,0.0,0.0,0.0,0.0,0.0,0.0,0.0,0.0,0.0,0.0,0.0,0.0,0.0,0.0,0.0,0.0,0.0,0.0,0.0,0.0,0.0,0.0,0.0,0.0,0.0,0.0,0.0,0.0,0.0,0.0,0.0,0.0,0.0,0.0,0.0,0.0,0.0,0.0,0.0,0.0,0.0,0.0,0.0,0.0,0.0,0.0,0.0,0.0,0.0,0.0,0.0,0.0,0.0,0.0,0.0,0.0,0.0,0.0,0.0,0.0,0.0,0.0,0.0,0.0,0.0,0.0,0.0,0.0,0.0,0.0,0.0,0.0,0.0,0.0,0.0,0.0,0.0,0.0,0.0,6.1166,0.0,0.0,0.0,0.0,0.0,0.0,0.0,0.0,0.0,0.0,0.0,0.0,0.0,0.0,0.0,0.0,0.0,0.0,0.0,0.0,0.0,0.0,0.0,0.0,0.0,0.0,0.0,0.0,0.0,0.0,0.0,0.0,0.0,0.0,0.0,0.0,0.0,0.0,0.0,0.0,0.0,0.0,0.0,0.0,0.0,0.0,0.0,0.0,0.0,0.0,0.0,0.0,0.0,0.0,0.0,0.0,0.0,0.0,0.0,0.0,0.0,0.0,0.0,0.0,0.0,0.0,0.0,0.0,0.0,0.0,0.0,0.0,0.0,0.0,0.0,0.0,0.0,0.0,0.0,0.0,0.0,0.0,0.0,0.0,0.0,0.0,0.0,0.0,0.0,0.0,0.0,0.0,0.0,0.0,0.0,0.0,0.0,0.0,0.0,0.0,0.0,0.0,0.0,0.0,0.0,0.0,0.0,0.0,0.0,0.0,6.8859,6.8859,6.8936,6.8859,6.5359,6.3012,6.1743,0.0,0.0,0.0,0.0,0.0,0.0,0.0,0.0,0.0,0.0,0.0,0.0,0.0,0.0,0.0,0.0,0.0,0.0,0.0,0.0,0.0,0.0,0.0,0.0,0.0,0.0,0.0,0.0,0.0,0.0,0.0,0.0,0.0,0.0,0.0,0.0,0.0,0.0,0.0,0.0,0.0,0.0,0.0,0.0,0.0,0.0,0.0,0.0,0.0,0.0,0.0,0.0,0.0,0.0,0.0,0.0,0.0,0.0,0.0,0.0,0.0,0.0,0.0,0.0,0.0,0.0,0.0,0.0,0.0,0.0,0.0,0.0,0.0,0.0,0.0,0.0,0.0,0.0,0.0,0.0,0.0,0.0,0.0,0.0,0.0,0.0,0.0,5.6973,5.7703,0.0,0.0,0.0,0.0,0.0,0.0,0.0,0.0,0.0,0.0,0.0,0.0,0.0,0.0,6.8513,6.9436,7.0014,7.0244,7.1129,7.1168,7.0552,7.0552,7.0975,7.1668,7.1091,0.0,6.5166,6.4551,0.0,0.0,0.0,0.0,0.0,0.0,0.0,0.0,0.0,0.0,0.0,0.0,0.0,0.0,0.0,0.0,0.0,0.0,0.0,0.0,0.0,0.0,0.0,0.0,0.0,0.0,0.0,0.0,0.0,0.0,0.0,0.0,0.0,0.0,0.0,0.0,0.0,0.0,0.0,0.0,0.0,0.0,0.0,0.0,0.0,0.0,0.0,0.0,0.0,0.0,0.0,0.0,0.0,0.0,0.0,0.0,0.0,0.0,0.0,0.0,0.0,0.0,0.0,0.0,0.0,0.0,0.0,0.0,0.0,0.0,0.0,0.0,0.0,0.0,0.0,0.0,0.0,0.0,0.0,0.0,0.0,0.0,0.0,0.0,0.0,5.7473,5.8742,5.7703,5.9588,6.0242,0.0,0.0,0.0,0.0,0.0,0.0,0.0,0.0,0.0,6.6859,6.809,6.9244,7.036,7.1706,7.2822,7.3783,7.463,7.5091,7.5168,7.5168,7.5361,7.5745,7.5745,7.4168,7.136,6.859,6.6205,6.4128,0.0,0.0,0.0,0.0,0.0,6.2935,0.0,0.0,0.0,0.0,0.0,0.0,0.0,0.0,0.0,0.0,0.0,0.0,0.0,0.0,0.0,0.0,0.0,0.0,0.0,0.0,0.0,0.0,0.0,0.0,0.0,0.0,0.0,0.0,0.0,0.0,0.0,0.0,0.0,0.0,0.0,0.0,0.0,0.0,0.0,0.0,0.0,0.0,0.0,0.0,0.0,0.0,0.0,0.0,0.0,0.0,0.0,0.0,0.0,0.0,0.0,0.0,0.0,0.0,0.0,0.0,0.0,0.0,0.0,0.0,0.0,0.0,0.0,0.0,0.0,0.0,0.0,0.0,0.0,0.0,0.0,0.0,0.0,5.9627,0.0,5.828,6.155,6.2781,0.0,0.0,0.0,0.0,0.0,0.0,6.7975,6.8898,6.986,7.0937,7.1975,7.286,7.3514,7.5014,7.6399,7.763,7.8515,7.9092,7.9477,7.9477,7.9592,7.9785,7.9361,7.8438,7.6976,7.2745,6.9475,6.709,6.6244,6.5359,0.0,6.4589,6.5013,6.559,0.0,0.0,0.0,0.0,0.0,0.0,0.0,0.0,0.0,0.0,0.0,0.0,0.0,0.0,0.0,0.0,0.0,0.0,0.0,0.0,0.0,0.0,0.0,0.0,0.0,0.0,0.0,0.0,0.0,0.0,0.0,0.0,0.0,0.0,0.0,0.0,0.0,0.0,0.0,0.0,0.0,0.0,0.0,0.0,0.0,0.0,0.0,0.0,0.0,0.0,0.0,0.0,0.0,0.0,0.0,0.0,0.0,0.0,0.0,0.0,0.0,0.0,0.0,0.0,0.0,0.0,0.0,0.0,0.0,0.0,0.0,0.0,0.0,0.0,0.0,0.0,0.0,0.0,0.0,6.0896,6.5743,0.0,0.0,0.0,0.0,6.6782,6.8398,6.9783,7.0667,7.1552,7.2745,7.4399,7.6092,7.813,8.0554,8.1439,8.19,8.1977,8.2862,8.2862,8.2093,8.2093,8.2554,8.3247,8.167,8.0939,8.0516,7.6207,7.2937,7.0552,6.9744,6.8898,6.8129,6.8129,6.8167,6.8205,0.0,0.0,0.0,0.0,0.0,0.0,0.0,0.0,0.0,0.0,0.0,0.0,0.0,0.0,0.0,0.0,0.0,0.0,0.0,0.0,0.0,0.0,0.0,0.0,0.0,0.0,0.0,0.0,0.0,0.0,0.0,0.0,0.0,0.0,0.0,0.0,0.0,0.0,0.0,0.0,0.0,0.0,0.0,0.0,0.0,0.0,0.0,0.0,0.0,0.0,0.0,0.0,0.0,0.0,0.0,0.0,0.0,0.0,0.0,0.0,0.0,0.0,0.0,0.0,0.0,0.0,0.0,0.0,0.0,0.0,0.0,0.0,0.0,0.0,0.0,0.0,0.0,0.0,0.0,6.7359,7.1129,0.0,0.0,6.9167,6.9783,7.0321,7.1975,7.3745,7.5668,7.713,7.8707,8.0362,8.1016,8.1785,8.2708,8.2978,8.3131,8.3131,8.3439,8.3439,8.3131,8.3131,8.2978,8.2708,8.2131,8.1593,8.0977,7.9438,7.6976,7.4091,7.3245,7.2399,7.1668,7.1668,7.1668,7.1783,0.0,0.0,0.0,0.0,0.0,0.0,0.0,0.0,0.0,0.0,0.0,0.0,0.0,0.0,0.0,0.0,0.0,0.0,0.0,0.0,0.0,0.0,0.0,0.0,0.0,0.0,0.0,0.0,0.0,0.0,0.0,0.0,0.0,0.0,0.0,0.0,0.0,0.0,0.0,0.0,0.0,0.0,6.1638,0.0,0.0,0.0,0.0,0.0,0.0,0.0,0.0,0.0,0.0,0.0,0.0,0.0,0.0,0.0,0.0,0.0,0.0,0.0,0.0,0.0,0.0,0.0,0.0,0.0,0.0,0.0,0.0,0.0,0.0,0.0,0.0,0.0,0.0,0.0,7.2129,7.1822,7.5515,7.6899,7.3783,7.3745,7.4245,7.513,7.6746,7.8707,8.0939,8.217,8.3285,8.4401,8.5016,8.517,8.4863,8.544,8.544,8.4901,8.517,8.517,8.4863,8.4863,8.4555,8.3978,8.3439,8.2862,8.2324,8.1747,8.0169,7.8015,7.6861,7.5938,7.5207,7.5207,7.5207,7.5168,0.0,0.0,0.0,0.0,0.0,0.0,0.0,0.0,0.0,0.0,0.0,0.0,0.0,0.0,0.0,0.0,0.0,0.0,0.0,0.0,0.0,0.0,0.0,0.0,0.0,0.0,0.0,0.0,0.0,0.0,0.0,0.0,0.0,0.0,0.0,0.0,0.0,0.0,0.0,0.0,0.0,0.0,6.2773,0.0,0.0,0.0,0.0,0.0,0.0,0.0,0.0,0.0,0.0,0.0,0.0,0.0,0.0,0.0,0.0,0.0,0.0,0.0,0.0,0.0,0.0,0.0,0.0,0.0,0.0,0.0,0.0,0.0,0.0,0.0,0.0,0.0,6.6205,7.2668,7.6515,7.4168,7.8977,8.0862,7.6746,7.8592,8.04,8.1208,8.2824,8.4478,8.6094,8.6247,8.6247,8.6247,8.7902,8.8363,8.7478,8.9094,8.9056,8.744,8.8286,8.8248,8.744,8.744,8.744,8.7325,8.567,8.4939,8.4786,8.3093,8.2362,8.217,8.0516,7.9323,7.8592,7.8592,7.8592,7.8323,0.0,0.0,0.0,0.0,0.0,0.0,0.0,0.0,0.0,0.0,0.0,0.0,0.0,0.0,0.0,0.0,0.0,0.0,0.0,0.0,0.0,0.0,0.0,0.0,0.0,0.0,0.0,0.0,0.0,0.0,0.0,0.0,0.0,0.0,0.0,0.0,0.0,0.0,0.0,0.0,0.0,0.0,6.4609,0.0,0.0,0.0,0.0,0.0,0.0,0.0,0.0,0.0,0.0,0.0,0.0,0.0,0.0,0.0,0.0,0.0,0.0,0.0,0.0,0.0,0.0,0.0,0.0,0.0,0.0,0.0,0.0,0.0,0.0,0.0,0.0,7.3206,7.3206,7.663,7.9977,8.2362,8.517,8.6286,8.4626,8.5126,8.5395,8.5016,8.6555,8.7671,8.7979,8.9133,8.9787,8.9787,9.0248,9.0094,8.921,8.9671,8.9402,8.8363,8.8594,8.8556,8.8325,8.8325,8.7979,8.7363,8.6901,8.6017,8.4863,8.4401,8.3824,8.3093,8.14,8.0592,8.04,8.04,8.04,8.0131,0.0,0.0,0.0,0.0,0.0,0.0,0.0,0.0,0.0,0.0,0.0,0.0,0.0,0.0,0.0,0.0,0.0,0.0,0.0,0.0,0.0,0.0,0.0,0.0,0.0,0.0,0.0,0.0,0.0,0.0,0.0,0.0,0.0,0.0,0.0,0.0,0.0,0.0,0.0,0.0,0.0,0.0,6.8047,6.5742,6.5156,6.5429,6.4526,6.434,6.434,6.2928,0.0,0.0,0.0,0.0,0.0,0.0,0.0,0.0,0.0,0.0,0.0,0.0,0.0,0.0,0.0,0.0,0.0,0.0,0.0,0.0,0.0,0.0,0.0,0.0,7.4245,7.8054,8.09,8.2593,8.4709,8.7863,8.944,9.0133,8.9744,8.9398,8.9128,8.9017,8.994,9.0556,9.0787,9.171,9.2249,9.2249,9.2595,9.2364,9.1518,9.1864,9.1633,9.0787,9.0787,9.0787,9.0787,9.0787,9.0133,0.0,8.8979,8.8055,8.6478,8.6094,8.544,0.0,0.0,0.0,0.0,0.0,8.1093,8.09,0.0,0.0,0.0,0.0,0.0,0.0,0.0,0.0,0.0,0.0,0.0,0.0,0.0,0.0,0.0,0.0,0.0,0.0,0.0,0.0,0.0,0.0,0.0,0.0,0.0,0.0,0.0,0.0,0.0,0.0,0.0,0.0,0.0,0.0,0.0,0.0,0.0,0.0,0.0,0.0,0.0,0.0,7.2265,7.0586,6.9844,6.9609,6.8789,6.7539,6.6172,6.5078,0.0,0.0,0.0,0.0,0.0,0.0,0.0,0.0,0.0,0.0,0.0,0.0,0.0,0.0,0.0,0.0,0.0,0.0,0.0,0.0,0.0,0.0,0.0,0.0,7.8746,8.1862,8.8209,8.9286,8.994,9.1325,9.2287,9.2787,9.2672,9.2095,9.1979,9.2633,9.2749,9.3133,0.0,0.0,0.0,0.0,0.0,9.4749,9.3903,9.4672,9.4634,9.3749,9.3749,9.3749,9.3749,9.371,9.2903,9.1518,9.1402,9.0441,8.8902,8.8055,8.7055,8.5863,8.3285,8.2285,8.2208,8.14,8.1093,0.0,0.0,0.0,0.0,0.0,0.0,0.0,0.0,0.0,0.0,0.0,0.0,0.0,0.0,0.0,0.0,0.0,0.0,0.0,0.0,0.0,0.0,0.0,0.0,0.0,0.0,0.0,0.0,0.0,0.0,0.0,0.0,0.0,0.0,0.0,0.0,0.0,0.0,0.0,0.0,0.0,0.0,0.0,7.4961,7.3203,7.2109,7.1367,7.0508,7.0469,7.0508,6.8906,6.9219,6.9726,6.6752,0.0,0.0,0.0,0.0,0.0,0.0,0.0,0.0,0.0,0.0,0.0,0.0,0.0,0.0,0.0,0.0,0.0,0.0,0.0,0.0,7.8746,8.3478,8.7902,9.1287,9.2941,9.3633,9.3249,9.4172,9.4557,9.3864,9.4441,9.4557,9.3864,9.4366,9.4788,9.4749,9.5403,0.0,9.5788,9.6134,9.5903,9.5057,9.5403,9.5057,9.4018,0.0,0.0,9.4016,9.3787,9.3633,9.3518,9.2633,9.1672,9.0633,8.9787,8.8132,8.5863,8.3285,8.2285,8.2208,8.14,8.1093,8.1093,0.0,0.0,0.0,0.0,0.0,0.0,0.0,0.0,0.0,0.0,0.0,0.0,0.0,0.0,0.0,0.0,0.0,0.0,0.0,0.0,0.0,0.0,0.0,0.0,0.0,0.0,0.0,0.0,0.0,0.0,0.0,0.0,0.0,0.0,0.0,0.0,0.0,0.0,0.0,0.0,0.0,0.0,8.0117,7.75,7.5976,7.5195,7.4765,7.4336,7.375,7.2422,7.2305,7.2265,7.0117,6.8867,6.7765,0.0,0.0,0.0,0.0,0.0,0.0,0.0,0.0,0.0,0.0,0.0,0.0,0.0,0.0,7.0541,0.0,0.0,8.0092,8.4747,8.8017,9.0825,9.3403,9.4864,9.548,9.5057,9.5595,9.5826,9.5403,9.598,9.6057,9.5403,9.5749,9.5865,9.5672,9.6172,9.6442,9.6442,9.6673,9.6613,9.6201,9.6317,9.6085,9.5543,9.5538,9.5557,9.5555,9.5408,9.5185,9.4866,9.4249,9.348,9.2518,9.1133,8.9633,8.7979,8.5709,8.3824,8.2247,8.1862,8.1439,8.1093,0.0,0.0,0.0,0.0,0.0,0.0,0.0,0.0,0.0,0.0,0.0,0.0,0.0,0.0,0.0,0.0,0.0,0.0,0.0,0.0,0.0,0.0,0.0,0.0,0.0,0.0,0.0,0.0,0.0,0.0,0.0,0.0,0.0,0.0,0.0,0.0,0.0,0.0,0.0,0.0,0.0,0.0,8.5117,8.2265,8.039,7.9258,7.9258,7.7812,7.5859,7.5469,7.4687,7.3672,7.2969,7.2263,7.129,6.901,6.8541,0.0,0.0,0.0,0.0,0.0,0.0,0.0,0.0,0.0,6.8998,7.0825,7.3031,7.5851,7.9823,8.1823,8.4786,9.0556,9.1941,9.3018,9.5249,9.6288,9.6826,9.6865,9.7019,9.7171,9.7096,9.7369,9.7457,9.722,9.7013,9.6903,9.6942,9.6903,9.6936,9.6917,9.7321,9.7479,9.7315,9.7533,9.7613,9.7559,9.7557,9.7479,9.7362,9.73,9.681,9.6005,9.5593,9.4788,9.3669,9.2133,9.1018,9.0129,8.8637,8.6061,8.3131,8.2901,8.2324,8.1593,0.0,0.0,0.0,0.0,0.0,0.0,0.0,0.0,0.0,0.0,0.0,0.0,0.0,0.0,0.0,0.0,0.0,0.0,0.0,0.0,0.0,0.0,0.0,0.0,0.0,0.0,0.0,0.0,0.0,0.0,0.0,0.0,0.0,0.0,0.0,0.0,0.0,0.0,0.0,0.0,0.0,0.0,8.7187,8.6797,8.4648,8.1875,8.1875,7.9297,7.6133,7.7578,7.6953,7.5586,7.5508,7.5384,7.4625,7.099,0.0,6.6794,6.5025,6.5041,6.6216,6.9029,6.9306,7.0816,0.0,0.0,7.6126,7.9321,8.1231,8.2516,8.3054,8.6511,9.0009,9.2245,9.4554,9.6365,9.7442,9.8134,9.8596,9.8865,9.9133,9.9171,9.8942,9.9285,9.9493,9.9269,9.8571,9.844,9.9171,9.8517,9.8129,9.8119,9.9042,9.9245,9.8507,9.9462,9.9801,9.9564,9.9578,9.921,9.8515,9.8231,9.7787,9.7134,9.5923,9.4364,9.2672,9.2633,9.171,9.0312,9.0268,8.8635,8.6176,8.5055,8.417,8.3471,0.0,0.0,0.0,0.0,0.0,0.0,0.0,0.0,0.0,0.0,0.0,0.0,0.0,0.0,0.0,0.0,0.0,0.0,0.0,0.0,0.0,0.0,0.0,0.0,0.0,0.0,0.0,0.0,0.0,0.0,0.0,0.0,0.0,0.0,0.0,0.0,0.0,0.0,0.0,0.0,0.0,0.0,8.9609,8.8594,8.6367,8.3594,8.2109,7.9672,0.0,0.0,7.6758,7.6597,7.7233,7.6665,7.5312,7.3214,7.1523,0.0,6.8845,6.8718,0.0,0.0,7.351,7.6256,8.0459,8.0863,8.1137,8.3972,8.6082,8.7868,8.9248,9.1553,9.3974,0.0,9.7413,9.8245,9.8595,9.9173,9.9288,9.8557,9.9415,9.9938,9.9632,9.9771,9.9877,9.979,9.9436,9.9366,9.9617,9.9338,9.9236,9.9241,9.9832,9.9974,9.9624,10.0088,10.0195,10.0117,10.0119,9.9702,9.8845,9.8753,9.8236,9.7366,9.6812,9.5749,9.4364,9.4477,9.3554,9.2156,9.2144,9.0996,8.9157,8.6855,8.5125,8.3824,0.0,0.0,0.0,0.0,0.0,0.0,0.0,0.0,0.0,0.0,0.0,0.0,0.0,0.0,0.0,0.0,0.0,0.0,0.0,0.0,0.0,0.0,0.0,0.0,0.0,0.0,0.0,0.0,0.0,0.0,0.0,0.0,0.0,0.0,0.0,0.0,0.0,0.0,0.0,0.0,0.0,0.0,9.1484,8.9726,8.6875,8.3515,8.1172,7.8642,0.0,0.0,7.4764,7.4954,7.6164,7.5907,7.4989,7.4089,7.2943,7.1684,7.0555,0.0,0.0,7.4207,7.7933,8.1621,8.3421,8.4805,8.6317,8.8563,9.0642,9.2559,9.4208,9.5632,0.0,9.9325,9.9641,9.9769,10.0095,10.0212,9.9712,9.8519,9.9095,9.9692,9.99,10.0083,10.0508,10.1015,10.0586,10.0492,10.0918,10.0585,10.0379,10.0379,10.0802,10.0898,10.0703,10.0898,10.1015,10.1015,10.1015,10.039,9.9336,9.8867,9.8203,9.7382,9.7382,9.6764,9.5709,9.5777,9.4901,9.3466,9.3448,9.254,9.1059,8.8847,8.6807,8.5047,0.0,0.0,0.0,0.0,0.0,0.0,0.0,0.0,0.0,0.0,0.0,0.0,0.0,0.0,0.0,0.0,0.0,0.0,0.0,0.0,0.0,0.0,0.0,0.0,0.0,0.0,0.0,0.0,0.0,0.0,0.0,0.0,0.0,0.0,0.0,0.0,0.0,0.0,0.0,0.0,0.0,0.0,9.2383,9.0625,8.6289,8.0898,7.918,0.0,0.0,0.0,7.0719,6.9538,7.1186,7.2822,0.0,7.2877,7.126,0.0,0.0,0.0,7.456,7.8332,8.2479,8.6561,9.0156,9.1484,9.2428,9.4171,9.5747,9.6743,9.6553,9.8095,9.975,10.0595,10.0827,10.1096,10.2213,10.1212,10.0211,9.9595,9.8364,9.821,0.0,10.0721,10.1992,10.3906,10.25,10.2304,10.3984,10.2499,10.1483,10.1483,10.2382,10.2383,10.1601,10.2383,10.2812,10.2812,10.2812,10.1914,10.0195,9.8515,9.7617,9.7383,9.7382,9.6769,9.5729,9.5979,9.5093,9.3504,9.3797,9.2841,9.1283,9.1197,8.9915,8.7987,0.0,0.0,0.0,0.0,0.0,0.0,0.0,0.0,0.0,0.0,0.0,0.0,0.0,0.0,0.0,0.0,0.0,0.0,0.0,0.0,0.0,0.0,0.0,0.0,0.0,0.0,0.0,0.0,0.0,0.0,0.0,0.0,0.0,0.0,0.0,0.0,0.0,0.0,0.0,0.0,0.0,0.0,9.2226,8.8789,8.4101,7.8864,0.0,0.0,0.0,0.0,0.0,0.0,6.9283,0.0,0.0,6.9733,7.0247,7.1159,0.0,0.0,8.028,8.4442,8.8338,9.1953,9.4883,9.6054,9.6674,9.726,9.6254,9.5233,9.5156,9.5663,9.6635,9.8058,10.0173,10.1789,10.2213,10.2315,10.1468,9.921,9.8903,0.0,0.0,0.0,0.0,10.3984,10.3711,10.3789,10.5,10.3984,10.3281,10.3281,10.3008,10.2812,10.25,10.2812,10.289,10.289,10.2304,10.1719,10.1094,9.9375,9.8515,9.8437,9.7851,9.7377,9.7025,9.7104,9.6512,9.5483,9.5606,9.4556,9.2968,9.2361,9.1392,9.0116,0.0,0.0,0.0,0.0,0.0,0.0,0.0,0.0,0.0,0.0,0.0,0.0,0.0,0.0,0.0,0.0,0.0,0.0,0.0,0.0,0.0,0.0,0.0,0.0,0.0,0.0,0.0,0.0,0.0,0.0,0.0,0.0,0.0,0.0,0.0,0.0,0.0,0.0,0.0,0.0,0.0,0.0,8.8437,8.414,7.9281,0.0,0.0,0.0,0.0,0.0,0.0,0.0,0.0,6.746,6.8115,6.909,7.1414,7.4385,0.0,8.1444,8.5292,8.9791,9.3054,9.5739,9.8082,9.8711,9.8633,9.8047,9.6122,9.4374,9.3613,9.3493,9.4289,9.6636,9.8635,10.0586,10.2604,10.2205,10.1198,9.9731,9.9327,0.0,0.0,0.0,0.0,10.3513,10.4297,10.4883,10.5508,10.5195,10.5,10.4687,10.3789,10.3515,10.3789,10.3203,10.289,10.289,10.1992,10.1601,10.1484,9.9804,9.8984,9.8945,9.8086,9.7695,9.7695,9.7695,9.7226,9.6484,9.6484,9.5625,9.4297,9.375,9.3164,9.2422,0.0,0.0,0.0,0.0,0.0,0.0,0.0,0.0,0.0,0.0,0.0,0.0,0.0,0.0,0.0,0.0,0.0,0.0,0.0,0.0,0.0,7.1601,7.3594,7.5351,7.7031,7.7969,8.0469,8.457,8.4609,8.7148,9.1992,9.2109,9.3476,9.5859,9.5898,9.6328,9.6875,9.4414,9.3359,9.2851,8.7773,0.0,8.1523,7.7305,0.0,0.0,0.0,0.0,0.0,0.0,0.0,0.0,0.0,0.0,6.95,7.121,7.4791,7.9018,8.252,8.5975,8.9681,9.4293,9.6576,9.8049,9.9854,9.9609,9.8476,9.6716,9.533,9.3793,0.0,0.0,9.271,9.6132,9.6558,9.8322,10.3603,10.1405,9.9804,0.0,0.0,0.0,0.0,0.0,0.0,10.2886,0.0,10.5586,10.5781,10.6406,10.6406,10.5703,10.4687,10.4687,10.5508,10.3789,10.289,10.289,10.2109,10.1719,10.1601,9.9844,9.9062,9.9023,9.8086,9.7695,9.7695,9.7695,9.7265,9.6562,9.6562,9.6015,9.5273,9.5273,9.5234,9.4687,0.0,0.0,0.0,0.0,0.0,0.0,0.0,0.0,0.0,0.0,0.0,0.0,0.0,0.0,0.0,0.0,0.0,0.0,0.0,0.0,0.0,0.0,0.0,0.0,0.0,0.0,0.0,0.0,0.0,8.2031,8.3984,8.5273,8.625,0.0,8.7578,8.7969,8.8086,8.6797,8.5859,8.4922,0.0,7.8711,7.7187,0.0,0.0,0.0,0.0,0.0,0.0,0.0,0.0,0.0,0.0,7.0984,7.3472,7.7104,8.0394,8.3902,8.8646,9.2522,9.5851,9.8359,9.9781,10.0415,10.0115,9.9375,9.7872,9.4679,9.0819,8.7234,0.0,0.0,0.0,9.1741,9.7451,0.0,10.5391,10.6299,0.0,0.0,0.0,10.4199,10.3194,10.3704,0.0,0.0,10.5195,10.6601,10.9218,10.8281,10.7617,10.7383,10.5898,10.5312,10.5508,10.4414,10.3515,10.289,10.2695,10.2617,10.25,10.0781,9.9961,9.9883,9.8359,9.7695,9.7695,9.7695,9.7578,9.7383,9.7383,9.6875,9.6172,9.6172,9.5742,9.4961,0.0,0.0,0.0,0.0,0.0,0.0,0.0,0.0,0.0,0.0,0.0,0.0,0.0,0.0,0.0,0.0,0.0,0.0,0.0,0.0,0.0,0.0,0.0,0.0,0.0,0.0,0.0,0.0,0.0,0.0,0.0,7.9375,8.0273,8.1367,8.1875,8.2304,8.25,0.0,0.0,0.0,0.0,0.0,0.0,0.0,0.0,0.0,0.0,0.0,0.0,0.0,0.0,7.285,7.4576,7.6575,7.9033,8.2866,0.0,8.9129,9.3838,9.6936,9.9258,10.1015,10.1484,10.1015,9.8906,9.7698,9.5574,9.047,8.6726,0.0,0.0,0.0,0.0,0.0,0.0,0.0,10.6992,10.8002,10.8203,0.0,10.84,0.0,10.6002,10.6994,10.7689,0.0,0.0,10.8008,10.9883,10.9804,10.9414,10.8593,10.7304,10.6211,10.5508,10.539,10.4687,10.3515,10.3515,10.3281,10.289,10.1484,10.0703,10.0195,0.0,9.8047,9.7695,9.7695,9.7695,9.7695,9.7695,9.7422,9.7031,9.7031,9.6719,9.6172,0.0,0.0,0.0,0.0,0.0,0.0,0.0,0.0,0.0,0.0,0.0,0.0,0.0,0.0,0.0,0.0,0.0,0.0,0.0,0.0,0.0,0.0,0.0,0.0,0.0,0.0,0.0,0.0,0.0,0.0,0.0,0.0,0.0,0.0,0.0,0.0,0.0,0.0,0.0,0.0,0.0,0.0,0.0,0.0,0.0,0.0,0.0,0.0,0.0,0.0,7.671,7.7347,8.0328,8.2969,8.5664,8.914,9.1875,9.463,9.8551,10.0395,10.1484,10.2812,10.2304,10.0703,9.7109,9.508,9.2101,8.5395,0.0,8.0733,7.7764,0.0,8.4972,9.0009,0.0,10.0382,10.8515,10.8398,10.8398,11.1015,11.1211,11.0508,10.8789,11.0,11.0781,11.0781,11.0117,10.9687,10.9804,11.1093,11.1093,10.9414,10.8593,10.7383,10.5703,10.6406,10.5898,10.4219,10.4219,10.3711,10.289,10.1992,10.1211,10.039,0.0,0.0,9.8047,9.7812,9.7773,9.7851,9.7734,9.7695,9.7695,9.7695,9.7695,9.7578,0.0,0.0,0.0,0.0,0.0,0.0,0.0,0.0,0.0,0.0,5.7187,0.0,0.0,0.0,0.0,0.0,0.0,0.0,0.0,0.0,0.0,0.0,0.0,0.0,0.0,0.0,0.0,0.0,0.0,0.0,0.0,0.0,0.0,0.0,0.0,0.0,0.0,0.0,0.0,0.0,0.0,0.0,0.0,0.0,0.0,0.0,0.0,0.0,0.0,0.0,8.1543,8.4007,8.8007,9.0586,9.3047,9.789,9.9648,10.0702,10.3491,10.4913,10.5312,10.4219,10.2812,10.0508,9.6094,9.2095,0.0,0.0,0.0,7.5908,7.5293,7.8122,0.0,9.0244,0.0,0.0,0.0,0.0,11.25,0.0,0.0,0.0,0.0,0.0,0.0,0.0,0.0,0.0,11.25,11.2109,11.1093,10.9414,10.9218,10.8203,10.6484,10.6601,10.5898,10.4219,10.4219,10.3711,10.289,10.1992,10.1484,10.1289,0.0,0.0,9.9726,9.8281,9.8125,9.8711,9.7969,9.7695,9.7695,9.7695,9.7695,9.7578,0.0,0.0,0.0,0.0,0.0,0.0,0.0,0.0,0.0,0.0,5.8594,5.875,0.0,0.0,0.0,0.0,0.0,0.0,0.0,0.0,0.0,0.0,0.0,0.0,0.0,0.0,0.0,0.0,0.0,0.0,0.0,0.0,0.0,0.0,0.0,0.0,0.0,0.0,0.0,0.0,0.0,0.0,0.0,0.0,0.0,0.0,0.0,0.0,0.0,0.0,8.2812,8.832,9.2656,9.5508,9.7969,10.1797,10.3008,10.3711,10.7187,10.7812,10.7187,10.6406,10.4219,10.0508,9.3672,0.0,0.0,0.0,0.0,7.3801,7.287,0.0,0.0,0.0,0.0,0.0,0.0,0.0,0.0,0.0,0.0,0.0,0.0,0.0,0.0,0.0,0.0,0.0,11.3203,11.2383,11.1484,11.0703,10.9804,10.8906,10.8086,10.7617,10.6719,10.5508,10.5508,10.4804,10.3594,10.3086,10.25,10.1601,0.0,0.0,10.0195,9.8906,9.8633,9.8906,9.8047,9.7695,9.7695,9.7695,9.7695,9.7656,0.0,0.0,0.0,0.0,0.0,0.0,0.0,5.6797,5.7773,5.9492,6.0273,6.0742,6.0937,6.0781,6.0937,0.0,0.0,0.0,0.0,0.0,0.0,0.0,0.0,0.0,0.0,0.0,0.0,0.0,0.0,0.0,0.0,0.0,0.0,0.0,0.0,0.0,0.0,0.0,0.0,0.0,0.0,0.0,0.0,0.0,0.0,0.0,0.0,0.0,0.0,0.0,8.2344,8.8867,9.3359,9.7539,10.1211,10.3281,10.4687,10.6289,10.9883,11.0195,10.9218,10.8515,10.539,10.0389,9.1921,8.7258,0.0,0.0,7.3482,7.2877,7.1668,0.0,0.0,0.0,0.0,0.0,0.0,0.0,0.0,0.0,0.0,0.0,0.0,0.0,0.0,0.0,0.0,0.0,0.0,11.2695,11.2304,11.1914,11.0586,10.9804,10.9609,10.8711,10.789,10.7304,10.6914,10.6015,10.4687,10.4609,10.3594,10.2109,0.0,0.0,0.0,9.9726,9.9375,9.9453,9.8594,9.8125,9.7969,9.7969,9.7851,9.7695,0.0,0.0,0.0,0.0,0.0,0.0,0.0,5.7422,5.957,6.125,6.1523,6.1875,6.2656,6.2031,6.1601,0.0,0.0,0.0,0.0,0.0,0.0,0.0,0.0,0.0,0.0,0.0,0.0,0.0,0.0,0.0,0.0,0.0,0.0,0.0,0.0,0.0,0.0,0.0,0.0,0.0,0.0,0.0,0.0,0.0,0.0,0.0,0.0,0.0,0.0,0.0,0.0,8.2695,8.7617,9.5195,10.2383,10.289,0.0,0.0,11.1406,11.2812,11.3086,11.0,10.539,9.982,9.2549,0.0,0.0,7.4962,7.2993,7.2503,7.314,0.0,0.0,0.0,0.0,0.0,0.0,0.0,0.0,0.0,0.0,0.0,0.0,0.0,0.0,0.0,0.0,0.0,0.0,11.3906,11.3515,11.1992,11.1718,11.1289,11.0508,10.9609,10.9101,10.8984,10.75,10.6601,10.6406,10.5703,10.4883,10.3906,0.0,0.0,0.0,10.0898,10.0586,10.1289,10.039,9.957,9.8867,9.8867,9.8398,9.7695,0.0,0.0,0.0,0.0,0.0,0.0,0.0,5.7422,5.9219,6.1406,6.2617,6.3398,6.375,6.3008,6.2265,0.0,0.0,0.0,0.0,0.0,0.0,0.0,0.0,0.0,0.0,0.0,0.0,0.0,0.0,0.0,0.0,0.0,0.0,0.0,0.0,0.0,0.0,0.0,0.0,0.0,0.0,0.0,0.0,0.0,0.0,0.0,0.0,0.0,0.0,0.0,0.0,0.0,8.0742,8.7065,0.0,0.0,10.3205,10.7304,11.1484,11.3984,11.4687,11.2304,10.6601,9.9854,9.3129,0.0,7.9712,7.5274,7.363,7.3091,7.3447,0.0,0.0,0.0,0.0,0.0,0.0,0.0,0.0,0.0,0.0,0.0,0.0,0.0,0.0,0.0,0.0,0.0,0.0,11.4101,11.3593,11.3515,11.2383,11.1992,11.2187,11.0781,10.9804,10.9297,10.8593,10.7695,10.6719,10.6406,10.5508,10.4219,0.0,0.0,0.0,10.1601,10.1289,10.1484,10.0586,10.0117,9.9765,9.9765,9.9219,9.8476,0.0,0.0,0.0,0.0,0.0,0.0,5.6328,5.7773,5.9375,6.1445,6.3008,6.4023,6.4258,6.2851,6.1914,6.207,0.0,0.0,0.0,0.0,0.0,0.0,0.0,0.0,0.0,0.0,0.0,0.0,0.0,0.0,0.0,0.0,0.0,0.0,0.0,0.0,0.0,0.0,0.0,0.0,0.0,0.0,0.0,0.0,0.0,0.0,0.0,0.0,0.0,0.0,0.0,0.0,0.0,0.0,0.0,0.0,9.9444,10.4883,11.0195,11.3789,11.5698,11.3613,10.7387,10.0203,0.0,0.0,7.9682,7.5861,7.4409,7.3755,7.3524,7.4168,7.5322,7.7275,0.0,8.1647,9.0011,9.2332,0.0,0.0,0.0,0.0,0.0,0.0,0.0,0.0,0.0,0.0,0.0,11.4687,11.4101,11.4492,11.3281,11.2812,11.3203,11.1718,11.0781,11.039,10.9883,10.8984,10.7812,10.7617,10.6484,0.0,0.0,0.0,0.0,10.2695,10.2383,10.2304,10.1406,10.0898,10.0703,10.0703,10.0117,9.9336,0.0,0.0,0.0,0.0,0.0,0.0,0.0,5.875,6.0703,6.1562,6.2461,6.3359,6.4219,6.1289,6.0234,6.2773,0.0,0.0,0.0,0.0,0.0,0.0,0.0,0.0,0.0,0.0,0.0,0.0,0.0,0.0,0.0,0.0,0.0,0.0,0.0,0.0,0.0,0.0,0.0,0.0,0.0,0.0,6.6914,0.0,0.0,0.0,0.0,0.0,0.0,0.0,0.0,0.0,0.0,0.0,0.0,0.0,9.5486,10.4101,10.6992,11.2304,11.6288,11.3524,10.7718,10.091,0.0,0.0,8.0384,7.6707,7.5284,7.4437,7.3668,7.4168,7.5322,7.7275,7.9738,8.3919,9.1277,9.4458,0.0,0.0,0.0,0.0,0.0,0.0,0.0,0.0,0.0,0.0,0.0,0.0,11.5312,11.4492,11.4492,11.4101,11.3203,11.2304,11.2304,11.3086,11.1406,11.0586,11.0508,10.9687,0.0,0.0,0.0,0.0,0.0,10.4492,10.4219,10.4101,10.3203,10.2304,10.1601,10.1601,10.1015,10.0195,0.0,0.0,0.0,0.0,0.0,0.0,0.0,5.7773,5.8984,5.9883,6.0703,6.1562,6.2422,6.0547,6.0,6.1953,0.0,0.0,0.0,0.0,0.0,0.0,0.0,0.0,0.0,0.0,0.0,0.0,0.0,0.0,0.0,0.0,0.0,0.0,0.0,0.0,0.0,0.0,0.0,0.0,0.0,6.8594,6.8672,0.0,0.0,0.0,0.0,0.0,0.0,0.0,0.0,0.0,0.0,0.0,0.0,8.0029,8.7681,9.5972,9.8797,10.3084,10.6315,10.3588,9.8669,9.3438,8.9478,0.0,7.893,7.6476,7.5784,7.5515,7.5245,7.5438,7.6592,7.97,8.149,8.3917,8.7981,0.0,0.0,0.0,0.0,0.0,0.0,0.0,0.0,0.0,0.0,0.0,0.0,0.0,11.7109,11.6211,11.5117,11.4687,11.5,11.3515,11.2617,11.2304,11.1093,11.0586,11.0586,10.9687,0.0,0.0,0.0,0.0,0.0,10.5195,10.4687,10.4219,10.3906,10.3281,10.25,10.25,10.1914,10.1094,0.0,0.0,0.0,0.0,0.0,0.0,0.0,5.7344,5.8086,5.8633,5.914,5.9883,6.1094,5.9414,5.914,6.1484,0.0,0.0,0.0,0.0,0.0,0.0,0.0,0.0,0.0,0.0,0.0,0.0,0.0,0.0,0.0,0.0,0.0,0.0,0.0,0.0,0.0,0.0,0.0,0.0,6.8594,6.8945,6.9023,0.0,0.0,0.0,0.0,0.0,0.0,0.0,0.0,0.0,0.0,0.0,0.0,0.0,8.1039,8.7456,0.0,9.7199,10.0281,9.8258,9.4369,0.0,0.0,0.0,0.0,7.6976,7.6092,7.563,7.563,7.5668,7.6669,7.9515,8.0846,8.2901,8.6863,0.0,0.0,0.0,0.0,0.0,0.0,0.0,0.0,0.0,0.0,0.0,0.0,0.0,11.8086,11.75,11.6211,11.539,11.5312,11.4218,11.3281,11.2383,11.1797,11.1406,11.1093,0.0,0.0,0.0,0.0,0.0,0.0,10.6601,10.5898,10.5117,10.4414,10.3906,10.3398,10.3008,10.2617,10.1992,0.0,0.0,0.0,0.0,0.0,0.0,0.0,0.0,0.0,5.7812,5.7812,5.8398,5.9961,5.8008,5.793,6.1211,0.0,0.0,0.0,0.0,0.0,0.0,0.0,0.0,0.0,0.0,0.0,0.0,6.7031,6.8359,7.082,0.0,0.0,0.0,0.0,0.0,0.0,0.0,0.0,0.0,6.7851,6.8242,0.0,0.0,0.0,0.0,0.0,0.0,0.0,0.0,0.0,0.0,0.0,0.0,0.0,0.0,0.0,0.0,0.0,9.3109,0.0,0.0,0.0,0.0,0.0,0.0,0.0,0.0,0.0,0.0,0.0,7.5284,7.5908,7.7669,7.8815,8.16,8.7626,0.0,0.0,0.0,0.0,0.0,0.0,0.0,0.0,0.0,0.0,0.0,0.0,0.0,0.0,11.8281,11.75,11.6289,11.4609,11.4492,11.3984,11.3203,11.3086,11.2695,11.1992,0.0,0.0,0.0,0.0,0.0,0.0,10.8398,10.75,10.6484,10.4883,10.4219,10.3984,10.3203,10.289,10.2812,0.0,0.0,0.0,0.0,0.0,0.0,0.0,0.0,0.0,0.0,5.6914,5.707,5.7461,5.6953,5.7461,0.0,0.0,0.0,0.0,0.0,0.0,0.0,0.0,0.0,0.0,0.0,0.0,6.6914,6.8242,6.9844,7.1719,7.2578,0.0,0.0,0.0,0.0,0.0,0.0,0.0,0.0,6.8125,6.8555,0.0,0.0,0.0,0.0,6.9258,6.957,0.0,0.0,0.0,0.0,0.0,0.0,0.0,0.0,7.4533,7.6524,7.8353,0.0,8.4034,8.2394,8.1785,0.0,0.0,0.0,0.0,0.0,0.0,0.0,0.0,0.0,7.7246,8.0862,8.2486,8.4715,8.8814,0.0,0.0,0.0,0.0,0.0,0.0,0.0,0.0,0.0,0.0,0.0,0.0,0.0,0.0,11.8281,11.8086,11.7187,11.5508,11.4218,11.3398,11.3203,11.25,11.2383,11.289,0.0,0.0,0.0,0.0,0.0,10.9297,10.9101,10.7695,10.5703,10.5312,10.4414,10.3203,10.3008,10.289,10.289,0.0,0.0,0.0,0.0,0.0,0.0,0.0,0.0,0.0,0.0,0.0,0.0,0.0,0.0,0.0,0.0,0.0,0.0,0.0,0.0,0.0,0.0,0.0,0.0,0.0,0.0,0.0,0.0,0.0,7.1172,0.0,0.0,0.0,0.0,0.0,0.0,0.0,0.0,0.0,6.7656,6.8047,0.0,0.0,0.0,0.0,0.0,6.914,6.918,0.0,7.1758,7.2344,7.2148,0.0,0.0,0.0,0.0,7.2807,7.3939,7.3829,7.6566,7.9291,7.8315,7.86,7.8869,0.0,0.0,0.0,0.0,0.0,0.0,0.0,0.0,0.0,8.0431,8.2678,8.6293,0.0,0.0,0.0,0.0,0.0,0.0,0.0,0.0,0.0,0.0,0.0,0.0,0.0,0.0,0.0,0.0,11.789,11.7304,11.6406,11.5,11.4218,11.3789,11.289,11.2695,11.3203,0.0,0.0,0.0,0.0,0.0,10.9883,10.9883,10.8398,10.6015,10.5586,10.4687,10.3398,10.3008,10.289,10.289,0.0,0.0,0.0,0.0,0.0,0.0,0.0,0.0,0.0,0.0,0.0,0.0,0.0,0.0,0.0,0.0,0.0,0.0,0.0,0.0,0.0,0.0,0.0,0.0,0.0,0.0,0.0,0.0,0.0,0.0,0.0,0.0,0.0,0.0,0.0,0.0,0.0,0.0,0.0,6.6953,6.7695,0.0,0.0,0.0,0.0,0.0,0.0,0.0,0.0,7.1523,7.2187,7.1914,7.25,0.0,0.0,0.0,0.0,0.0,7.2617,7.5781,7.8718,7.8089,7.8738,7.9238,0.0,0.0,0.0,0.0,0.0,0.0,0.0,0.0,0.0,0.0,0.0,0.0,0.0,0.0,0.0,0.0,0.0,0.0,0.0,0.0,0.0,0.0,0.0,0.0,0.0,0.0,0.0,0.0,11.7617,11.7187,11.7187,11.6093,11.5195,11.4297,11.3593,11.3203,11.3203,11.3203,0.0,0.0,0.0,0.0,11.0586,11.0586,10.9101,10.6601,10.5898,10.5195,10.4297,10.3398,10.3086,10.3086,0.0,0.0,0.0,0.0,0.0,0.0,0.0,0.0,0.0,0.0,0.0,0.0,0.0,0.0,0.0,0.0,0.0,0.0,0.0,0.0,0.0,0.0,0.0,0.0,0.0,0.0,0.0,0.0,0.0,0.0,7.5078,7.7812,7.6953,0.0,0.0,0.0,0.0,0.0,0.0,6.6914,6.7031,0.0,0.0,0.0,0.0,0.0,0.0,0.0,0.0,6.8828,6.9844,7.0781,7.0195,0.0,0.0,0.0,0.0,0.0,7.539,7.7812,7.8445,7.481,7.6056,7.7762,0.0,0.0,0.0,0.0,0.0,0.0,0.0,0.0,0.0,0.0,0.0,0.0,0.0,0.0,0.0,0.0,0.0,0.0,0.0,0.0,0.0,0.0,0.0,0.0,0.0,0.0,0.0,0.0,0.0,11.8086,11.8086,11.5781,11.4297,11.3398,11.3281,11.3203,11.3203,11.3203,11.3203,0.0,0.0,11.2187,11.0586,11.0586,10.9101,10.6719,10.6601,10.6015,10.5195,10.4297,10.3984,10.3906,0.0,0.0,0.0,0.0,0.0,0.0,0.0,0.0,0.0,0.0,0.0,0.0,0.0,0.0,0.0,0.0,0.0,0.0,0.0,0.0,0.0,0.0,0.0,0.0,0.0,0.0,0.0,0.0,0.0,7.5664,7.7344,7.707,7.539,7.2461,0.0,0.0,0.0,0.0,0.0,6.6914,0.0,0.0,0.0,0.0,0.0,0.0,0.0,0.0,0.0,0.0,7.0078,7.0547,6.9726,0.0,0.0,0.0,0.0,0.0,7.3867,7.625,7.7728,7.578,7.7959,0.0,0.0,0.0,0.0,0.0,0.0,0.0,0.0,0.0,0.0,0.0,0.0,0.0,0.0,0.0,0.0,0.0,0.0,0.0,0.0,0.0,0.0,0.0,0.0,0.0,0.0,0.0,0.0,0.0,0.0,0.0,11.7617,11.6015,11.5,11.4609,11.3711,11.3203,11.3203,11.3203,11.3203,11.3203,0.0,11.2187,11.0586,11.0586,10.9101,10.6719,10.6719,10.5898,10.4687,10.3789,10.3789,10.4101,0.0,0.0,0.0,0.0,0.0,0.0,0.0,0.0,0.0,0.0,0.0,0.0,0.0,0.0,0.0,0.0,0.0,0.0,0.0,0.0,0.0,0.0,0.0,0.0,0.0,0.0,0.0,7.1523,7.5742,7.8867,8.0859,7.7226,7.4453,0.0,0.0,0.0,0.0,0.0,0.0,0.0,0.0,0.0,0.0,0.0,0.0,0.0,0.0,0.0,0.0,0.0,0.0,0.0,0.0,0.0,0.0,7.0273,7.0664,7.1914,7.293,7.5312,7.7617,0.0,0.0,0.0,0.0,0.0,0.0,0.0,0.0,0.0,0.0,0.0,0.0,0.0,0.0,0.0,0.0,0.0,0.0,0.0,0.0,0.0,0.0,0.0,0.0,0.0,0.0,0.0,0.0,0.0,0.0,0.0,0.0,0.0,11.6992,11.6093,11.5586,11.5508,11.3906,11.3203,11.3203,11.3203,11.3203,11.3203,11.3203,11.2187,11.0586,11.0586,10.9218,10.6992,10.6992,10.6093,10.4687,10.3594,10.3594,10.4101,0.0,0.0,0.0,0.0,0.0,0.0,0.0,0.0,0.0,0.0,0.0,0.0,0.0,0.0,0.0,0.0,0.0,0.0,0.0,0.0,0.0,0.0,0.0,0.0,0.0,6.779,6.9726,7.4023,7.7734,8.125,8.4414,8.0195,7.6875,7.4297,0.0,0.0,0.0,0.0,0.0,0.0,6.7226,0.0,0.0,0.0,0.0,0.0,0.0,0.0,0.0,0.0,0.0,0.0,0.0,0.0,7.0859,7.0664,7.0703,7.168,7.5742,7.7617,0.0,0.0,0.0,0.0,0.0,0.0,0.0,0.0,0.0,0.0,0.0,0.0,0.0,0.0,0.0,0.0,0.0,0.0,0.0,0.0,0.0,0.0,0.0,0.0,0.0,0.0,0.0,0.0,0.0,0.0,0.0,0.0,0.0,0.0,11.6992,11.6093,11.5312,11.4609,11.3593,11.3203,11.3203,11.3203,11.3203,11.3203,11.3203,11.2187,11.0586,11.0586,10.9492,10.789,10.789,10.7304,10.6289,10.4687,10.4101,10.4101,0.0,0.0,0.0,0.0,0.0,0.0,0.0,0.0,0.0,0.0,0.0,0.0,0.0,0.0,0.0,0.0,0.0,0.0,0.0,0.0,0.0,0.0,0.0,6.4872,6.7616,7.0852,7.4443,7.8476,8.1992,8.3867,8.3984,7.914,0.0,0.0,0.0,0.0,0.0,0.0,0.0,0.0,6.7461,6.789,0.0,0.0,0.0,0.0,0.0,0.0,0.0,0.0,6.875,6.9453,6.9492,7.043,7.1406,7.0859,7.1094,7.1875,7.3515,7.6562,0.0,0.0,0.0,0.0,0.0,0.0,0.0,0.0,0.0,0.0,0.0,0.0,0.0,0.0,0.0,0.0,0.0,0.0,0.0,0.0,0.0,0.0,0.0,0.0,0.0,0.0,0.0,0.0,0.0,0.0,0.0,0.0,0.0,0.0,0.0,11.539,11.4804,11.4492,11.3593,11.289,11.2383,11.2383,11.2109,11.1601,11.1601,11.0898,10.9804,10.9804,10.9101,10.789,10.7383,10.7304,10.7187,10.5,10.4492,10.4804,0.0,0.0,0.0,0.0,0.0,0.0,0.0,0.0,0.0,0.0,0.0,0.0,0.0,0.0,0.0,0.0,0.0,0.0,0.0,0.0,0.0,0.0,0.0,6.4792,6.7153,7.2569,7.6923,8.0039,8.3906,8.4883,8.3086,0.0,0.0,0.0,0.0,0.0,0.0,0.0,0.0,0.0,0.0,6.8476,0.0,0.0,0.0,0.0,0.0,0.0,0.0,0.0,6.914,6.9922,7.0195,7.1094,7.1875,7.1289,7.1719,7.2422,7.2422,7.539,7.8633,7.918,0.0,0.0,0.0,0.0,0.0,0.0,0.0,0.0,0.0,0.0,0.0,0.0,0.0,0.0,0.0,0.0,0.0,0.0,0.0,0.0,0.0,0.0,0.0,0.0,0.0,0.0,0.0,0.0,0.0,0.0,0.0,0.0,0.0,11.4804,11.4218,11.3711,11.3086,11.25,11.1914,11.1601,11.1211,11.0586,11.0586,11.0117,10.9297,10.9297,10.8789,10.789,10.6797,10.6992,10.7695,10.4804,10.4492,10.5312,0.0,0.0,0.0,0.0,0.0,0.0,0.0,0.0,0.0,0.0,0.0,0.0,0.0,0.0,0.0,0.0,0.0,0.0,0.0,0.0,0.0,0.0,0.0,6.4894,6.7295,7.2607,7.6187,7.793,8.2578,8.3945,8.2148,7.789,0.0,0.0,0.0,0.0,0.0,0.0,0.0,0.0,0.0,6.9726,0.0,0.0,0.0,0.0,0.0,0.0,0.0,0.0,7.0,7.0859,7.1719,7.2031,7.2031,7.1992,7.2617,7.332,7.3281,7.457,7.6328,0.0,0.0,0.0,0.0,0.0,0.0,0.0,0.0,0.0,0.0,0.0,0.0,0.0,0.0,0.0,0.0,0.0,0.0,0.0,0.0,0.0,0.0,0.0,0.0,0.0,0.0,0.0,0.0,0.0,0.0,0.0,0.0,0.0,0.0,11.4492,11.3593,11.1914,11.1914,11.1914,11.1797,11.1015,11.0586,11.0586,11.0586,11.0117,10.9297,10.9297,10.8789,10.7812,10.6211,10.6484,10.7617,10.4219,10.3984,10.5195,0.0,0.0,0.0,0.0,0.0,0.0,0.0,0.0,0.0,0.0,0.0,0.0,0.0,0.0,0.0,0.0,0.0,0.0,0.0,0.0,0.0,0.0,0.0,0.0,0.0,0.0,7.4072,8.0976,8.1797,8.0664,0.0,0.0,0.0,7.2226,0.0,0.0,0.0,0.0,0.0,0.0,6.9297,6.957,0.0,0.0,0.0,0.0,0.0,0.0,0.0,0.0,0.0,0.0,7.1719,7.3242,7.4375,7.2539,7.3476,7.4726,7.289,0.0,0.0,0.0,0.0,0.0,0.0,0.0,0.0,0.0,0.0,0.0,0.0,0.0,0.0,0.0,0.0,0.0,0.0,0.0,0.0,0.0,0.0,0.0,0.0,0.0,0.0,0.0,0.0,0.0,0.0,0.0,0.0,0.0,0.0,0.0,11.3593,11.3008,11.2383,11.1914,11.0703,10.9804,10.9218,10.9492,10.8984,10.789,10.8515,10.8593,10.8398,10.8398,10.8203,10.789,10.6797,10.6601,10.6797,10.4609,10.4101,10.4414,0.0,0.0,0.0,0.0,0.0,0.0,0.0,0.0,0.0,0.0,0.0,0.0,0.0,0.0,0.0,0.0,0.0,0.0,0.0,0.0,0.0,0.0,0.0,0.0,0.0,6.7236,7.1781,0.0,0.0,0.0,0.0,0.0,0.0,7.332,0.0,7.3281,0.0,0.0,0.0,6.9961,6.9961,7.0195,7.0547,0.0,0.0,0.0,0.0,0.0,0.0,0.0,0.0,0.0,7.1836,7.3086,7.418,7.3281,7.3906,7.4844,7.4648,0.0,0.0,0.0,0.0,0.0,0.0,0.0,0.0,0.0,0.0,0.0,0.0,0.0,0.0,0.0,0.0,0.0,0.0,0.0,0.0,0.0,0.0,0.0,0.0,0.0,0.0,0.0,0.0,0.0,0.0,0.0,0.0,0.0,0.0,0.0,11.2187,11.1601,11.1211,11.0898,10.9804,10.8711,10.75,10.8398,10.8203,10.7187,10.7812,10.8008,10.8008,10.7617,10.75,10.7383,10.6211,10.5898,10.6015,10.4297,10.3906,10.4101,0.0,0.0,0.0,0.0,0.0,0.0,0.0,0.0,0.0,0.0,0.0,0.0,0.0,0.0,0.0,0.0,0.0,0.0,0.0,0.0,0.0,0.0,0.0,0.0,0.0,0.0,0.0,0.0,0.0,0.0,0.0,0.0,7.5469,7.6953,0.0,7.664,0.0,7.2969,7.1367,7.0586,7.0664,7.1172,7.1992,7.2851,0.0,0.0,0.0,0.0,0.0,0.0,0.0,0.0,7.1953,7.2148,7.2617,7.3984,7.4062,7.4453,0.0,0.0,0.0,0.0,0.0,0.0,0.0,0.0,0.0,0.0,0.0,0.0,0.0,0.0,0.0,0.0,0.0,0.0,0.0,0.0,0.0,0.0,0.0,0.0,0.0,0.0,0.0,0.0,0.0,0.0,0.0,0.0,0.0,0.0,0.0,0.0,11.0586,11.0508,11.0117,0.0,10.9218,10.8281,10.6719,10.7617,10.8008,10.789,10.789,10.7812,10.7695,10.6914,10.6601,10.6406,10.4804,10.4687,10.5195,10.3515,10.3398,10.3984,0.0,0.0,0.0,0.0,0.0,0.0,0.0,0.0,0.0,0.0,0.0,0.0,0.0,0.0,0.0,0.0,0.0,0.0,0.0,0.0,0.0,0.0,0.0,0.0,0.0,0.0,0.0,0.0,0.0,0.0,0.0,0.0,0.0,7.5234,0.0,7.5976,7.3711,7.1797,7.0469,6.9726,7.043,7.082,7.1055,7.1953,7.1601,0.0,0.0,0.0,0.0,0.0,0.0,0.0,7.1797,7.3398,7.4726,7.3047,7.4844,7.7539,0.0,0.0,0.0,0.0,0.0,0.0,0.0,0.0,0.0,0.0,0.0,0.0,0.0,0.0,0.0,0.0,0.0,0.0,0.0,0.0,0.0,0.0,0.0,0.0,0.0,0.0,0.0,0.0,0.0,0.0,0.0,0.0,0.0,0.0,0.0,11.0781,11.0586,10.9883,10.9492,0.0,10.8593,10.7695,10.6719,10.7617,10.7617,10.6992,10.6992,10.6601,10.6015,10.5781,10.5781,10.5703,10.4609,10.4297,10.4414,10.3281,10.3008,10.3203,0.0,0.0,0.0,0.0,0.0,0.0,0.0,0.0,0.0,0.0,0.0,0.0,0.0,0.0,0.0,0.0,0.0,0.0,0.0,0.0,0.0,0.0,0.0,0.0,0.0,0.0,0.0,0.0,0.0,0.0,0.0,0.0,0.0,7.5898,0.0,7.5976,7.3789,7.1601,7.043,7.0078,7.0508,7.0703,7.0859,7.2148,7.1836,7.0742,7.1211,0.0,0.0,0.0,0.0,0.0,0.0,0.0,7.3945,7.3398,7.4844,7.7265,0.0,0.0,0.0,0.0,0.0,0.0,0.0,0.0,0.0,0.0,0.0,0.0,0.0,0.0,0.0,0.0,0.0,0.0,0.0,0.0,0.0,0.0,0.0,0.0,0.0,0.0,0.0,0.0,0.0,0.0,0.0,0.0,0.0,0.0,10.9609,10.9414,10.9414,10.8515,10.8281,10.8711,10.8203,10.75,10.6719,10.6797,10.6601,10.6093,10.6093,10.5898,10.5508,10.5,10.4883,10.4804,10.3906,10.3594,10.3515,10.3086,10.289,10.289,0.0,0.0,0.0,0.0,0.0,0.0,0.0,0.0,0.0,0.0,0.0,0.0,0.0,0.0,0.0,0.0,0.0,0.0,0.0,0.0,0.0,0.0,0.0,0.0,0.0,0.0,0.0,0.0,0.0,0.0,0.0,0.0,0.0,7.6953,0.0,0.0,7.4414,7.164,7.0664,7.0898,7.0742,7.0781,7.1094,7.2539,0.0,7.0937,7.0937,7.1289,7.168,7.1133,0.0,0.0,0.0,0.0,7.2265,7.3711,7.4453,7.6015,0.0,0.0,0.0,0.0,0.0,0.0,0.0,0.0,0.0,0.0,0.0,0.0,0.0,0.0,0.0,0.0,0.0,0.0,0.0,0.0,0.0,0.0,0.0,0.0,0.0,0.0,0.0,0.0,0.0,0.0,0.0,0.0,11.0703,10.9101,10.8398,10.8008,10.8008,10.7109,10.7109,10.7812,10.75,10.6992,10.6211,10.539,10.5117,10.5312,10.5312,10.5195,10.5,10.4297,10.3984,10.3906,10.3203,10.289,10.289,10.289,10.289,10.289,0.0,0.0,0.0,0.0,0.0,0.0,0.0,0.0,0.0,0.0,0.0,0.0,0.0,0.0,0.0,0.0,0.0,0.0,0.0,0.0,0.0,0.0,0.0,0.0,0.0,0.0,0.0,0.0,0.0,0.0,0.0,0.0,0.0,0.0,0.0,0.0,0.0,7.1055,7.0508,7.1758,7.1015,7.1133,7.1836,0.0,0.0,0.0,0.0,7.1406,7.0976,7.1601,7.1406,0.0,0.0,0.0,7.2031,7.2265,7.3945,0.0,0.0,0.0,0.0,0.0,0.0,0.0,0.0,0.0,0.0,0.0,0.0,0.0,0.0,0.0,0.0,0.0,0.0,0.0,0.0,0.0,0.0,0.0,0.0,0.0,0.0,0.0,0.0,0.0,0.0,0.0,0.0,10.9609,10.9218,10.8203,10.8086,10.8008,10.8008,10.7109,10.6797,10.6914,10.539,10.4609,10.4492,10.3594,10.3711,10.4414,10.4414,10.3906,10.3203,10.3086,10.3086,10.3086,10.289,10.289,10.289,10.289,10.289,10.289,0.0,0.0,0.0,0.0,0.0,0.0,0.0,0.0,0.0,0.0,0.0,0.0,0.0,0.0,0.0,5.7148,5.7187,5.7785,5.9257,6.0403,0.0,0.0,0.0,0.0,0.0,0.0,0.0,0.0,0.0,0.0,0.0,7.2978,7.5351,0.0,0.0,0.0,0.0,0.0,0.0,0.0,7.1055,7.0351,7.0039,0.0,0.0,0.0,0.0,0.0,0.0,0.0,7.1758,7.1484,7.1875,0.0,0.0,0.0,0.0,0.0,0.0,0.0,0.0,0.0,0.0,0.0,0.0,0.0,0.0,0.0,0.0,0.0,0.0,0.0,0.0,0.0,0.0,0.0,0.0,0.0,0.0,0.0,0.0,0.0,0.0,0.0,0.0,0.0,0.0,0.0,10.8593,10.8984,10.8906,10.8008,10.7109,10.6797,10.7304,10.6015,10.5508,10.6015,10.4804,10.4219,10.4219,10.3281,10.3086,10.3515,10.3515,10.3281,10.289,10.289,10.289,10.289,10.289,10.289,10.289,10.289,10.289,10.289,0.0,0.0,0.0,0.0,0.0,0.0,0.0,0.0,0.0,0.0,0.0,0.0,0.0,0.0,0.0,0.0,5.7148,5.8006,5.921,6.0358,0.0,0.0,0.0,0.0,0.0,0.0,0.0,0.0,0.0,0.0,7.1877,7.3735,7.6875,0.0,7.7187,0.0,0.0,0.0,0.0,0.0,0.0,0.0,0.0,0.0,0.0,0.0,0.0,0.0,0.0,0.0,0.0,0.0,0.0,0.0,0.0,0.0,0.0,0.0,0.0,0.0,0.0,0.0,0.0,0.0,0.0,0.0,0.0,0.0,0.0,0.0,0.0,0.0,0.0,0.0,0.0,0.0,0.0,0.0,0.0,0.0,0.0,0.0,0.0,0.0,0.0,0.0,0.0,0.0,10.8086,10.8593,10.8593,10.7695,10.6484,10.6015,10.6406,10.4883,10.4414,10.4804,10.4219,10.3906,10.3789,10.3203,10.289,10.289,10.289,10.289,10.289,10.289,10.289,10.289,10.289,10.289,10.289,10.289,10.289,10.289,0.0,0.0,0.0,0.0,0.0,0.0,0.0,0.0,0.0,0.0,0.0,0.0,0.0,5.7344,5.75,5.668,5.8672,6.0275,6.0834,6.0819,6.0819,0.0,0.0,0.0,0.0,0.0,0.0,0.0,0.0,0.0,7.2495,7.4445,7.8555,8.4179,8.0117,7.6953,7.4609,0.0,0.0,0.0,0.0,0.0,0.0,0.0,0.0,0.0,0.0,0.0,0.0,0.0,0.0,0.0,0.0,0.0,0.0,0.0,0.0,0.0,0.0,0.0,0.0,0.0,0.0,0.0,0.0,0.0,0.0,0.0,0.0,0.0,0.0,0.0,0.0,0.0,0.0,0.0,0.0,0.0,0.0,0.0,0.0,0.0,0.0,0.0,0.0,0.0,0.0,0.0,10.8008,10.8008,10.7695,10.6797,10.6719,10.6289,10.5586,10.4687,10.3789,10.3008,10.3008,10.3008,10.3008,10.289,10.289,10.289,10.289,10.289,10.289,10.289,10.289,10.289,10.289,10.289,10.289,10.289,10.289,10.289,0.0,0.0,0.0,0.0,0.0,0.0,0.0,0.0,0.0,0.0,0.0,0.0,0.0,5.6875,5.7187,5.7422,5.9065,6.0106,6.0188,6.055,6.0781,6.0781,0.0,0.0,0.0,0.0,0.0,0.0,0.0,6.5495,7.1133,7.3458,7.6741,8.0625,7.914,7.7969,7.6914,7.3789,0.0,0.0,0.0,0.0,0.0,0.0,0.0,0.0,0.0,0.0,0.0,0.0,0.0,0.0,0.0,0.0,0.0,0.0,0.0,0.0,0.0,0.0,0.0,0.0,0.0,0.0,0.0,0.0,0.0,0.0,0.0,0.0,0.0,0.0,0.0,0.0,0.0,0.0,0.0,0.0,0.0,0.0,0.0,0.0,0.0,0.0,0.0,0.0,0.0,0.0,10.8008,10.75,10.6992,10.6719,10.5703,10.4687,10.3789,10.3515,10.3203,10.289,10.289,10.289,10.289,10.289,10.289,10.289,10.289,10.289,10.289,10.289,10.289,10.289,10.289,10.289,10.289,10.289,10.289,10.289,0.0,0.0,0.0,0.0,0.0,0.0,0.0,0.0,0.0,0.0,0.0,0.0,0.0,0.0,5.789,5.8945,5.9643,6.0027,6.0065,6.055,6.0781,6.0781,6.0781,0.0,0.0,0.0,0.0,0.0,0.0,0.0,0.0,0.0,7.496,7.875,7.7656,0.0,0.0,0.0,0.0,7.3047,0.0,0.0,6.8125,0.0,0.0,0.0,0.0,0.0,0.0,0.0,0.0,0.0,0.0,0.0,0.0,0.0,0.0,0.0,0.0,0.0,0.0,0.0,0.0,0.0,0.0,0.0,0.0,0.0,0.0,0.0,0.0,0.0,0.0,0.0,0.0,0.0,0.0,0.0,0.0,0.0,0.0,0.0,0.0,0.0,0.0,0.0,0.0,0.0,10.7187,10.6914,10.6406,10.5898,10.4492,10.3515,10.289,10.2617,10.25,10.25,10.25,10.25,10.25,10.2812,10.289,10.289,10.289,10.289,10.289,10.289,10.289,10.289,10.289,10.289,10.289,10.289,10.289,10.289,0.0,0.0,0.0,0.0,0.0,0.0,0.0,0.0,0.0,0.0,0.0,0.0,0.0,0.0,0.0,6.1133,6.0512,6.0258,6.0781,6.0781,6.0781,6.0781,6.0781,0.0,0.0,0.0,0.0,0.0,0.0,0.0,0.0,0.0,7.3372,0.0,7.6015,7.6015,7.832,0.0,7.6601,7.543,0.0,6.9258,7.0625,0.0,0.0,0.0,7.2617,7.2734,0.0,0.0,0.0,0.0,0.0,0.0,0.0,0.0,0.0,0.0,0.0,0.0,0.0,0.0,0.0,0.0,0.0,0.0,0.0,0.0,0.0,0.0,0.0,0.0,0.0,0.0,0.0,0.0,0.0,0.0,0.0,0.0,0.0,0.0,0.0,0.0,0.0,0.0,0.0,10.5508,10.5508,10.6211,10.5898,10.4219,10.3281,10.289,10.289,10.1992,10.1601,10.1601,10.1601,10.1601,10.1601,10.25,10.289,10.289,10.2812,10.2812,10.2812,10.289,10.289,10.289,10.289,10.289,10.289,10.289,10.289,10.289,0.0,0.0,0.0,0.0,0.0,0.0,0.0,0.0,0.0,0.0,0.0,0.0,0.0,0.0,0.0,6.0312,6.0589,6.0742,6.0781,6.0781,6.0781,6.0781,6.0781,6.0781,0.0,0.0,0.0,0.0,0.0,0.0,0.0,0.0,0.0,0.0,7.5078,7.5586,7.5586,7.4062,0.0,0.0,7.1328,7.0664,0.0,0.0,0.0,0.0,0.0,7.289,0.0,0.0,7.4883,7.5195,0.0,0.0,0.0,0.0,0.0,0.0,7.3437,0.0,0.0,0.0,0.0,0.0,9.0117,9.1875,0.0,0.0,0.0,0.0,0.0,0.0,0.0,0.0,0.0,0.0,0.0,0.0,0.0,0.0,0.0,0.0,0.0,0.0,0.0,0.0,10.5117,10.5508,10.5508,10.5117,10.4414,10.3281,10.3008,10.2617,10.1992,10.1719,10.1289,10.0703,10.1289,10.1601,10.1601,10.1797,10.1992,10.1914,10.1289,10.1015,10.1094,10.2383,10.25,10.1992,10.2695,10.289,10.289,10.289,10.289,10.289,0.0,0.0,0.0,0.0,0.0,0.0,0.0,0.0,0.0,0.0,0.0,0.0,0.0,0.0,0.0,0.0,6.0768,6.0935,6.0819,6.0781,6.0781,6.0781,6.0781,6.0781,0.0,0.0,0.0,0.0,0.0,0.0,0.0,0.0,0.0,0.0,0.0,0.0,0.0,0.0,0.0,0.0,7.2148,0.0,0.0,7.2539,7.3203,0.0,0.0,0.0,7.8789,7.664,7.625,0.0,0.0,0.0,0.0,0.0,0.0,0.0,0.0,0.0,0.0,0.0,0.0,0.0,8.6992,8.8398,9.0508,0.0,0.0,0.0,0.0,0.0,0.0,0.0,0.0,0.0,0.0,0.0,0.0,0.0,0.0,0.0,0.0,0.0,0.0,0.0,10.4492,10.5,10.5,10.4101,10.3398,10.289,10.25,10.2109,10.1601,10.0898,10.0312,9.9765,10.0312,10.0508,10.0508,10.0898,10.1094,10.1015,10.0508,10.0117,9.9883,10.1601,10.2109,10.1719,10.2187,10.2617,10.289,10.25,10.2617,10.289,0.0,0.0,0.0,0.0,0.0,0.0,0.0,0.0,0.0,0.0,0.0,0.0,0.0,0.0,0.0,0.0,6.0973,6.0935,6.0819,6.0781,6.0781,6.0781,6.0781,6.0781,6.0781,0.0,0.0,0.0,0.0,0.0,0.0,0.0,0.0,0.0,0.0,0.0,0.0,0.0,0.0,7.4219,7.293,7.4414,0.0,0.0,7.8867,0.0,8.0,8.1367,8.289,7.8203,7.6484,0.0,0.0,0.0,0.0,0.0,7.289,0.0,0.0,0.0,0.0,0.0,0.0,0.0,8.7539,8.7851,8.8515,0.0,0.0,0.0,0.0,0.0,0.0,0.0,0.0,0.0,0.0,0.0,0.0,0.0,0.0,0.0,0.0,0.0,10.289,10.289,10.3594,10.4101,10.4101,10.3281,10.289,10.2812,10.1992,10.1484,10.1289,9.9765,9.8945,9.8867,9.9062,9.9101,9.9023,9.9883,10.0195,10.0195,10.0117,9.957,9.8984,10.0586,10.1289,10.1289,10.1601,10.2187,10.2695,10.1992,10.2187,10.289,5.8984,0.0,0.0,0.0,0.0,0.0,0.0,0.0,0.0,0.0,0.0,0.0,0.0,0.0,0.0,0.0,0.0,6.0819,6.0781,6.0781,6.0781,6.0781,6.0781,6.0781,6.0781,6.0781,0.0,0.0,0.0,0.0,0.0,0.0,0.0,0.0,0.0,0.0,0.0,0.0,0.0,7.2656,7.4414,0.0,0.0,7.8242,7.9375,8.0898,8.0,8.1367,8.3359,0.0,8.0117,7.8711,0.0,0.0,0.0,0.0,0.0,0.0,0.0,0.0,0.0,0.0,0.0,0.0,8.2031,8.2539,8.4258,0.0,0.0,0.0,0.0,0.0,0.0,0.0,0.0,0.0,0.0,0.0,0.0,0.0,0.0,0.0,0.0,10.289,10.289,10.289,10.3086,10.3203,10.3203,10.3008,10.2617,10.1914,10.1719,10.0898,9.9531,9.9179,9.8633,9.7969,9.9375,9.9687,9.9023,9.9883,9.9922,9.9219,9.8515,9.8125,9.8047,9.9062,9.9492,9.9726,10.1797,10.2304,10.1914,10.25,10.2812,10.289,5.9805,0.0,0.0,0.0,0.0,0.0,0.0,0.0,0.0,0.0,0.0,0.0,0.0,0.0,0.0,0.0,0.0,0.0,0.0,0.0,6.0896,6.0896,6.0819,6.0781,6.0781,6.0781,6.0781,0.0,0.0,0.0,0.0,0.0,0.0,0.0,0.0,0.0,0.0,0.0,7.1992,7.2226,7.4844,0.0,7.8594,7.9414,8.0547,8.1601,8.1133,8.2109,8.3398,8.2109,8.1953,0.0,0.0,7.8008,7.9219,0.0,7.6523,7.7187,0.0,0.0,0.0,8.082,0.0,0.0,0.0,8.1015,8.1875,8.4922,0.0,0.0,0.0,0.0,0.0,0.0,0.0,0.0,0.0,0.0,0.0,0.0,0.0,0.0,0.0,10.289,10.289,10.289,10.25,10.2304,10.2304,10.1797,10.1406,10.1015,10.0508,9.9883,9.9023,9.8554,9.8125,9.7695,9.8594,9.8789,9.8359,9.8789,9.875,9.832,9.789,9.7695,9.7773,9.8633,9.875,9.8554,10.0781,10.1601,10.1719,10.2109,10.25,10.289,6.0625,0.0,0.0,0.0,0.0,0.0,0.0,0.0,0.0,0.0,0.0,0.0,0.0,0.0,0.0,0.0,0.0,0.0,0.0,0.0,0.0,6.0997,6.1012,6.0973,6.0781,6.0935,6.0973,0.0,0.0,0.0,0.0,0.0,0.0,0.0,0.0,0.0,0.0,0.0,0.0,7.2461,0.0,7.6992,7.8437,8.0312,8.1523,8.2344,8.2695,8.3359,8.3828,8.2109,0.0,8.4101,7.8008,7.9648,0.0,0.0,0.0,0.0,0.0,0.0,0.0,0.0,0.0,8.164,0.0,0.0,0.0,8.3203,0.0,0.0,0.0,0.0,0.0,0.0,0.0,0.0,0.0,0.0,0.0,0.0,0.0,0.0,0.0,10.1914,10.1914,10.2617,10.1406,10.0781,10.1289,10.0703,10.0195,10.0117,9.9375,9.8906,9.875,9.8047,9.7695,9.7695,9.7851,9.7851,9.7695,9.7851,9.7851,9.7695,9.7695,9.7695,9.7734,9.8476,9.832,9.789,9.9804,10.0898,10.1406,10.1719,10.2304,10.289,6.1406,0.0,0.0,0.0,0.0,0.0,0.0,0.0,0.0,0.0,0.0,0.0,0.0,0.0,0.0,0.0,0.0,0.0,6.5615,0.0,0.0,0.0,6.1612,6.1574,6.0819,6.1574,6.1574,6.0781,0.0,0.0,0.0,0.0,0.0,0.0,6.707,0.0,0.0,0.0,7.1015,0.0,7.6015,7.7187,0.0,8.0078,8.1523,8.25,8.4062,8.5156,8.5625,0.0,8.4531,8.5508,0.0,8.2969,0.0,0.0,0.0,0.0,0.0,0.0,0.0,0.0,8.625,0.0,0.0,0.0,8.1484,7.9609,0.0,0.0,0.0,0.0,0.0,0.0,0.0,0.0,0.0,0.0,0.0,0.0,0.0,0.0,0.0,0.0,9.8476,10.1484,9.8867,9.8086,10.0312,10.039,9.9961,9.9179,9.9062,9.8633,9.7851,9.7734,9.7695,9.7695,9.8476,9.8437,9.7734,9.8515,9.8437,9.7695,9.7695,9.7695,9.7695,9.7812,9.7773,9.7969,10.0508,10.1015,10.0586,10.2187,10.2812,10.289,6.164,0.0,0.0,0.0,0.0,0.0,0.0,0.0,0.0,0.0,0.0,0.0,0.0,0.0,0.0,0.0,0.0,0.0,0.0,0.0,0.0,0.0,0.0,0.0,6.2449,6.1704,6.1651,6.2252,6.2637,0.0,0.0,0.0,0.0,0.0,6.7187,0.0,6.7617,0.0,0.0,0.0,0.0,0.0,0.0,8.039,8.2304,8.3281,8.5039,8.5898,8.5859,0.0,8.4687,0.0,0.0,0.0,0.0,0.0,0.0,0.0,0.0,0.0,0.0,0.0,0.0,0.0,0.0,0.0,7.9922,0.0,0.0,0.0,0.0,0.0,0.0,0.0,0.0,0.0,0.0,0.0,0.0,0.0,0.0,0.0,0.0,0.0,0.0,0.0,0.0,9.664,9.8672,9.8789,9.8633,9.8242,9.8242,9.8086,9.7695,9.7695,9.7695,9.7695,9.8086,9.8047,9.7695,9.8086,9.8047,9.7695,9.7695,9.7695,9.7695,9.7695,9.8008,9.8594,10.0195,10.0586,10.0508,10.2304,10.289,10.289,0.0,0.0,0.0,0.0,0.0,0.0,0.0,0.0,0.0,0.0,0.0,0.0,7.1211,7.0625,0.0,0.0,0.0,6.9062,0.0,0.0,6.4843,0.0,0.0,0.0,0.0,0.0,6.2305,6.3122,0.0,0.0,0.0,0.0,0.0,0.0,0.0,6.8594,6.8828,0.0,0.0,7.3437,7.6601,7.793,7.832,8.1211,8.3008,8.4179,8.5937,8.6836,8.6914,8.4765,8.6054,0.0,8.5742,0.0,0.0,0.0,0.0,0.0,8.5234,0.0,0.0,0.0,0.0,0.0,0.0,0.0,0.0,0.0,0.0,0.0,0.0,0.0,0.0,0.0,0.0,0.0,0.0,0.0,0.0,0.0,0.0,0.0,0.0,0.0,0.0,0.0,9.4922,9.4258,9.6875,9.6992,9.7226,9.7695,9.7695,9.7695,9.7695,9.7695,9.7695,9.7695,9.7695,9.7695,9.7695,9.7695,9.7695,9.7695,9.7695,9.7695,9.7695,9.7695,9.8086,9.875,9.9883,10.0312,10.0508,10.2304,10.289,10.289,6.1523,6.1719,0.0,0.0,0.0,0.0,0.0,0.0,0.0,0.0,0.0,0.0,0.0,0.0,0.0,0.0,0.0,7.3125,7.3047,0.0,6.6679,0.0,0.0,0.0,0.0,0.0,0.0,6.2598,0.0,0.0,0.0,0.0,0.0,0.0,0.0,7.0742,7.3164,7.4101,7.6406,7.9414,7.957,8.1133,8.3281,0.0,8.3359,8.5078,8.6836,0.0,0.0,8.8828,8.9687,0.0,0.0,0.0,0.0,0.0,0.0,0.0,0.0,0.0,0.0,0.0,0.0,0.0,0.0,0.0,8.2734,0.0,0.0,0.0,0.0,0.0,0.0,0.0,0.0,0.0,0.0,0.0,0.0,0.0,0.0,0.0,0.0,0.0,0.0,9.5,9.0625,8.9961,9.5,9.5273,9.6015,9.7656,9.7695,9.7695,9.7695,9.7695,9.7695,9.7695,9.7695,9.7695,9.7695,9.7695,9.7695,9.7695,9.7695,9.7695,9.7695,9.7695,9.7734,9.789,9.9648,10.0312,10.0508,10.2304,10.289,10.289,0.0,0.0,0.0,0.0,0.0,0.0,0.0,6.5898,0.0,0.0,0.0,0.0,0.0,0.0,8.0273,0.0,0.0,7.7695,7.5976,7.3125,0.0,0.0,0.0,6.8154,0.0,0.0,0.0,0.0,0.0,0.0,0.0,0.0,0.0,0.0,0.0,7.0586,0.0,0.0,0.0,0.0,0.0,8.2812,8.6094,0.0,0.0,8.5898,8.707,8.8203,0.0,8.8789,8.9492,9.0429,9.0429,9.0234,9.0078,9.0351,9.0625,0.0,0.0,0.0,9.2773,8.8125,0.0,0.0,0.0,0.0,0.0,0.0,0.0,0.0,0.0,0.0,0.0,0.0,0.0,0.0,0.0,0.0,7.8344,0.0,0.0,0.0,0.0,0.0,0.0,9.2422,8.9922,9.0078,0.0,9.5429,9.6328,9.6875,9.7422,9.7695,9.7695,9.7695,9.7695,9.7695,9.7695,9.7695,9.7695,9.7695,9.7695,9.7695,9.7695,9.7695,9.7695,9.7695,9.8047,9.8672,9.9844,10.0703,10.1289,10.25,10.289,10.289,6.3476,0.0,0.0,0.0,0.0,0.0,0.0,0.0,0.0,0.0,7.7695,0.0,8.5312,0.0,8.5117,0.0,8.4375,8.2148,7.8359,7.7109,0.0,7.3398,7.2422,0.0,0.0,0.0,0.0,0.0,0.0,6.7052,0.0,0.0,0.0,0.0,0.0,0.0,0.0,0.0,7.8125,0.0,0.0,8.4336,0.0,0.0,8.6836,0.0,0.0,8.8711,8.9258,8.9883,9.0469,9.1015,9.1601,9.1172,9.0508,9.0742,9.1289,9.164,9.1015,9.2734,0.0,0.0,8.8789,0.0,0.0,0.0,0.0,0.0,0.0,0.0,0.0,0.0,0.0,0.0,0.0,0.0,0.0,7.6429,0.0,0.0,0.0,0.0,0.0,0.0,8.7617,8.9375,8.7851,8.8398,0.0,0.0,9.539,9.6015,9.7109,9.7695,9.7695,9.7695,9.7695,9.7695,9.7695,9.7695,9.7695,9.7695,9.7695,9.7734,9.8047,9.8008,9.7734,9.8047,9.832,9.8633,9.9492,10.0195,10.0898,10.2383,10.289,10.289,0.0,0.0,0.0,0.0,6.3789,0.0,0.0,0.0,7.5312,0.0,8.1211,8.4883,8.7578,8.7851,8.8125,8.8828,8.8828,0.0,8.0508,8.1601,0.0,0.0,7.457,7.375,7.1133,0.0,0.0,0.0,0.0,0.0,0.0,0.0,0.0,0.0,7.1289,0.0,7.6055,7.8672,8.1289,8.3828,8.5469,8.5742,8.5312,8.6914,0.0,8.8867,8.9609,8.9961,9.0312,9.1914,9.2539,9.2617,9.2617,9.2031,9.1211,9.0351,9.1367,9.2383,9.0703,9.2148,9.3476,9.0937,0.0,0.0,0.0,0.0,8.9453,0.0,0.0,0.0,0.0,0.0,0.0,0.0,0.0,0.0,0.0,0.0,0.0,0.0,0.0,0.0,0.0,8.5078,8.4687,8.5976,8.4531,8.5078,0.0,0.0,9.3398,9.5156,9.6875,9.7773,9.7773,9.7773,9.7734,9.7695,9.7695,9.7695,9.7695,9.7695,9.7695,9.7734,9.8594,9.8476,9.7773,9.8594,9.8437,9.7773,9.8672,9.9062,9.9414,10.1914,10.289,10.289,6.3594,6.4023,6.4687,0.0,0.0,6.5234,0.0,0.0,0.0,0.0,8.5117,8.8867,9.2812,9.2656,9.207,9.164,9.039,0.0,0.0,0.0,0.0,8.2031,8.0898,7.9101,7.6562,7.4648,0.0,7.1657,0.0,0.0,7.0,0.0,0.0,0.0,0.0,0.0,7.6094,7.9297,8.2187,8.4609,8.5039,8.6601,0.0,0.0,8.8398,8.9531,8.8515,8.9375,9.0937,9.0742,9.1523,9.2617,9.2617,9.2461,9.2226,9.1992,9.3164,9.4414,9.3984,9.5273,9.6406,9.5156,9.3359,9.1719,0.0,0.0,0.0,0.0,0.0,0.0,0.0,0.0,0.0,0.0,0.0,0.0,0.0,0.0,0.0,7.8562,0.0,0.0,8.2693,8.3143,8.3515,8.4219,8.3867,0.0,0.0,0.0,0.0,9.5156,9.7461,9.8672,9.8672,9.8672,9.8359,9.7695,9.7695,9.7695,9.7695,9.7695,9.7695,9.7695,9.7929,9.789,9.7734,9.7929,9.789,9.7773,9.8672,9.9804,10.1015,10.1719,10.2304,10.289,0.0,0.0,0.0,0.0,0.0,0.0,7.1992,0.0,0.0,8.3476,8.7461,0.0,9.3242,9.4414,9.4844,9.4336,9.2695,0.0,0.0,0.0,0.0,8.5,8.3945,8.2226,7.9648,7.6953,0.0,7.3281,0.0,0.0,7.0117,0.0,0.0,0.0,0.0,7.3906,0.0,8.0351,8.3008,8.4414,8.5156,0.0,0.0,8.7695,8.8554,8.9844,8.8515,8.9179,9.0781,9.1054,9.1797,9.2617,9.2617,9.2617,9.2617,9.2617,9.3554,9.4726,9.5117,9.6172,9.7148,9.7031,9.5937,9.4531,9.3437,9.3554,9.3476,0.0,0.0,0.0,0.0,0.0,0.0,0.0,0.0,0.0,0.0,0.0,0.0,0.0,7.8077,0.0,8.092,7.9909,7.9765,8.125,0.0,0.0,0.0,0.0,0.0,9.3476,9.7422,9.9219,9.8437,9.9179,9.8945,9.7695,9.7695,9.7695,9.7695,9.7695,9.7695,9.7734,9.8086,9.8047,9.7734,9.8125,9.8047,9.7734,9.8242,9.9492,10.1015,10.1015,10.1797,10.289,0.0,0.0,0.0,0.0,0.0,0.0,0.0,7.8828,0.0,8.5234,0.0,9.2148,9.2148,9.4765,9.6484,0.0,0.0,9.2929,9.0664,9.1094,8.9687,8.5742,8.5469,8.4179,8.1562,7.8789,0.0,0.0,0.0,0.0,6.9453,0.0,0.0,0.0,0.0,0.0,0.0,8.125,8.3398,0.0,8.5351,8.6211,8.6601,8.7383,8.8633,8.9922,8.9258,8.9609,9.0547,9.1953,9.25,9.2617,9.2617,9.2617,9.2617,9.2617,9.3203,9.4101,9.4961,9.5859,9.6679,9.75,9.7695,9.7109,9.4883,9.4414,9.4414,9.4414,9.25,0.0,0.0,0.0,0.0,0.0,0.0,0.0,0.0,0.0,0.0,0.0,0.0,0.0,7.9968,7.7033,7.6172,0.0,0.0,0.0,0.0,0.0,0.0,9.1484,9.7109,0.0,9.8203,0.0,9.9531,9.8047,9.7929,9.7812,9.7695,9.7812,9.7812,9.7734,9.8515,9.8398,9.7773,9.8515,9.8398,9.7695,9.7695,9.8789,10.0312,10.0312,10.1406,10.289,0.0,0.0,0.0,0.0,0.0,0.0,0.0,8.6445,8.8515,9.0,9.3906,0.0,9.6562,9.6523,9.6484,9.6484,9.4922,0.0,0.0,0.0,0.0,8.9219,8.8437,8.6836,8.4258,8.0312,7.7695,0.0,7.1211,6.8906,6.9375,6.6953,6.7148,0.0,0.0,0.0,7.8203,8.0469,0.0,8.3672,8.4726,8.6406,8.8281,8.8437,8.9101,9.0078,9.0625,9.1406,9.207,9.1679,9.1992,9.2617,9.2617,9.2617,9.2617,9.2617,9.3203,9.4101,9.4961,9.5859,9.6679,9.75,9.7695,9.7578,9.7148,9.7031,9.7031,9.7031,9.6133,9.4844,9.3125,0.0,0.0,0.0,0.0,0.0,0.0,0.0,0.0,0.0,0.0,0.0,0.0,0.0,0.0,0.0,0.0,0.0,0.0,0.0,0.0,0.0,9.6836,0.0,0.0,0.0,10.0117,9.9844,9.9101,9.8398,9.7734,9.8437,9.8398,9.7695,9.7851,9.7851,9.7695,9.7851,9.7851,9.7695,9.7695,9.8789,10.0312,10.0312,10.1406,10.289,0.0,0.0,0.0,0.0,0.0,0.0,0.0,9.1797,0.0,9.1523,9.3086,9.4375,9.4375,9.6015,9.7109,9.7109,9.5976,9.5078,9.4609,9.375,9.25,9.0742,8.9414,0.0,8.5625,0.0,7.8945,7.7187,7.2461,6.9922,6.9414,6.7265,6.7187,6.8906,0.0,7.3984,0.0,0.0,0.0,8.375,8.5547,8.7226,8.875,8.9219,8.9922,9.0742,9.1133,9.1875,9.2539,9.2109,9.2265,9.2617,9.2617,9.2617,9.2617,9.2617,9.3203,9.4101,9.4961,9.5859,9.6679,9.75,9.7695,9.7695,9.7695,9.7695,9.7695,9.7695,9.7383,9.6211,9.3164,8.8711,0.0,0.0,0.0,0.0,0.0,0.0,0.0,0.0,0.0,0.0,0.0,0.0,0.0,0.0,0.0,0.0,0.0,0.0,0.0,0.0,0.0,0.0,0.0,0.0,0.0,9.9648,9.9648,9.9219,9.8398,9.8828,9.8789,9.8359,9.789,9.7695,9.7695,9.7695,9.7695,9.7695,9.7695,9.8789,10.0312,10.0312,10.1406,10.289,0.0,7.8594,0.0,0.0,8.6133,0.0,0.0,9.5078,9.6484,9.3086,9.2656,9.2656,9.2656,9.5664,9.7695,9.7695,9.6953,9.6133,9.5273,9.4375,9.3125,9.1367,8.9804,8.8086,8.625,8.2969,7.9844,0.0,7.3633,7.1055,6.918,6.7812,6.7539,0.0,0.0,0.0,0.0,0.0,8.1172,8.4375,8.6797,8.8359,8.9336,9.0,9.082,9.1601,9.1797,9.2304,9.289,9.3086,9.289,9.2617,9.2617,9.2734,9.289,9.289,9.3476,9.4375,9.5234,9.5976,9.6679,9.75,9.7695,9.7734,9.7929,9.7812,9.7734,9.7929,9.7969,9.6914,9.3515,9.0976,0.0,0.0,0.0,0.0,0.0,0.0,0.0,0.0,0.0,0.0,0.0,0.0,0.0,0.0,0.0,0.0,0.0,0.0,0.0,0.0,0.0,9.7773,9.8984,0.0,10.1484,0.0,10.0312,10.0,9.9023,9.9179,9.9062,9.8672,9.8008,9.7812,9.7969,9.7969,9.8086,9.8242,9.8242,9.9219,10.0586,10.0586,10.1601,10.289,0.0,0.0,0.0,0.0,0.0,0.0,0.0,9.5469,9.7578,9.7148,9.7109,9.7109,9.7109,9.7461,9.7695,9.7695,9.6953,9.6133,9.5273,9.4375,9.3125,9.1367,9.039,8.8711,8.625,8.3554,8.0156,0.0,0.0,7.0742,6.832,6.8164,6.8125,0.0,0.0,0.0,0.0,7.9961,8.3515,8.6094,8.789,8.957,9.1054,9.1133,9.1719,9.2578,9.3359,9.3711,9.3906,9.4687,9.3906,9.2617,9.2617,9.3125,9.3789,9.3789,9.4414,9.5273,9.6133,9.6445,9.6679,9.75,9.7695,9.789,9.8711,9.8281,9.7929,9.8711,9.8867,9.7812,9.4414,9.4804,9.4101,0.0,0.0,0.0,0.0,0.0,0.0,0.0,0.0,0.0,0.0,7.6352,0.0,0.0,0.0,0.0,0.0,0.0,0.0,8.7617,0.0,9.6562,9.8984,10.0,0.0,10.25,10.1797,10.0586,9.9023,9.9804,9.9336,9.7812,9.7734,9.8164,9.8867,9.8867,9.9336,10.0117,10.0117,10.0586,10.1484,10.1484,10.2109,10.289,0.0,0.0,0.0,0.0,0.0,0.0,0.0,9.7148,9.789,9.8398,9.8008,9.7695,9.7695,9.7695,9.7695,9.7695,9.7422,9.6875,9.6015,9.5156,9.414,9.289,9.1015,8.9297,8.7734,8.5195,8.1992,0.0,0.0,0.0,0.0,6.9687,0.0,0.0,0.0,7.457,7.8594,8.0625,8.3633,8.7226,8.9922,9.1445,9.2187,9.3242,9.3867,9.4219,9.457,9.4687,9.4726,9.5078,9.4726,9.414,9.414,9.4414,9.4687,9.4687,9.5312,9.6054,9.6406,9.6836,9.7304,9.7617,9.7695,9.7929,9.8789,9.832,9.7969,9.8828,9.8594,9.7812,9.6445,9.5508,9.4765,0.0,0.0,0.0,0.0,0.0,0.0,0.0,0.0,0.0,0.0,0.0,7.5547,0.0,0.0,0.0,0.0,0.0,0.0,8.7344,0.0,9.457,9.8164,10.0117,10.1406,10.2109,10.2304,10.1719,10.0586,10.039,9.9336,9.7695,9.7695,9.8203,9.8984,9.8984,9.9492,10.0312,10.0312,10.0781,10.1601,10.1601,10.2187,10.289,9.0195,0.0,9.0586,0.0,9.3984,9.4414,9.8047,9.8086,9.7929,9.8554,9.8086,9.7695,9.7695,9.7695,9.7695,9.7695,9.7695,9.7344,9.6562,9.5664,9.4804,9.3945,9.164,0.0,8.8711,8.6719,8.3828,8.0078,7.8906,0.0,0.0,0.0,0.0,0.0,7.3555,7.6562,8.1445,8.2734,8.5469,8.9219,9.1914,9.3125,9.3515,9.4726,9.5195,9.5234,9.5508,9.5586,9.5625,9.5859,9.5937,9.5859,9.5351,9.539,9.5586,9.5586,9.6172,9.6836,9.6836,9.7265,9.7695,9.7695,9.789,9.832,9.9179,9.8711,9.8242,9.8867,9.8906,9.8672,9.8164,9.6836,9.5976,0.0,0.0,0.0,0.0,0.0,0.0,0.0,0.0,7.9197,7.6171,7.5078,0.0,0.0,0.0,0.0,0.0,0.0,0.0,0.0,0.0,0.0,0.0,10.0312,10.1601,10.1601,10.25,10.2304,10.1211,10.0586,9.9492,9.8086,9.8359,9.8945,9.9765,9.9765,10.0312,10.1094,10.1094,10.1406,10.1992,10.1992,10.2383,10.289,9.332,9.3828,9.4648,9.7226,9.7656,9.7656,9.7695,9.7695,9.7695,9.7695,9.7695,9.7695,9.7695,9.7695,9.7695,9.7695,9.7695,9.7344,9.6562,9.5664,9.4804,0.0,0.0,9.0469,8.875,8.789,8.5351,8.0976,0.0,0.0,7.457,0.0,7.5,7.6015,7.9375,8.1406,8.2578,8.6797,9.0117,9.2617,9.3515,9.4414,9.5156,9.5195,9.5195,9.5312,9.6172,9.6484,9.6601,9.7383,9.7656,9.7383,9.5703,9.5781,9.6484,9.6484,9.7031,9.7695,9.7695,9.7695,9.7695,9.7695,9.8359,9.9219,10.0117,9.9609,9.8984,9.8984,10.039,10.1015,9.9297,9.9648,9.8828,9.4648,0.0,0.0,0.0,0.0,0.0,0.0,8.4707,8.0384,7.6282,0.0,0.0,0.0,0.0,0.0,0.0,0.0,0.0,8.6094,9.1172,0.0,9.7656,10.0312,10.1601,10.1601,10.25,10.1992,10.0312,10.0312,9.9804,9.9023,9.9883,10.0781,10.1601,10.1601,10.2109,10.289,10.289,10.289,10.289,10.289,10.289,10.289,9.5625,9.6094,9.6758,9.7578,9.7695,9.789,9.8515,9.8594,9.8594,9.8594,9.8594,9.8359,9.7773,9.7695,9.7695,0.0,9.7695,9.7578,0.0,9.6523,9.5976,9.5664,9.3437,9.164,9.0508,8.8515,8.625,8.3672,0.0,0.0,0.0,7.8437,7.9101,7.9492,8.1758,8.4219,8.6797,8.875,9.1094,9.3554,9.4453,9.5312,9.6133,9.6719,9.6914,9.6953,9.7226,9.7304,9.7344,9.7617,9.7695,9.7617,9.707,9.7109,9.7304,9.7304,9.75,9.7695,9.7695,9.7695,9.7695,9.7695,9.8359,9.9219,10.0117,10.0117,9.9726,9.9101,9.8984,9.8945,9.8984,9.875,9.8086,9.6719,0.0,0.0,0.0,0.0,0.0,0.0,0.0,7.7862,0.0,7.4593,0.0,0.0,0.0,0.0,0.0,0.0,0.0,0.0,9.2109,0.0,9.8554,10.0586,10.1914,10.25,10.2812,10.2304,10.1211,10.1211,10.0703,9.9883,10.0195,10.0508,10.0701,10.1215,10.1491,10.1788,10.2413,10.2617,10.2617,10.2812,10.289,10.289,9.7031,9.7344,9.7695,9.7695,9.7695,9.789,9.8437,9.8515,9.8515,9.8515,9.8789,9.8789,9.8242,9.8203,0.0,9.7734,9.7695,0.0,9.7695,9.6953,9.6484,9.6484,9.4297,9.2695,9.1797,0.0,0.0,8.6328,8.4609,8.2969,8.1406,8.2461,8.3281,8.3984,8.5703,8.7851,9.0234,9.1445,9.3086,9.4922,9.5469,9.6211,9.6992,9.75,9.7695,9.7695,9.7695,9.7695,9.7695,9.7695,9.7695,9.7695,9.7695,9.7695,9.7695,9.7695,9.7695,9.7773,9.8086,9.8203,9.8281,9.8594,9.9336,10.0,10.0312,10.0781,10.0898,9.9726,9.9336,9.9219,9.9453,9.8789,9.8086,9.7734,0.0,9.6172,0.0,0.0,0.0,0.0,0.0,0.0,0.0,7.7526,0.0,0.0,0.0,0.0,0.0,0.0,0.0,8.8398,9.3437,0.0,9.9961,10.1406,10.2187,10.2383,10.2383,10.2109,10.1601,10.1807,10.1306,10.019,10.0694,10.0801,10.0701,10.1405,10.168,10.1903,10.2321,10.2514,10.2504,10.2683,10.2695,10.2812,9.7695,9.7695,0.0,0.0,9.7734,0.0,9.7695,9.7812,9.7851,9.7812,9.8554,9.9101,9.9101,9.9101,9.875,9.7851,0.0,0.0,0.0,9.6992,9.6562,9.6562,9.4961,0.0,9.2695,9.1836,9.0508,8.8711,8.7187,8.6445,8.6367,8.6445,8.7344,8.8945,9.0625,9.1875,9.2812,9.4492,9.5703,9.6484,9.6484,9.6992,9.7695,9.7695,9.7695,9.7695,9.7695,9.7695,9.7695,9.7695,9.7695,9.7695,9.7695,9.7734,9.7773,9.7773,9.7773,9.7969,9.8867,9.9101,9.9297,10.0117,10.1015,10.1406,10.0586,10.1601,10.2304,10.0703,10.1015,10.1289,10.0508,9.9648,9.8711,9.7929,9.6953,9.539,9.2773,0.0,0.0,0.0,0.0,0.0,0.0,8.2792,8.3212,0.0,0.0,0.0,0.0,0.0,8.7773,9.0273,9.5234,9.9101,10.1719,10.25,10.25,10.1719,10.1715,10.171,10.1707,10.2189,10.1596,10.0092,10.1505,10.171,10.1202,10.21,10.2591,10.2713,10.2482,10.2521,10.2514,10.2515,10.2498,10.25,0.0,0.0,9.7695,9.7695,9.8242,9.8476,9.7812,9.8828,9.9453,9.8789,9.9453,10.0,10.0,10.0,9.9648,9.8789,9.8086,9.7695,9.7695,9.7539,9.7422,9.7422,9.6445,9.5156,9.3633,9.2734,9.1094,8.8711,8.8984,8.875,8.8125,8.8789,8.9687,9.0742,9.1797,9.2773,9.3672,9.4726,9.5703,9.6484,9.6484,9.6992,9.7695,9.7695,9.7695,9.7695,9.7695,9.7695,9.7695,9.7695,9.7695,9.7695,9.7695,9.8164,9.8672,9.8672,9.8672,9.8867,9.9765,10.0,10.0,10.0195,10.1015,10.1484,10.1289,10.1601,10.1797,10.1406,10.0898,10.0703,10.1211,10.0,9.8945,9.8711,9.6328,9.3594,9.0976,8.8984,0.0,0.0,8.4754,8.5396,8.333,8.4209,8.4935,0.0,0.0,0.0,0.0,0.0,9.1953,9.3906,9.7695,10.0586,10.2617,10.2812,10.2812,10.2617,10.2401,10.229,10.229,10.2203,10.201,10.1597,10.1894,10.1594,10.0906,10.1593,10.1688,10.1289,10.1703,10.1992,10.2213,10.2174,10.2318,10.25,9.7695,9.8008,9.8281,9.8281,9.9023,9.9414,9.8945,9.9687,10.0117,9.9648,10.039,10.0898,10.0898,10.0898,10.0508,9.9687,9.8789,9.8125,9.7734,9.7695,9.7695,9.7695,9.6914,9.6054,9.5117,9.4219,9.2695,9.0469,9.0976,9.0937,9.0508,9.1367,9.2265,9.3125,9.3984,9.4648,9.5156,9.5976,9.6601,9.7031,9.7031,9.7304,9.7695,9.7695,9.7695,9.7695,9.7695,9.7695,9.7695,9.7695,9.7695,9.7773,9.8164,9.8633,9.914,9.9961,9.9922,9.9765,10.0703,10.1211,10.1601,10.1992,10.2109,10.2109,10.1719,10.2187,10.2617,10.1797,10.1484,10.1484,10.1601,10.0195,9.8633,9.7461,9.5039,9.2148,8.875,8.7812,0.0,8.4219,8.6756,8.8273,8.7055,8.8367,8.8628,8.7127,0.0,0.0,8.9531,9.3008,9.5123,9.5608,9.8917,10.1411,10.2695,10.2812,10.289,10.289,10.2604,10.252,10.2482,10.209,10.171,10.1289,10.1597,10.1289,10.0712,10.1404,10.1597,10.1404,10.1611,10.1813,10.1904,10.1904,10.2097,10.2312,9.789,9.8594,9.9219,9.9219,9.9922,10.0508,10.0312,10.039,10.0508,10.0508,10.1094,10.1719,10.1797,10.1797,10.1406,10.0586,9.9687,9.8789,9.7773,9.7695,9.7695,9.7695,9.7031,9.6601,9.6484,9.5508,9.4336,9.3008,9.2851,9.2851,9.3008,9.375,9.457,9.5429,9.6172,9.6562,9.6719,9.7422,9.7695,9.7695,9.7851,9.789,9.789,9.8047,9.8086,9.8086,9.8086,9.8008,9.7929,9.8047,9.8008,9.8047,9.8906,9.9297,9.9687,10.1211,10.1289,10.1094,10.1797,10.25,10.3281,10.3984,10.3515,10.2695,10.2109,10.3086,10.3789,10.2304,10.2617,10.2812,10.1992,10.039,9.8398,9.5976,9.3672,9.0859,8.6953,0.0,8.7265,8.664,8.9531,9.1505,9.1368,9.2903,9.2556,8.9239,9.2011,9.3271,0.0,9.5602,9.7364,9.6663,9.9634,10.1569,10.25,10.2695,10.289,10.289,10.2589,10.2403,10.2405,10.1904,10.1212,10.0596,10.1096,10.0981,10.0673,10.1404,10.1789,10.1981,10.1789,10.1789,10.1904,10.1712,10.1904,10.2318,9.8789,9.9492,10.0117,10.0117,10.0781,10.1094,10.039,10.0898,10.1406,10.1406,10.1484,10.1914,10.2617,10.2695,10.2304,10.1484,10.0586,9.9414,9.7812,9.7695,9.7695,9.7695,9.7578,9.7187,9.6523,9.4922,9.4336,9.4804,9.4062,9.4062,9.4804,9.4922,9.5469,9.6289,9.6445,9.6875,9.7539,9.7656,9.7695,9.7773,9.8515,9.8789,9.8867,9.9609,9.9883,9.9883,9.9883,9.9414,9.8906,9.9648,9.9414,9.8945,9.9804,10.0586,10.1211,10.1484,10.25,10.3594,10.3789,10.3906,10.3984,10.4219,10.3515,10.3086,10.3711,10.3984,10.4101,10.3906,10.3906,10.3711,10.289,10.1289,9.9492,9.7617,9.3437,8.9687,8.7578,0.0,8.7695,8.8242,9.1797,9.4376,9.4873,9.3732,9.3561,9.4864,9.2623,9.2623,9.5875,9.7134,9.8089,9.8947,10.0414,10.1569,10.25,10.25,10.2695,10.289,10.2421,10.2184,10.2097,10.1597,10.1289,10.1212,10.1289,10.1289,10.1212,10.1289,10.1481,10.1789,10.1712,10.2097,10.2712,10.1981,10.2213,10.2788,9.8984,10.0117,10.1015,10.1015,10.1719,10.2187,10.1797,10.1992,10.2304,10.2304,10.2304,10.25,10.289,10.289,10.25,10.1719,10.1211,10.0508,9.9179,9.8203,9.7695,9.7695,9.7695,9.7539,9.7148,9.5937,9.5508,9.5898,9.5039,9.5039,9.5898,9.5898,9.6367,9.7148,9.7148,9.7344,9.7695,9.7695,9.7969,9.8437,9.8828,9.9297,9.9726,10.0117,10.0312,10.0312,10.0312,10.0,9.9765,10.0195,10.0,9.9844,10.0703,10.1289,10.1719,10.2187,10.3203,10.4414,10.5312,10.4883,10.4297,10.4804,10.4219,10.3711,10.4101,10.4883,10.539,10.5,10.4883,10.4609,10.3789,10.1797,9.9609,9.7422,9.3086,0.0,0.0,8.8164,8.8984,9.1211,9.4375,9.673,9.771,9.6985,9.6404,9.6326,9.4783,9.4781,9.6875,9.7805,9.8841,10.0184,10.1014,10.1722,10.2321,10.2413,10.2617,10.289,10.24,10.21,10.2097,10.1481,10.1289,10.1289,10.1289,10.1289,10.1289,10.1289,10.1404,10.1481,10.1481,10.1789,10.2212,10.1712,10.1904,10.2482,9.9609,10.0781,10.1914,10.1914,10.25,10.289,10.289,10.3086,10.3203,10.3203,10.3398,10.3398,10.3203,10.3203,10.289,10.1992,10.1719,10.1289,10.0586,9.8984,9.8008,9.8008,9.7812,9.7695,9.7695,9.6914,9.6601,9.6797,9.5937,9.5937,9.6797,9.6797,9.7109,9.7695,9.7695,9.7695,9.7695,9.7929,9.8398,9.9023,9.9453,10.0,10.0586,10.0781,10.0898,10.0898,10.0898,10.0781,10.0586,10.0781,10.0781,10.0781,10.1601,10.1992,10.2304,10.3008,10.3984,10.5117,10.6406,10.5586,10.4687,10.5586,10.5,10.4297,10.4687,10.5781,10.6484,10.5898,10.5781,10.5508,10.4414,10.2187,9.9687,9.6953,0.0,0.0,0.0,8.9687,9.1211,9.3867,9.664,9.8657,9.9566,9.9619,9.8865,9.7134,9.7134,9.7292,9.7493,9.8652,9.9833,10.1075,10.1418,10.1712,10.1981,10.2312,10.2491,10.2812,10.2392,10.221,10.2097,10.1597,10.1404,10.1289,10.1289,10.1289,10.1289,10.1289,10.1289,10.1289,10.1404,10.1597,10.1904,10.1789,10.1981,10.2289,10.1406,10.2187,10.2812,10.2812,10.289,10.289,10.289,10.3594,10.4101,10.4101,10.4804,10.5,10.4219,10.4101,10.3789,10.289,10.2109,10.1601,10.1484,9.9883,9.8906,9.8906,9.8125,9.7695,9.7695,9.6914,9.6875,9.7617,9.6797,9.6836,9.7617,9.7617,9.7656,9.7695,9.7695,9.7695,9.7734,9.8554,9.8945,9.914,10.0781,10.1406,10.1601,10.2383,10.2695,10.2695,10.2695,10.2187,10.1601,10.2383,10.2187,10.1719,10.25,10.3398,10.3984,10.4101,10.5195,10.6484,10.6719,10.6093,10.5586,10.6406,10.539,10.4609,10.6211,10.6601,10.6719,10.6601,10.6601,10.6093,10.4492,10.2695,10.039,9.7031,0.0,0.0,9.0234,9.2695,9.4804,9.5078,9.8086,10.0,9.988,9.9692,9.9442,9.9058,9.9019,9.9018,9.9052,10.0287,10.1326,10.1981,10.1597,10.1481,10.1712,10.2021,10.232,10.25,10.2499,10.2319,10.2097,10.1789,10.1481,10.1289,10.1289,10.1289,10.1289,10.1289,10.1289,10.1289,10.1597,10.1981,10.2597,10.3098,10.3021,10.2789,10.1601,10.2304,10.289,10.289,10.3281,10.3711,10.3711,10.4414,10.5,10.5,10.5312,10.539,10.5,10.4492,10.4101,10.3711,10.289,10.2383,10.2383,10.1289,9.9883,9.8242,9.789,9.7695,9.7695,9.7383,9.7383,9.7695,9.7383,9.7383,9.7695,9.7695,9.7695,9.7734,9.8242,9.8515,9.8554,9.9453,10.0117,10.0703,10.1289,10.1914,10.25,10.3398,10.3711,10.3789,10.4297,10.4297,10.4101,10.4414,10.3906,10.3281,10.3594,10.3906,10.4414,10.539,10.6211,10.6797,10.7383,10.6914,10.6406,10.7304,10.6992,10.6719,10.7383,10.789,10.8203,10.7617,10.7109,10.6484,10.5898,10.3906,10.1797,9.9961,0.0,9.5351,9.4844,9.5508,9.6601,9.8164,10.0,10.1211,10.1484,10.1283,10.1022,10.0789,10.0096,9.9981,10.0673,10.1212,10.1597,10.1789,10.1481,10.1481,10.1904,10.2002,10.2282,10.2695,10.2617,10.2412,10.2085,10.1817,10.1597,10.1289,10.1289,10.1289,10.1289,10.1289,10.1289,10.1289,10.1404,10.1789,10.2366,10.2905,10.2808,10.2572,10.2383,10.3086,10.3711,10.3711,10.4219,10.4609,10.4609,10.5586,10.6211,10.5898,10.6406,10.6484,10.5898,10.5312,10.4804,10.4219,10.3711,10.3203,10.289,10.2109,10.0586,9.8203,9.8359,9.8398,9.8125,9.8125,9.8125,9.8125,9.7812,9.7695,9.7695,9.7695,9.7695,9.7734,9.8594,9.8984,9.9062,10.0195,10.1094,10.1601,10.1914,10.2383,10.3008,10.3594,10.3984,10.4297,10.4883,10.5312,10.5508,10.5508,10.5117,10.4687,10.4883,10.539,10.6093,10.75,10.789,10.8008,10.8281,10.8203,10.8008,10.8281,10.8398,10.8398,10.8398,10.8906,10.9101,10.8203,10.75,10.6914,10.6406,10.4687,10.2812,10.1406,9.9219,9.7773,9.8086,9.8086,9.875,10.0508,10.1484,10.2185,10.2582,10.2295,10.1982,10.1789,10.0981,10.0789,10.1673,10.1597,10.1597,10.1712,10.1404,10.1481,10.1981,10.2315,10.2591,10.2815,10.2893,10.2592,10.209,10.1799,10.1597,10.1289,10.1289,10.1289,10.1289,10.1289,10.152,10.1712,10.1404,10.1904,10.2713,10.3208,10.312,10.2926,10.4219,10.4883,10.5508,10.5508,10.5508,10.5508,10.5508,10.6914,10.7695,10.6797,10.8203,10.8711,10.6914,10.6719,10.6015,10.4414,10.4219,10.3789,10.3008,10.2109,10.0781,9.9101,9.9844,9.9883,9.9023,9.8984,9.8984,9.8984,9.8125,9.7695,9.7695,9.7695,9.7695,9.7734,9.8633,9.9023,9.914,10.0898,10.1601,10.1719,10.2617,10.289,10.289,10.289,10.3515,10.4219,10.4219,10.4804,10.5508,10.5508,10.5508,10.5703,10.6484,10.789,10.9492,11.0312,11.0586,11.039,10.9492,10.9883,11.039,10.9492,10.9297,10.9297,10.9297,10.9297,10.9101,10.8203,10.8008,10.75,10.5781,10.4804,10.3398,10.0781,10.0312,10.0,9.914,10.0508,10.1601,10.1601,10.2383,10.2905,10.2906,10.2382,10.2099,10.2097,10.1597,10.1404,10.1712,10.1404,10.1404,10.1712,10.1404,10.1404,10.1712,10.2785,10.3096,10.2482,10.3406,10.3172,10.209,10.1799,10.1597,10.1289,10.1289,10.1289,10.1289,10.1289,10.1789,10.252,10.1597,10.2404,10.3907,10.4218,10.41,10.3982,10.4219,10.4883,10.5703,10.6211,10.6797,10.75,10.8086,10.9101,10.9687,10.9492,10.9883,11.0,10.9492,10.8281,10.7383,10.6914,10.5781,10.4687,10.3906,10.3594,10.2617,10.0898,10.0508,10.0195,9.9922,9.9297,9.8984,9.8984,9.8125,9.7695,9.7695,9.7695,9.8047,9.8633,9.9531,10.0312,10.0898,10.1992,10.25,10.25,10.2812,10.289,10.3008,10.4297,10.4883,10.5312,10.6406,10.6992,10.7304,10.8008,10.7812,10.7383,10.8281,10.8906,10.9492,11.0312,11.0195,10.9609,10.9414,10.9492,10.9804,11.0117,11.0703,11.1015,11.039,11.0195,10.9804,10.8281,10.8008,10.7812,10.7304,10.6093,10.4883,10.4101,10.289,10.1992,10.1797,10.2187,10.25,10.25,10.2695,10.2888,10.29,10.2606,10.2315,10.2097,10.1597,10.1289,10.1404,10.1289,10.1289,10.1404,10.1289,10.1712,10.2597,10.3096,10.3114,10.2515,10.4204,10.3997,10.2108,10.2674,10.2405,10.1597,10.1404,10.1404,10.1597,10.1404,10.152,10.1712,10.1404,10.2097,10.3329,10.3403,10.329,10.3405,10.5117,10.6211,10.7187,10.7617,10.8398,10.9218,10.9687,11.0586,11.1015,11.0586,11.0898,11.1015,11.0586,10.9687,10.8789,10.8086,10.6484,10.5312,10.4687,10.4414,10.3906,10.3203,10.2304,10.1484,10.0781,10.0312,10.0,10.0,9.8828,9.8398,9.8711,9.8398,9.8672,9.9531,10.039,10.1094,10.1719,10.25,10.289,10.289,10.3281,10.3398,10.3594,10.5,10.5898,10.6601,10.7617,10.8398,10.9101,10.9218,10.9218,10.9218,11.0117,11.0586,11.0898,11.1484,11.1015,11.0312,10.9883,10.9804,10.9883,11.0,11.1015,11.1718,11.0781,11.0898,11.0586,10.8906,10.8789,10.8789,10.8086,10.6914,10.5781,10.5117,10.3789,10.289,10.289,10.289,10.289,10.289,10.289,10.289,10.289,10.2713,10.2301,10.1982,10.1481,10.1289,10.1289,10.1289,10.1289,10.1289,10.1289,10.1597,10.2289,10.3011,10.3295,10.3008,10.4883,10.4723,10.2592,10.3018,10.3021,10.2481,10.1789,10.1904,10.2481,10.1789,10.202,10.2712,10.1712,10.2289,10.3789,10.3097,10.3097,10.3405,10.6719,10.8203,10.9414,10.9492,11.0195,11.0703,11.0781,11.1484,11.1718,11.0898,11.1484,11.1718,11.0898,11.0781,11.0117,10.8515,10.6797,10.5781,10.5703,10.4883,10.4687,10.5508,10.4687,10.3515,10.1914,10.1797,10.1719,10.1601,9.9922,9.9531,10.0312,9.9492,9.957,10.0508,10.1211,10.1601,10.1797,10.2617,10.289,10.3086,10.3906,10.4219,10.4414,10.539,10.6719,10.8008,10.8203,10.9297,11.0508,10.9804,11.0117,11.1015,11.1797,11.2617,11.3281,11.3203,11.2617,11.1718,11.0781,11.0508,11.0195,10.9492,11.0508,11.1484,11.0703,11.1211,11.1406,10.9609,10.9883,11.0,10.8281,10.7304,10.6211,10.4804,10.3711,10.3008,10.3086,10.3008,10.289,10.289,10.289,10.289,10.289,10.2593,10.2293,10.1789,10.1481,10.1289,10.1289,10.1289,10.1289,10.1289,10.1289,10.1289,10.1404,10.2789,10.3585,10.3787,10.5585,10.5419,10.3509,10.3267,10.3406,10.3789,10.2404,10.2597,10.3789,10.2481,10.3097,10.4597,10.2289,10.2789,10.4713,10.3212,10.3097,10.3712,10.7695,10.9101,11.0508,11.1211,11.1484,11.1797,11.25,11.2812,11.289,11.2695,11.2812,11.2812,11.2695,11.1992,11.1484,11.1093,10.9492,10.8203,10.75,10.6601,10.6015,10.5508,10.4687,10.3984,10.3594,10.3008,10.2304,10.1601,10.0508,10.0117,10.0312,10.0117,10.0508,10.1289,10.1484,10.1992,10.2617,10.2812,10.3281,10.3906,10.4101,10.4609,10.539,10.6914,10.7695,10.8203,10.9492,11.0312,11.0703,11.1211,11.1914,11.2695,11.289,11.3515,11.4101,11.3398,11.2617,11.1718,11.0781,10.9609,10.8711,10.9218,10.9609,10.9804,10.9609,11.0781,11.1211,10.8789,10.8984,10.9297,10.8203,10.7304,10.6797,10.7109,10.5312,10.4219,10.4804,10.3789,10.289,10.289,10.289,10.289,10.289,10.2515,10.2099,10.1982,10.1597,10.1289,10.1289,10.1289,10.1289,10.1289,10.1289,10.1597,10.2327,10.3482,10.3893,10.3513,10.56,10.5888,10.4404,10.4387,10.4329,10.4098,10.3098,10.3289,10.4097,10.3828,10.352,10.3097,10.252,10.2712,10.3097,10.2712,10.2712,10.2981,10.9101,11.0312,11.1484,11.2383,11.25,11.2812,11.3711,11.3515,11.3203,11.3203,11.3203,11.3203,11.3203,11.2812,11.2187,11.1406,11.039,10.9609,10.8711,10.7812,10.7304,10.7304,10.6093,10.5195,10.4804,10.4414,10.3515,10.2187,10.1289,10.1094,10.1484,10.1094,10.1406,10.2187,10.2187,10.2695,10.3515,10.3515,10.3984,10.4883,10.5195,10.5703,10.6289,10.8008,10.8906,10.9414,11.0703,11.1211,11.1406,11.2187,11.25,11.2695,11.3086,11.3789,11.4297,11.3515,11.289,11.2187,11.0898,10.9609,10.8711,10.9218,10.9609,10.9883,10.9883,11.0898,11.1484,11.0117,11.0586,11.0781,10.9492,10.8515,10.7812,10.7383,10.5586,10.4414,10.4804,10.3711,10.289,10.289,10.289,10.289,10.289,10.2398,10.2099,10.2097,10.1597,10.1289,10.1289,10.1289,10.1289,10.1289,10.1289,10.152,10.202,10.2674,10.3285,10.3899,10.5913,10.6403,10.5272,10.5099,10.5214,10.5407,10.4137,10.4212,10.5213,10.452,10.4097,10.3712,10.2904,10.2904,10.3097,10.2289,10.2212,10.2712,11.0312,11.1406,11.2383,11.3281,11.3281,11.3515,11.4414,11.3789,11.3203,11.3203,11.3203,11.3203,11.3203,11.3203,11.2617,11.1211,11.0898,11.0508,10.9609,10.8789,10.8593,10.9101,10.7695,10.6484,10.5703,10.539,10.4492,10.289,10.2187,10.2187,10.289,10.2187,10.2187,10.289,10.289,10.3398,10.4219,10.4219,10.4804,10.5781,10.6601,10.6992,10.7304,10.9101,11.0195,11.0898,11.1797,11.2109,11.2187,11.3008,11.2695,11.2187,11.3008,11.3906,11.4492,11.3515,11.3203,11.2812,11.1093,11.0,10.9297,10.9101,10.9804,11.0585,11.0509,11.1198,11.1914,11.1718,11.2304,11.2304,11.0703,10.9804,10.8711,10.6992,10.539,10.4414,10.4219,10.3398,10.289,10.289,10.289,10.289,10.289,10.2398,10.2099,10.2097,10.1597,10.1289,10.1289,10.1289,10.1289,10.1289,10.1289,10.1289,10.1289,10.1789,10.2789,10.4289,10.6175,10.6688,10.602,10.5674,10.6023,10.66,10.5097,10.5097,10.6097,10.4905,10.452,10.4482,10.3097,10.2981,10.3289,10.1789,10.2097,10.3212,11.0586,11.1914,11.3281,11.4218,11.3711,11.3515,11.4414,11.3789,11.3203,11.3203,11.3203,11.3203,11.3203,11.3203,11.3086,11.289,11.2187,11.1406,11.0508,11.0312,10.9609,10.8203,10.789,10.7383,10.6601,10.5117,10.3906,10.289,10.2812,10.2812,10.289,10.2812,10.2812,10.289,10.289,10.3398,10.4219,10.4219,10.5117,10.6601,10.75,10.8281,10.9101,11.0898,11.1601,11.1797,11.2695,11.3008,11.3008,11.3203,11.3086,11.3008,11.3203,11.4297,11.5195,11.3711,11.3203,11.2812,11.1093,11.0,10.9101,10.8398,10.9414,11.0509,11.0298,11.11,11.1718,11.0898,11.0898,11.0586,10.9687,10.9414,10.8711,10.6992,10.5898,10.5117,10.4297,10.3398,10.289,10.289,10.289,10.289,10.289,10.2398,10.2099,10.2097,10.1597,10.1289,10.1289,10.1289,10.1289,10.1289,10.1289,10.1289,10.1289,10.2789,10.3712,10.398,10.5678,10.6603,10.6713,10.6099,10.6099,10.6405,10.5907,10.5522,10.529,10.529,10.4405,10.2904,10.2712,10.2212,10.1597,10.1404,10.3212,10.5713,11.1992,11.2695,11.3515,11.4297,11.3789,11.3515,11.4414,11.3789,11.3203,11.3203,11.3203,11.3203,11.3203,11.3203,11.3008,11.25,11.2617,11.2304,11.1406,11.1289,11.1015,11.0195,10.9218,10.8281,10.7383,10.5781,10.4492,10.3594,10.3086,10.289,10.289,10.289,10.289,10.289,10.3398,10.4101,10.5,10.539,10.6601,10.8203,10.8593,10.9218,11.0195,11.1406,11.1914,11.1992,11.289,11.3203,11.3203,11.3203,11.3203,11.3203,11.3203,11.4414,11.539,11.3711,11.3515,11.3398,11.1211,11.0312,10.9883,10.9492,11.039,11.1393,11.1612,11.1588,11.1725,11.1787,11.1406,11.0898,11.0195,10.9609,10.8711,10.6992,10.6015,10.5195,10.4297,10.3398,10.289,10.289,10.289,10.289,10.289,10.2398,10.2099,10.2097,10.1597,10.1289,10.1289,10.1289,10.1289,10.1289,10.1789,10.202,10.202,10.3289,10.4212,10.4789,10.5405,10.6097,10.679,10.6367,10.629,10.6597,10.629,10.579,10.5097,10.5174,10.4212,10.2597,10.2597,10.2404,10.2097,10.3097,10.4405,10.5482]},{"header":{"parameterUnit":"m.s-1","parameterCategory":1,"la1":30.6,"la2":28.766,"lo1":-90.7593,"lo2":-88.6598,"dy":0.0162,"dx":0.0183,"nx":116,"ny":114,"refTime":"2023-10-15T18:00:00:Z","depth":0,"parameterNumber":3,"parameterNumberName":"V-component_of_WINDS"},"data":[0.0,0.0,0.0,0.0,0.0,0.0,0.0,0.0,0.0,0.0,0.0,0.0,0.0,0.0,0.0,0.0,0.0,0.0,0.0,0.0,0.0,0.0,0.0,0.0,0.0,0.0,0.0,0.0,0.0,0.0,0.0,0.0,0.0,0.0,0.0,0.0,0.0,0.0,0.0,0.0,0.0,0.0,0.0,0.0,0.0,0.0,0.0,0.0,0.0,0.0,0.0,0.0,0.0,0.0,0.0,0.0,0.0,0.0,0.0,0.0,0.0,0.0,0.0,0.0,0.0,0.0,0.0,0.0,0.0,0.0,0.0,0.0,0.0,0.0,0.0,0.0,0.0,0.0,0.0,0.0,0.0,0.0,0.0,0.0,0.0,0.0,0.0,0.0,0.0,0.0,0.0,0.0,0.0,0.0,0.0,0.0,0.0,0.0,0.0,0.0,0.0,0.0,0.0,0.0,0.0,0.0,0.0,0.0,0.0,0.0,0.0,0.0,0.0,0.0,0.0,0.0,0.0,0.0,0.0,0.0,0.0,0.0,0.0,0.0,0.0,0.0,0.0,0.0,0.0,0.0,0.0,0.0,0.0,0.0,0.0,0.0,0.0,0.0,0.0,0.0,0.0,0.0,0.0,0.0,0.0,0.0,0.0,0.0,0.0,0.0,0.0,0.0,0.0,0.0,0.0,0.0,0.0,0.0,0.0,0.0,0.0,0.0,0.0,0.0,0.0,0.0,0.0,0.0,0.0,0.0,0.0,0.0,0.0,0.0,0.0,0.0,0.0,0.0,0.0,0.0,0.0,0.0,0.0,0.0,0.0,0.0,0.0,0.0,0.0,0.0,0.0,0.0,0.0,0.0,0.0,0.0,0.0,0.0,0.0,0.0,0.0,0.0,0.0,0.0,0.0,0.0,0.0,0.0,0.0,0.0,0.0,0.0,0.0,0.0,0.0,0.0,0.0,0.0,0.0,0.0,0.0,0.0,0.0,0.0,0.0,0.0,0.0,0.0,0.0,0.0,0.0,0.0,0.0,0.0,0.0,0.0,0.0,0.0,0.0,0.0,0.0,0.0,0.0,0.0,0.0,0.0,0.0,0.0,0.0,0.0,0.0,0.0,0.0,0.0,0.0,0.0,0.0,0.0,0.0,0.0,0.0,0.0,0.0,0.0,0.0,0.0,0.0,0.0,0.0,0.0,0.0,0.0,0.0,0.0,0.0,0.0,0.0,0.0,0.0,0.0,0.0,0.0,0.0,0.0,0.0,0.0,0.0,0.0,0.0,0.0,0.0,0.0,0.0,0.0,0.0,0.0,0.0,0.0,0.0,0.0,0.0,0.0,0.0,0.0,0.0,0.0,0.0,0.0,0.0,0.0,0.0,0.0,0.0,0.0,0.0,0.0,0.0,0.0,0.0,0.0,0.0,0.0,0.0,0.0,0.0,0.0,0.0,0.0,0.0,0.0,0.0,0.0,0.0,0.0,0.0,0.0,0.0,0.0,0.0,0.0,0.0,0.0,0.0,0.0,0.0,0.0,0.0,0.0,0.0,0.0,0.0,0.0,0.0,0.0,0.0,0.0,0.0,0.0,0.0,0.0,0.0,0.0,0.0,0.0,0.0,0.0,0.0,0.0,0.0,0.0,0.0,0.0,0.0,0.0,0.0,0.0,0.0,0.0,0.0,0.0,0.0,0.0,0.0,0.0,0.0,0.0,0.0,0.0,0.0,0.0,0.0,0.0,0.0,0.0,0.0,0.0,0.0,0.0,0.0,0.0,0.0,0.0,0.0,0.0,0.0,0.0,0.0,0.0,0.0,0.0,0.0,0.0,0.0,0.0,0.0,0.0,0.0,0.0,0.0,0.0,0.0,0.0,0.0,0.0,0.0,0.0,0.0,0.0,0.0,0.0,0.0,0.0,0.0,0.0,0.0,0.0,0.0,0.0,0.0,0.0,0.0,0.0,0.0,0.0,0.0,0.0,0.0,0.0,0.0,0.0,0.0,0.0,0.0,0.0,0.0,0.0,0.0,0.0,0.0,0.0,0.0,0.0,0.0,0.0,0.0,0.0,0.0,0.0,0.0,0.0,0.0,0.0,0.0,0.0,0.0,0.0,0.0,0.0,0.0,0.0,0.0,0.0,0.0,0.0,0.0,0.0,0.0,0.0,0.0,0.0,0.0,0.0,0.0,0.0,0.0,0.0,0.0,0.0,0.0,0.0,0.0,0.0,0.0,0.0,0.0,0.0,0.0,0.0,0.0,0.0,0.0,0.0,0.0,0.0,0.0,0.0,0.0,0.0,0.0,0.0,0.0,0.0,0.0,0.0,0.0,0.0,0.0,0.0,0.0,0.0,0.0,0.0,0.0,0.0,0.0,0.0,0.0,0.0,0.0,0.0,0.0,0.0,0.0,0.0,0.0,0.0,0.0,0.0,0.0,0.0,0.0,0.0,0.0,0.0,0.0,0.0,0.0,0.0,0.0,0.0,0.0,0.0,0.0,0.0,0.0,0.0,0.0,0.0,0.0,0.0,0.0,0.0,0.0,0.0,0.0,0.0,0.0,0.0,0.0,0.0,0.0,0.0,0.0,0.0,0.0,0.0,0.0,0.0,0.0,0.0,0.0,0.0,0.0,0.0,0.0,0.0,0.0,0.0,0.0,0.0,0.0,0.0,0.0,0.0,0.0,0.0,0.0,0.0,0.0,0.0,0.0,0.0,0.0,0.0,0.0,0.0,0.0,0.0,0.0,0.0,0.0,0.0,0.0,0.0,0.0,0.0,0.0,0.0,0.0,0.0,0.0,0.0,0.0,0.0,0.0,0.0,0.0,0.0,0.0,0.0,0.0,0.0,0.0,0.0,0.0,0.0,0.0,0.0,0.0,0.0,0.0,0.0,0.0,0.0,0.0,0.0,0.0,0.0,0.0,0.0,0.0,0.0,0.0,0.0,0.0,0.0,0.0,0.0,0.0,0.0,0.0,0.0,0.0,0.0,0.0,0.0,0.0,0.0,0.0,0.0,0.0,0.0,0.0,0.0,0.0,0.0,0.0,0.0,0.0,0.0,0.0,0.0,0.0,0.0,0.0,0.0,0.0,0.0,0.0,0.0,0.0,0.0,0.0,0.0,0.0,0.0,0.0,0.0,0.0,0.0,0.0,0.0,0.0,0.0,0.0,0.0,0.0,0.0,0.0,0.0,0.0,0.0,0.0,0.0,0.0,0.0,0.0,0.0,0.0,0.0,0.0,0.0,0.0,0.0,0.0,0.0,0.0,0.0,0.0,0.0,0.0,0.0,0.0,0.0,0.0,0.0,0.0,0.0,0.0,0.0,0.0,0.0,0.0,0.0,0.0,0.0,0.0,0.0,0.0,0.0,0.0,0.0,0.0,0.0,0.0,0.0,0.0,0.0,0.0,0.0,0.0,0.0,0.0,0.0,0.0,0.0,0.0,0.0,0.0,0.0,0.0,0.0,0.0,0.0,0.0,0.0,0.0,0.0,0.0,0.0,0.0,0.0,0.0,0.0,0.0,0.0,0.0,0.0,0.0,0.0,0.0,0.0,0.0,0.0,0.0,0.0,0.0,0.0,0.0,0.0,0.0,0.0,0.0,0.0,0.0,0.0,0.0,0.0,0.0,0.0,0.0,0.0,0.0,0.0,0.0,0.0,0.0,0.0,0.0,0.0,0.0,0.0,0.0,0.0,0.0,0.0,0.0,0.0,0.0,0.0,0.0,0.0,0.0,0.0,0.0,0.0,0.0,0.0,0.0,0.0,0.0,0.0,0.0,0.0,0.0,0.0,0.0,0.0,0.0,0.0,0.0,0.0,0.0,0.0,0.0,0.0,0.0,0.0,0.0,0.0,0.0,0.0,0.0,0.0,0.0,0.0,0.0,0.0,0.0,0.0,0.0,0.0,0.0,0.0,0.0,0.0,0.0,0.0,0.0,0.0,0.0,0.0,0.0,0.0,0.0,0.0,0.0,0.0,0.0,0.0,0.0,0.0,0.0,0.0,0.0,0.0,0.0,0.0,0.0,0.0,0.0,0.0,0.0,0.0,0.0,0.0,0.0,0.0,0.0,0.0,0.0,0.0,0.0,0.0,0.0,0.0,0.0,0.0,0.0,0.0,0.0,0.0,0.0,0.0,0.0,0.0,0.0,0.0,0.0,0.0,0.0,0.0,0.0,0.0,0.0,0.0,0.0,0.0,0.0,0.0,0.0,0.0,0.0,0.0,0.0,0.0,0.0,0.0,0.0,0.0,0.0,0.0,0.0,0.0,0.0,0.0,0.0,0.0,0.0,0.0,0.0,0.0,0.0,0.0,0.0,0.0,0.0,0.0,0.0,0.0,0.0,0.0,0.0,0.0,0.0,0.0,0.0,0.0,0.0,0.0,0.0,0.0,0.0,0.0,0.0,0.0,0.0,0.0,0.0,0.0,0.0,0.0,0.0,0.0,0.0,0.0,0.0,0.0,0.0,0.0,0.0,0.0,0.0,0.0,0.0,0.0,0.0,0.0,0.0,0.0,0.0,0.0,0.0,0.0,0.0,0.0,0.0,0.0,0.0,0.0,0.0,0.0,0.0,0.0,0.0,0.0,0.0,0.0,0.0,0.0,0.0,0.0,0.0,0.0,0.0,0.0,0.0,0.0,0.0,0.0,0.0,0.0,0.0,0.0,0.0,0.0,0.0,0.0,0.0,0.0,0.0,0.0,0.0,0.0,0.0,0.0,0.0,0.0,0.0,0.0,0.0,0.0,0.0,0.0,0.0,0.0,0.0,0.0,0.0,0.0,0.0,0.0,0.0,0.0,0.0,0.0,0.0,0.0,0.0,0.0,0.0,0.0,0.0,0.0,0.0,0.0,0.0,0.0,0.0,0.0,0.0,0.0,0.0,0.0,0.0,0.0,0.0,0.0,0.0,0.0,0.0,0.0,0.0,0.0,0.0,0.0,0.0,0.0,0.0,0.0,0.0,0.0,0.0,0.0,0.0,0.0,0.0,0.0,0.0,0.0,0.0,0.0,0.0,0.0,0.0,0.0,0.0,0.0,0.0,0.0,0.0,0.0,0.0,0.0,0.0,0.0,0.0,0.0,0.0,0.0,0.0,0.0,0.0,0.0,0.0,0.0,0.0,0.0,0.0,0.0,0.0,0.0,0.0,0.0,0.0,0.0,0.0,0.0,0.0,0.0,0.0,0.0,0.0,0.0,0.0,0.0,0.0,0.0,0.0,0.0,0.0,0.0,0.0,0.0,0.0,0.0,0.0,0.0,0.0,0.0,0.0,0.0,0.0,0.0,0.0,0.0,0.0,0.0,0.0,0.0,0.0,0.0,0.0,0.0,0.0,0.0,0.0,0.0,0.0,0.0,0.0,0.0,0.0,0.0,0.0,0.0,0.0,0.0,0.0,0.0,0.0,0.0,0.0,0.0,0.0,0.0,0.0,0.0,0.0,0.0,0.0,0.0,0.0,0.0,0.0,0.0,0.0,0.0,0.0,0.0,0.0,0.0,0.0,0.0,0.0,0.0,0.0,0.0,0.0,0.0,0.0,0.0,0.0,0.0,0.0,0.0,0.0,0.0,0.0,0.0,0.0,0.0,0.0,0.0,0.0,0.0,0.0,0.0,0.0,0.0,0.0,0.0,0.0,0.0,0.0,0.0,0.0,0.0,0.0,0.0,0.0,0.0,0.0,0.0,0.0,0.0,0.0,0.0,0.0,0.0,0.0,0.0,0.0,0.0,0.0,0.0,0.0,0.0,0.0,0.0,0.0,0.0,0.0,0.0,0.0,0.0,0.0,0.0,0.0,0.0,0.0,0.0,0.0,0.0,0.0,0.0,0.0,0.0,0.0,0.0,0.0,0.0,0.0,0.0,0.0,0.0,0.0,0.0,0.0,0.0,0.0,0.0,0.0,0.0,0.0,0.0,0.0,0.0,0.0,0.0,0.0,0.0,0.0,0.0,0.0,0.0,0.0,0.0,0.0,0.0,0.0,0.0,0.0,0.0,0.0,0.0,0.0,0.0,0.0,0.0,0.0,0.0,0.0,0.0,0.0,0.0,0.0,0.0,0.0,0.0,0.0,0.0,0.0,0.0,0.0,0.0,0.0,0.0,0.0,0.0,-1.0643,0.0,0.0,0.0,0.0,0.0,0.0,0.0,0.0,0.0,0.0,0.0,0.0,0.0,0.0,0.0,0.0,0.0,0.0,0.0,0.0,0.0,0.0,0.0,0.0,0.0,0.0,0.0,0.0,0.0,0.0,0.0,0.0,0.0,0.0,0.0,0.0,0.0,0.0,0.0,0.0,0.0,0.0,0.0,0.0,0.0,0.0,0.0,0.0,0.0,0.0,0.0,0.0,0.0,0.0,0.0,0.0,0.0,0.0,0.0,0.0,0.0,0.0,0.0,0.0,0.0,0.0,0.0,0.0,0.0,0.0,0.0,0.0,0.0,0.0,0.0,0.0,0.0,0.0,0.0,0.0,0.0,0.0,0.0,0.0,0.0,0.0,0.0,0.0,0.0,0.0,0.0,0.0,0.0,0.0,0.0,0.0,0.0,0.0,0.0,0.0,0.0,0.0,0.0,0.0,0.0,0.0,0.0,0.0,0.0,0.0,0.0,0.0,0.0,0.0,0.0,0.0,-1.0785,0.0,0.0,0.0,0.0,0.0,0.0,0.0,0.0,0.0,0.0,0.0,0.0,0.0,0.0,0.0,0.0,0.0,0.0,0.0,0.0,0.0,0.0,0.0,0.0,0.0,0.0,0.0,0.0,0.0,0.0,0.0,0.0,0.0,0.0,0.0,0.0,0.0,0.0,0.0,0.0,0.0,0.0,0.0,0.0,0.0,0.0,0.0,0.0,0.0,0.0,0.0,0.0,0.0,0.0,0.0,0.0,0.0,0.0,0.0,0.0,0.0,0.0,0.0,0.0,0.0,0.0,0.0,0.0,0.0,0.0,0.0,0.0,0.0,0.0,0.0,0.0,0.0,0.0,0.0,0.0,0.0,0.0,0.0,0.0,0.0,0.0,0.0,0.0,0.0,0.0,0.0,0.0,0.0,0.0,0.0,0.0,0.0,0.0,0.0,0.0,0.0,0.0,0.0,0.0,0.0,0.0,0.0,0.0,0.0,0.0,-1.2142,-1.2142,-1.2155,-1.2142,-1.1525,-1.1111,-1.0887,0.0,0.0,0.0,0.0,0.0,0.0,0.0,0.0,0.0,0.0,0.0,0.0,0.0,0.0,0.0,0.0,0.0,0.0,0.0,0.0,0.0,0.0,0.0,0.0,0.0,0.0,0.0,0.0,0.0,0.0,0.0,0.0,0.0,0.0,0.0,0.0,0.0,0.0,0.0,0.0,0.0,0.0,0.0,0.0,0.0,0.0,0.0,0.0,0.0,0.0,0.0,0.0,0.0,0.0,0.0,0.0,0.0,0.0,0.0,0.0,0.0,0.0,0.0,0.0,0.0,0.0,0.0,0.0,0.0,0.0,0.0,0.0,0.0,0.0,0.0,0.0,0.0,0.0,0.0,0.0,0.0,0.0,0.0,0.0,0.0,0.0,0.0,-1.0046,-1.0175,0.0,0.0,0.0,0.0,0.0,0.0,0.0,0.0,0.0,0.0,0.0,0.0,0.0,0.0,-1.2081,-1.2244,-1.2345,-1.2386,-1.2542,-1.2549,-1.244,-1.244,-1.2515,-1.2637,-1.2535,0.0,-1.1491,-1.1382,0.0,0.0,0.0,0.0,0.0,0.0,0.0,0.0,0.0,0.0,0.0,0.0,0.0,0.0,0.0,0.0,0.0,0.0,0.0,0.0,0.0,0.0,0.0,0.0,0.0,0.0,0.0,0.0,0.0,0.0,0.0,0.0,0.0,0.0,0.0,0.0,0.0,0.0,0.0,0.0,0.0,0.0,0.0,0.0,0.0,0.0,0.0,0.0,0.0,0.0,0.0,0.0,0.0,0.0,0.0,0.0,0.0,0.0,0.0,0.0,0.0,0.0,0.0,0.0,0.0,0.0,0.0,0.0,0.0,0.0,0.0,0.0,0.0,0.0,0.0,0.0,0.0,0.0,0.0,0.0,0.0,0.0,0.0,0.0,0.0,-1.0134,-1.0358,-1.0175,-1.0507,-1.0622,0.0,0.0,0.0,0.0,0.0,0.0,0.0,0.0,0.0,-1.1789,-1.2006,-1.221,-1.2406,-1.2644,-1.284,-1.301,-1.3159,-1.3241,-1.3254,-1.3254,-1.3288,-1.3356,-1.3356,-1.3078,-1.2583,-1.2094,-1.1674,-1.1307,0.0,0.0,0.0,0.0,0.0,-1.1097,0.0,0.0,0.0,0.0,0.0,0.0,0.0,0.0,0.0,0.0,0.0,0.0,0.0,0.0,0.0,0.0,0.0,0.0,0.0,0.0,0.0,0.0,0.0,0.0,0.0,0.0,0.0,0.0,0.0,0.0,0.0,0.0,0.0,0.0,0.0,0.0,0.0,0.0,0.0,0.0,0.0,0.0,0.0,0.0,0.0,0.0,0.0,0.0,0.0,0.0,0.0,0.0,0.0,0.0,0.0,0.0,0.0,0.0,0.0,0.0,0.0,0.0,0.0,0.0,0.0,0.0,0.0,0.0,0.0,0.0,0.0,0.0,0.0,0.0,0.0,0.0,0.0,-1.0514,0.0,-1.0276,-1.0853,-1.107,0.0,0.0,0.0,0.0,0.0,0.0,-1.1986,-1.2149,-1.2318,-1.2508,-1.2691,-1.2847,-1.2963,-1.3227,-1.3471,-1.3688,-1.3844,-1.3946,-1.4014,-1.4014,-1.4034,-1.4068,-1.3994,-1.3831,-1.3573,-1.2827,-1.225,-1.183,-1.1681,-1.1525,0.0,-1.1389,-1.1463,-1.1565,0.0,0.0,0.0,0.0,0.0,0.0,0.0,0.0,0.0,0.0,0.0,0.0,0.0,0.0,0.0,0.0,0.0,0.0,0.0,0.0,0.0,0.0,0.0,0.0,0.0,0.0,0.0,0.0,0.0,0.0,0.0,0.0,0.0,0.0,0.0,0.0,0.0,0.0,0.0,0.0,0.0,0.0,0.0,0.0,0.0,0.0,0.0,0.0,0.0,0.0,0.0,0.0,0.0,0.0,0.0,0.0,0.0,0.0,0.0,0.0,0.0,0.0,0.0,0.0,0.0,0.0,0.0,0.0,0.0,0.0,0.0,0.0,0.0,0.0,0.0,0.0,0.0,0.0,0.0,-1.0738,-1.1592,0.0,0.0,0.0,0.0,-1.1775,-1.206,-1.2305,-1.2461,-1.2617,-1.2827,-1.3119,-1.3417,-1.3777,-1.4204,-1.436,-1.4441,-1.4455,-1.4611,-1.4611,-1.4475,-1.4475,-1.4557,-1.4679,-1.4401,-1.4272,-1.4197,-1.3437,-1.2861,-1.244,-1.2298,-1.2149,-1.2013,-1.2013,-1.202,-1.2026,0.0,0.0,0.0,0.0,0.0,0.0,0.0,0.0,0.0,0.0,0.0,0.0,0.0,0.0,0.0,0.0,0.0,0.0,0.0,0.0,0.0,0.0,0.0,0.0,0.0,0.0,0.0,0.0,0.0,0.0,0.0,0.0,0.0,0.0,0.0,0.0,0.0,0.0,0.0,0.0,0.0,0.0,0.0,0.0,0.0,0.0,0.0,0.0,0.0,0.0,0.0,0.0,0.0,0.0,0.0,0.0,0.0,0.0,0.0,0.0,0.0,0.0,0.0,0.0,0.0,0.0,0.0,0.0,0.0,0.0,0.0,0.0,0.0,0.0,0.0,0.0,0.0,0.0,0.0,-1.1877,-1.2542,0.0,0.0,-1.2196,-1.2305,-1.24,-1.2691,-1.3003,-1.3342,-1.36,-1.3878,-1.417,-1.4285,-1.4421,-1.4584,-1.4631,-1.4658,-1.4658,-1.4713,-1.4713,-1.4658,-1.4658,-1.4631,-1.4584,-1.4482,-1.4387,-1.4278,-1.4007,-1.3573,-1.3064,-1.2915,-1.2766,-1.2637,-1.2637,-1.2637,-1.2657,0.0,0.0,0.0,0.0,0.0,0.0,0.0,0.0,0.0,0.0,0.0,0.0,0.0,0.0,0.0,0.0,0.0,0.0,0.0,0.0,0.0,0.0,0.0,0.0,0.0,0.0,0.0,0.0,0.0,0.0,0.0,0.0,0.0,0.0,0.0,0.0,0.0,0.0,0.0,0.0,0.0,0.0,-0.0538,0.0,0.0,0.0,0.0,0.0,0.0,0.0,0.0,0.0,0.0,0.0,0.0,0.0,0.0,0.0,0.0,0.0,0.0,0.0,0.0,0.0,0.0,0.0,0.0,0.0,0.0,0.0,0.0,0.0,0.0,0.0,0.0,0.0,0.0,0.0,-1.2718,-1.2664,-1.3315,-1.3559,-1.301,-1.3003,-1.3091,-1.3247,-1.3532,-1.3878,-1.4272,-1.4489,-1.4685,-1.4882,-1.4991,-1.5018,-1.4964,-1.5065,-1.5065,-1.497,-1.5018,-1.5018,-1.4964,-1.4964,-1.4909,-1.4808,-1.4713,-1.4611,-1.4516,-1.4414,-1.4136,-1.3756,-1.3553,-1.339,-1.3261,-1.3261,-1.3261,-1.3254,0.0,0.0,0.0,0.0,0.0,0.0,0.0,0.0,0.0,0.0,0.0,0.0,0.0,0.0,0.0,0.0,0.0,0.0,0.0,0.0,0.0,0.0,0.0,0.0,0.0,0.0,0.0,0.0,0.0,0.0,0.0,0.0,0.0,0.0,0.0,0.0,0.0,0.0,0.0,0.0,0.0,0.0,0.0,0.0,0.0,0.0,0.0,0.0,0.0,0.0,0.0,0.0,0.0,0.0,0.0,0.0,0.0,0.0,0.0,0.0,0.0,0.0,0.0,0.0,0.0,0.0,0.0,0.0,0.0,0.0,0.0,0.0,0.0,0.0,0.0,0.0,-1.1674,-1.2813,-1.3492,-1.3078,-1.3926,-1.4258,-1.3532,-1.3858,-1.4177,-1.4319,-1.4604,-1.4896,-1.5181,-1.5208,-1.5208,-1.5208,-1.5499,-1.5581,-1.5425,-1.571,-1.5703,-1.5418,-1.5567,-1.556,-1.5418,-1.5418,-1.5418,-1.5398,-1.5106,-1.4977,-1.495,-1.4652,-1.4523,-1.4489,-1.4197,-1.3987,-1.3858,-1.3858,-1.3858,-1.381,0.0,0.0,0.0,0.0,0.0,0.0,0.0,0.0,0.0,0.0,0.0,0.0,0.0,0.0,0.0,0.0,0.0,0.0,0.0,0.0,0.0,0.0,0.0,0.0,0.0,0.0,0.0,0.0,0.0,0.0,0.0,0.0,0.0,0.0,0.0,0.0,0.0,0.0,0.0,0.0,0.0,0.0,0.0,0.0,0.0,0.0,0.0,0.0,0.0,0.0,0.0,0.0,0.0,0.0,0.0,0.0,0.0,0.0,0.0,0.0,0.0,0.0,0.0,0.0,0.0,0.0,0.0,0.0,0.0,0.0,0.0,0.0,0.0,0.0,0.0,-1.2908,-1.2908,-1.3512,-1.4102,-1.4523,-1.5018,-1.5215,-1.4731,-1.4819,-1.4865,-1.4991,-1.5262,-1.5459,-1.5513,-1.5716,-1.5832,-1.5832,-1.5913,-1.5886,-1.573,-1.5811,-1.5764,-1.5581,-1.5622,-1.5615,-1.5574,-1.5574,-1.5513,-1.5404,-1.5323,-1.5167,-1.4964,-1.4882,-1.478,-1.4652,-1.4353,-1.4211,-1.4177,-1.4177,-1.4177,-1.4129,0.0,0.0,0.0,0.0,0.0,0.0,0.0,0.0,0.0,0.0,0.0,0.0,0.0,0.0,0.0,0.0,0.0,0.0,0.0,0.0,0.0,0.0,0.0,0.0,0.0,0.0,0.0,0.0,0.0,0.0,0.0,0.0,0.0,0.0,0.0,0.0,0.0,0.0,0.0,0.0,0.0,0.0,0.0,0.0,0.0,-0.0285,-0.2394,-0.309,-0.309,-0.316,0.0,0.0,0.0,0.0,0.0,0.0,0.0,0.0,0.0,0.0,0.0,0.0,0.0,0.0,0.0,0.0,0.0,0.0,0.0,0.0,0.0,0.0,0.0,0.0,-1.3091,-1.3763,-1.4265,-1.4563,-1.4936,-1.5493,-1.5771,-1.5893,-1.5622,-1.5562,-1.5515,-1.5696,-1.5859,-1.5967,-1.6008,-1.6171,-1.6266,-1.6266,-1.6327,-1.6286,-1.6137,-1.6198,-1.6157,-1.6008,-1.6008,-1.6008,-1.6008,-1.6008,-1.5893,0.0,-1.5689,-1.5527,-1.5248,-1.5181,-1.5065,0.0,0.0,0.0,0.0,0.0,-1.4299,-1.4265,0.0,0.0,0.0,0.0,0.0,0.0,0.0,0.0,0.0,0.0,0.0,0.0,0.0,0.0,0.0,0.0,0.0,0.0,0.0,0.0,0.0,0.0,0.0,0.0,0.0,0.0,0.0,0.0,0.0,0.0,0.0,0.0,0.0,0.0,0.0,0.0,0.0,0.0,0.0,0.0,0.0,0.0,0.0,0.0,0.0,0.0,0.0,0.0,0.0,0.0,0.0,0.0,0.0,0.0,0.0,0.0,0.0,0.0,0.0,0.0,0.0,0.0,0.0,0.0,0.0,0.0,0.0,0.0,0.0,0.0,0.0,0.0,0.0,0.0,-1.3885,-1.4434,-1.5554,-1.5744,-1.5859,-1.6103,-1.6273,-1.6361,-1.6341,-1.6239,-1.6218,-1.6334,-1.6354,-1.6422,0.0,0.0,0.0,0.0,0.0,-1.6707,-1.6558,-1.6693,-1.6686,-1.653,-1.653,-1.653,-1.653,-1.6524,-1.6381,-1.6137,-1.6117,-1.5947,-1.5676,-1.5527,-1.535,-1.514,-1.4685,-1.4509,-1.4496,-1.4353,-1.4299,0.0,0.0,0.0,0.0,0.0,0.0,0.0,0.0,0.0,0.0,0.0,0.0,0.0,0.0,0.0,0.0,0.0,0.0,0.0,0.0,0.0,0.0,0.0,0.0,0.0,0.0,0.0,0.0,0.0,0.0,0.0,0.0,0.0,0.0,0.0,0.0,0.0,0.0,0.0,0.0,0.0,0.0,0.0,0.0,0.0,0.0,0.0,0.0,0.0,0.0,0.0,0.0,-0.0152,-0.0874,0.0,0.0,0.0,0.0,0.0,0.0,0.0,0.0,0.0,0.0,0.0,0.0,0.0,0.0,0.0,0.0,0.0,0.0,0.0,0.0,-1.3885,-1.4719,-1.5499,-1.6096,-1.6388,-1.651,-1.6442,-1.6605,-1.6673,-1.6551,-1.6653,-1.6673,-1.6551,-1.6852,-1.6714,-1.6707,-1.6822,0.0,-1.689,-1.6951,-1.691,-1.6761,-1.6822,-1.6761,-1.6578,0.0,0.0,-1.6366,-1.6537,-1.651,-1.649,-1.6334,-1.6164,-1.5981,-1.5832,-1.554,-1.514,-1.4685,-1.4509,-1.4496,-1.4353,-1.4299,-1.4299,0.0,0.0,0.0,0.0,0.0,0.0,0.0,0.0,0.0,0.0,0.0,0.0,0.0,0.0,0.0,0.0,0.0,0.0,0.0,0.0,0.0,0.0,0.0,0.0,0.0,0.0,0.0,0.0,0.0,0.0,0.0,0.0,0.0,0.0,0.0,0.0,0.0,0.0,0.0,0.0,0.0,0.0,0.0,0.0,0.0,0.0,0.0,0.0,0.0,0.0,0.0,0.0,0.0,0.0,-0.1035,0.0,0.0,0.0,0.0,0.0,0.0,0.0,0.0,0.0,0.0,0.0,0.0,0.0,0.0,-1.228,0.0,0.0,-1.4122,-1.4943,-1.552,-1.6015,-1.6469,-1.6727,-1.6836,-1.6761,-1.6856,-1.6897,-1.6822,-1.6924,-1.6937,-1.6822,-1.6883,-1.6904,-1.687,-1.6958,-1.7005,-1.7005,-1.7046,-1.5518,-1.2665,-1.268,-1.265,-1.2578,-1.5559,-1.6849,-1.6634,-1.3834,-1.4013,-1.6941,-1.6619,-1.6483,-1.6313,-1.6069,-1.5805,-1.5513,-1.5113,-1.478,-1.4502,-1.4434,-1.436,-1.4299,0.0,0.0,0.0,0.0,0.0,0.0,0.0,0.0,0.0,0.0,0.0,0.0,0.0,0.0,0.0,0.0,0.0,0.0,0.0,0.0,0.0,0.0,0.0,0.0,0.0,0.0,0.0,0.0,0.0,0.0,0.0,0.0,0.0,0.0,0.0,0.0,0.0,0.0,0.0,0.0,0.0,0.0,0.0,0.0,0.0,0.0,0.0,0.0,0.0,0.0,0.0,0.0,0.0,-0.0631,-0.2334,-0.8168,-0.9938,0.0,0.0,0.0,0.0,0.0,0.0,0.0,0.0,0.0,-1.2477,-1.2011,-1.2549,-1.3204,-1.4075,-1.4428,-1.495,-1.5967,-1.6212,-1.6402,-1.6795,-1.6978,-1.7073,-1.708,-1.7107,-1.6915,-1.7121,-1.4986,-1.4131,-1.5181,-1.6452,-1.7087,-1.7093,-1.7087,-1.6439,-1.535,-1.6504,-1.4786,-1.0228,-0.789,-0.6826,-0.7036,-1.3711,-1.6969,-1.673,-1.1086,-1.1244,-1.585,-1.6641,-1.6714,-1.6306,-1.6246,-1.6049,-1.5689,-1.4435,-1.4209,-1.4658,-1.4618,-1.4516,-1.4387,0.0,0.0,0.0,0.0,0.0,0.0,0.0,0.0,0.0,0.0,0.0,0.0,0.0,0.0,0.0,0.0,0.0,0.0,0.0,0.0,0.0,0.0,0.0,0.0,0.0,0.0,0.0,0.0,0.0,0.0,0.0,0.0,0.0,0.0,0.0,0.0,0.0,0.0,0.0,0.0,0.0,0.0,0.0,0.0,0.0,0.0,0.0,0.0,0.0,0.0,0.0,0.0,0.0,-0.2632,-0.5709,-0.6523,0.0,-0.761,-0.7265,-0.9575,-1.2272,-1.3574,-0.7284,-0.0773,0.0,0.0,-0.9516,-1.0091,-1.2503,-1.455,-1.4645,-1.506,-1.5466,-1.6058,-1.646,-1.6992,-1.7182,-1.7304,-1.7385,-1.721,-1.7034,-1.7041,-1.7224,-0.8032,-0.3909,-0.9122,-1.4073,-1.6915,-1.7041,-1.6928,-1.4665,-0.9664,-1.436,-1.6608,-1.6043,-0.6083,-0.0871,-0.1086,-1.1786,-1.7047,-1.6707,-1.1192,-0.9847,-1.2142,-1.5622,-1.6639,-1.6341,-1.6334,-1.6171,-1.5316,-1.0684,-1.1472,-1.5389,-1.4997,-1.4841,-1.4531,0.0,0.0,0.0,0.0,0.0,0.0,0.0,0.0,0.0,0.0,0.0,0.0,0.0,0.0,0.0,0.0,0.0,0.0,0.0,0.0,0.0,0.0,0.0,0.0,0.0,0.0,0.0,0.0,0.0,0.0,0.0,0.0,0.0,0.0,0.0,0.0,0.0,0.0,0.0,0.0,0.0,0.0,0.0,0.0,0.0,0.0,0.0,-0.2956,0.0,0.0,0.0,-0.0836,-0.5401,-0.7889,-0.9414,-0.9801,-1.0052,0.0,-1.0289,-1.1345,0.0,0.0,-0.9026,-0.6839,-0.1229,-0.7075,-1.3578,-1.3676,-1.4792,-1.5691,-1.5737,-1.5937,-1.6148,0.0,-1.5211,-1.4683,-1.7163,-1.7487,-1.7507,-1.7378,-1.5301,-1.4713,-1.6896,-0.6758,-0.109,-0.3267,-0.5864,-0.8475,-1.179,-1.529,-1.5939,-1.3506,-0.9393,-0.721,-0.7185,-0.2402,0.0,-0.0,-0.4809,-0.719,-0.7129,-0.4743,-0.4074,-0.5103,-1.3391,-1.6883,-1.6639,-1.6446,-1.6286,-1.5422,-1.0091,-1.1173,-1.512,-1.182,-1.2343,-1.478,0.0,0.0,0.0,0.0,0.0,0.0,0.0,0.0,0.0,0.0,0.0,0.0,0.0,0.0,0.0,0.0,0.0,0.0,0.0,0.0,0.0,0.0,0.0,0.0,0.0,0.0,0.0,0.0,0.0,0.0,0.0,0.0,0.0,0.0,0.0,0.0,0.0,0.0,0.0,0.0,0.0,0.0,0.0,0.0,0.0,0.0,0.0,-0.481,0.0,0.0,-0.2448,-0.2617,-0.8173,-0.9993,-1.0372,-1.19,-1.237,-1.2318,-1.1965,0.0,0.0,-0.8455,-0.8879,-0.8579,-0.1638,-0.6302,-1.3093,-1.6015,-1.6595,-1.6529,-1.64,-1.6647,0.0,-1.7067,-1.5114,-1.4244,-1.72,-1.767,-1.7582,-1.7372,-1.481,-1.4233,-1.6717,-0.6779,0.0,0.0,0.0,-0.1754,-0.5951,-1.0128,-1.2325,-1.2325,-0.4401,0.0,0.0,0.0,0.0,0.0,0.0,0.0,0.0,0.0,0.0,-0.0425,-0.8734,-1.3169,-1.4731,-1.6028,-1.652,-1.5641,-1.0028,-0.9318,-1.0979,-0.8555,-0.8932,-1.1197,0.0,0.0,0.0,0.0,0.0,0.0,0.0,0.0,0.0,0.0,0.0,0.0,0.0,0.0,0.0,0.0,0.0,0.0,0.0,0.0,0.0,0.0,0.0,0.0,0.0,0.0,0.0,0.0,0.0,0.0,0.0,0.0,0.0,0.0,0.0,0.0,0.0,0.0,0.0,0.0,0.0,0.0,0.0,0.0,0.0,0.0,0.0,0.0,0.0,0.0,-0.8683,-0.5625,-0.5602,-0.5731,0.0,-1.1054,-1.2245,0.0,0.0,0.0,-1.2644,-1.1009,-0.5406,-0.0378,-0.0,-0.02,-0.3632,-1.4705,-1.6668,-1.6406,-1.6591,-1.7076,-1.7364,-1.7059,-1.7325,-1.7826,-1.7793,-1.7619,-1.7445,-1.7114,-1.7123,-1.7096,0.0,-0.6602,0.0,0.0,0.0,-0.0,-0.0227,-0.0447,-0.0443,-0.0443,-0.0223,0.0,0.0,0.0,0.0,0.0,0.0,0.0,0.0,0.0,0.0,-0.0,-0.0425,-0.3591,-0.9218,-1.4773,-1.6554,-1.5647,-1.0065,-0.4866,-0.0996,-0.6177,-0.4712,-0.192,0.0,0.0,0.0,0.0,0.0,0.0,0.0,0.0,0.0,0.0,0.0,0.0,0.0,0.0,0.0,0.0,0.0,0.0,0.0,0.0,0.0,0.0,0.0,0.0,0.0,0.0,0.0,0.0,0.0,0.0,0.0,0.0,0.0,0.0,0.0,0.0,0.0,0.0,0.0,0.0,0.0,0.0,0.0,0.0,0.0,-0.0688,0.0,0.0,0.0,0.0,0.0,0.0,-0.9429,0.0,0.0,-1.1669,-1.1913,-1.1908,0.0,0.0,-1.1461,-1.1304,-0.5596,0.0,0.0,0.0,-0.1055,-0.4884,-0.8633,-1.1272,-1.1262,-1.451,-1.7257,-1.7511,-1.7663,-1.7719,-1.7793,-1.4379,-1.3359,-1.7047,-1.7217,0.0,0.0,0.0,0.0,-0.0227,0.0,0.0,0.0,0.0,0.0,0.0,0.0,0.0,0.0,0.0,0.0,0.0,0.0,0.0,0.0,0.0,0.0,0.0,0.0,-0.1062,-0.2964,-0.4877,-0.5692,-0.5213,-0.3339,-0.165,-0.0203,-0.2015,-0.1595,-0.0393,0.0,0.0,0.0,0.0,0.0,0.0,0.0,0.0,0.0,0.0,0.0,0.0,0.0,0.0,0.0,0.0,0.0,0.0,0.0,0.0,0.0,0.0,0.0,0.0,0.0,0.0,0.0,0.0,0.0,0.0,0.0,0.0,0.0,0.0,0.0,0.0,0.0,0.0,0.0,0.0,0.0,0.0,0.0,0.0,-0.1557,0.0,0.0,0.0,0.0,0.0,0.0,0.0,0.0,-1.1289,-1.1399,-1.2182,-1.2271,-1.1781,0.0,-0.9459,-0.8776,-0.7658,-0.6507,-0.4808,-0.0856,0.0,0.0,0.0,-0.5669,-1.0544,-1.0666,-1.3973,-1.6838,-1.7475,-1.7614,-1.6156,-1.2144,-0.8268,-0.7076,-1.1143,-1.2856,0.0,0.0,0.0,0.0,-0.0678,0.0,0.0,0.0,0.0,0.0,0.0,0.0,0.0,0.0,0.0,0.0,0.0,0.0,0.0,0.0,0.0,0.0,0.0,0.0,0.0,0.0,0.0,0.0,0.0,0.0,0.0,0.0,0.0,0.0,0.0,0.0,0.0,0.0,0.0,0.0,0.0,0.0,0.0,0.0,0.0,0.0,0.0,0.0,0.0,0.0,0.0,0.0,0.0,0.0,0.0,0.0,0.0,0.0,0.0,0.0,0.0,0.0,0.0,0.0,0.0,0.0,0.0,0.0,0.0,0.0,0.0,0.0,0.0,0.0,0.0,0.0,0.0,0.0,0.0,0.0,0.0,0.0,0.0,0.0,0.0,0.0,0.0,0.0,0.0,-1.1163,-1.2076,-1.2684,-1.1986,-0.7401,-0.5823,-0.47,-0.0823,-0.7601,-1.2691,-0.2397,0.0,-0.0215,-0.0633,-0.7503,-1.3808,0.0,0.0,-1.6347,-1.6735,-1.7243,-1.36,-0.2487,-0.0442,0.0,0.0,0.0,0.0,0.0,0.0,0.0,-0.0898,0.0,0.0,0.0,0.0,0.0,0.0,0.0,0.0,0.0,0.0,0.0,0.0,0.0,0.0,0.0,0.0,0.0,0.0,0.0,0.0,0.0,0.0,0.0,0.0,0.0,0.0,0.0,0.0,0.0,0.0,0.0,0.0,0.0,0.0,0.0,0.0,0.0,0.0,0.0,0.0,0.0,0.0,0.0,0.0,0.0,0.0,0.0,0.0,0.0,0.0,0.0,0.0,0.0,0.0,0.0,0.0,0.0,0.0,0.0,0.0,0.0,0.0,0.0,0.0,0.0,0.0,0.0,0.0,0.0,0.0,0.0,0.0,0.0,0.0,0.0,0.0,0.0,0.0,0.0,0.0,0.0,0.0,0.0,-0.6991,-0.7236,-0.7424,-0.9693,-1.1792,-1.1081,-0.6267,-0.1255,-0.0215,-0.2177,-0.3287,-0.0655,0.0,-0.1922,-0.87,-0.655,-0.5718,0.0,0.0,0.0,-1.5764,-1.3046,0.0,-1.3174,-0.5571,0.0,0.0,0.0,-1.0492,-1.5653,-1.6193,0.0,0.0,0.0,0.0,0.0,0.0,0.0,0.0,0.0,0.0,0.0,0.0,0.0,0.0,0.0,0.0,0.0,0.0,0.0,0.0,0.0,0.0,0.0,0.0,0.0,0.0,0.0,0.0,0.0,0.0,0.0,0.0,0.0,0.0,0.0,0.0,0.0,0.0,0.0,0.0,0.0,0.0,0.0,0.0,0.0,0.0,0.0,0.0,0.0,0.0,0.0,0.0,0.0,0.0,0.0,0.0,0.0,0.0,0.0,0.0,0.0,0.0,0.0,0.0,0.0,0.0,0.0,0.0,0.0,0.0,0.0,0.0,0.0,0.0,0.0,0.0,0.0,0.0,0.0,0.0,0.0,0.0,0.0,-0.7175,-0.4072,-0.3176,-0.3278,-0.3256,0.0,-0.7602,-1.2354,-0.6991,0.0,0.0,0.0,0.0,0.0,-0.3839,-0.8782,-1.3319,-0.969,0.0,0.0,0.0,0.0,0.0,0.0,0.0,-0.9596,-0.4243,0.0,0.0,-0.2839,0.0,-0.8808,-0.9126,-0.6587,0.0,0.0,0.0,0.0,0.0,0.0,0.0,0.0,0.0,0.0,0.0,0.0,0.0,0.0,0.0,0.0,0.0,0.0,0.0,0.0,0.0,0.0,0.0,0.0,0.0,0.0,0.0,0.0,0.0,0.0,0.0,0.0,0.0,0.0,0.0,0.0,0.0,0.0,0.0,0.0,0.0,0.0,0.0,0.0,0.0,0.0,0.0,0.0,0.0,0.0,0.0,0.0,0.0,0.0,0.0,0.0,0.0,0.0,0.0,0.0,0.0,0.0,0.0,0.0,0.0,0.0,0.0,0.0,0.0,0.0,0.0,0.0,0.0,0.0,0.0,0.0,0.0,0.0,0.0,0.0,0.0,-0.9249,-0.813,-0.1928,0.0,0.0,0.0,0.0,-0.1858,-1.0793,-0.68,0.0,0.0,0.0,0.0,0.0,-0.7692,-1.4793,-1.4865,0.0,-1.3148,-1.2665,0.0,-1.4792,-1.5466,0.0,-0.1314,-0.0237,0.0,0.0,0.0,0.0,0.0,0.0,0.0,0.0,0.0,0.0,0.0,0.0,0.0,0.0,0.0,0.0,0.0,0.0,0.0,0.0,0.0,0.0,0.0,0.0,0.0,0.0,0.0,0.0,0.0,0.0,0.0,0.0,0.0,0.0,0.0,0.0,0.0,0.0,0.0,0.0,0.0,0.0,0.0,0.0,0.0,0.0,0.0,0.0,0.0,0.0,0.0,0.0,0.0,0.0,0.0,0.0,0.0,0.0,0.0,0.0,0.0,0.0,0.0,0.0,0.0,0.0,0.0,0.0,0.0,0.0,0.0,0.0,0.0,0.0,0.0,0.0,0.0,0.0,0.0,0.0,0.0,0.0,0.0,0.0,0.0,0.0,0.0,0.0,0.0,-0.1779,-0.165,-0.0384,0.0,0.0,0.0,0.0,-0.0439,-0.2258,-0.1373,0.0,0.0,0.0,0.0,0.0,-0.1608,0.0,0.0,0.0,-1.2873,-1.3446,-1.3599,0.0,-1.571,0.0,0.0,0.0,0.0,0.0,0.0,0.0,0.0,0.0,0.0,0.0,0.0,0.0,0.0,0.0,0.0,0.0,0.0,0.0,0.0,0.0,0.0,0.0,0.0,0.0,0.0,0.0,0.0,0.0,0.0,0.0,0.0,0.0,0.0,0.0,0.0,0.0,0.0,0.0,0.0,0.0,0.0,0.0,0.0,0.0,0.0,0.0,0.0,0.0,0.0,0.0,0.0,0.0,0.0,0.0,0.0,0.0,0.0,0.0,0.0,0.0,0.0,0.0,0.0,0.0,0.0,0.0,0.0,0.0,0.0,0.0,0.0,0.0,0.0,0.0,0.0,0.0,0.0,0.0,0.0,0.0,0.0,0.0,0.0,0.0,0.0,0.0,0.0,0.0,0.0,0.0,0.0,0.0,0.0,0.0,0.0,0.0,0.0,0.0,0.0,0.0,0.0,0.0,0.0,0.0,0.0,0.0,0.0,0.0,0.0,0.0,-1.2681,-1.3013,0.0,0.0,0.0,0.0,0.0,0.0,0.0,0.0,0.0,0.0,0.0,0.0,0.0,0.0,0.0,0.0,0.0,0.0,0.0,0.0,0.0,0.0,0.0,0.0,0.0,0.0,0.0,0.0,0.0,0.0,0.0,0.0,0.0,0.0,0.0,0.0,0.0,0.0,0.0,0.0,0.0,0.0,0.0,0.0,0.0,0.0,0.0,0.0,0.0,0.0,0.0,0.0,0.0,0.0,0.0,0.0,0.0,0.0,0.0,0.0,0.0,0.0,0.0,0.0,0.0,0.0,0.0,0.0,0.0,0.0,0.0,0.0,0.0,0.0,0.0,0.0,0.0,0.0,0.0,0.0,0.0,0.0,0.0,0.0,0.0,0.0,0.0,0.0,0.0,0.0,0.0,0.0,0.0,0.0,0.0,0.0,0.0,0.0,0.0,0.0,0.0,0.0,0.0,0.0,0.0,0.0,0.0,0.0,-0.0438,-0.2407,-0.2857,0.0,0.0,-1.2462,-1.2523,-1.2637,0.0,0.0,0.0,0.0,0.0,0.0,0.0,0.0,0.0,0.0,0.0,0.0,0.0,0.0,0.0,0.0,0.0,0.0,0.0,0.0,0.0,0.0,0.0,0.0,0.0,0.0,0.0,0.0,0.0,0.0,0.0,0.0,0.0,0.0,0.0,0.0,0.0,0.0,0.0,0.0,0.0,0.0,0.0,0.0,0.0,0.0,0.0,0.0,0.0,0.0,0.0,0.0,0.0,0.0,0.0,0.0,0.0,0.0,0.0,0.0,0.0,0.0,0.0,0.0,0.0,0.0,0.0,0.0,0.0,0.0,0.0,0.0,0.0,0.0,0.0,0.0,0.0,0.0,0.0,0.0,0.0,0.0,0.0,0.0,0.0,0.0,0.0,0.0,0.0,0.0,0.0,0.0,0.0,0.0,0.0,0.0,0.0,0.0,0.0,0.0,0.0,0.0,0.0,0.0,0.0,0.0,0.0,0.0,-0.2178,-1.034,0.0,0.0,-1.2376,-1.2542,-1.2621,-1.3061,0.0,0.0,0.0,0.0,0.0,0.0,0.0,0.0,0.0,0.0,0.0,0.0,0.0,0.0,0.0,0.0,0.0,0.0,0.0,0.0,0.0,0.0,0.0,0.0,0.0,0.0,0.0,0.0,0.0,0.0,0.0,0.0,0.0,0.0,0.0,0.0,0.0,0.0,0.0,0.0,0.0,0.0,0.0,0.0,0.0,0.0,0.0,0.0,0.0,0.0,0.0,0.0,0.0,0.0,0.0,0.0,0.0,0.0,0.0,0.0,0.0,0.0,0.0,0.0,0.0,0.0,0.0,0.0,0.0,0.0,0.0,0.0,0.0,0.0,0.0,0.0,0.0,0.0,0.0,0.0,0.0,0.0,0.0,0.0,0.0,0.0,0.0,0.0,0.0,0.0,0.0,0.0,0.0,0.0,0.0,0.0,0.0,0.0,-0.3801,0.0,0.0,-0.5635,0.0,0.0,0.0,0.0,0.0,0.0,-0.2397,-1.1435,0.0,-1.3339,-1.3104,-1.2983,-1.2888,-1.3116,0.0,0.0,0.0,0.0,0.0,0.0,0.0,0.0,0.0,0.0,0.0,0.0,0.0,0.0,0.0,0.0,0.0,0.0,0.0,0.0,0.0,0.0,0.0,0.0,0.0,0.0,0.0,0.0,0.0,0.0,0.0,0.0,0.0,0.0,0.0,0.0,0.0,0.0,0.0,0.0,0.0,0.0,0.0,0.0,0.0,0.0,0.0,0.0,0.0,0.0,0.0,0.0,0.0,0.0,0.0,0.0,0.0,0.0,0.0,0.0,0.0,0.0,0.0,0.0,0.0,0.0,0.0,0.0,0.0,0.0,0.0,0.0,0.0,0.0,0.0,0.0,0.0,0.0,0.0,0.0,0.0,0.0,0.0,0.0,0.0,0.0,0.0,0.0,0.0,0.0,0.0,0.0,0.0,0.0,0.0,0.0,0.0,0.0,0.0,0.0,0.0,-0.8919,0.0,0.0,0.0,-0.101,-0.4712,-0.4923,-0.6129,0.0,0.0,-1.3513,-1.3376,-1.3288,-1.3171,-1.313,-1.3078,-1.3281,-1.3452,0.0,-1.3846,-1.4256,-1.4831,0.0,0.0,0.0,0.0,0.0,0.0,0.0,0.0,0.0,0.0,0.0,0.0,0.0,0.0,0.0,0.0,0.0,0.0,0.0,0.0,0.0,0.0,0.0,0.0,0.0,0.0,0.0,0.0,0.0,0.0,0.0,0.0,0.0,0.0,0.0,0.0,0.0,0.0,0.0,0.0,0.0,0.0,0.0,0.0,0.0,0.0,0.0,0.0,0.0,0.0,0.0,0.0,0.0,0.0,0.0,0.0,0.0,0.0,0.0,0.0,0.0,0.0,0.0,0.0,0.0,0.0,0.0,0.0,0.0,0.0,0.0,0.0,0.0,0.0,0.0,0.0,0.0,0.0,0.0,0.0,0.0,0.0,0.0,0.0,0.0,0.0,0.0,0.0,0.0,0.0,0.0,0.0,0.0,0.0,-0.7515,0.0,0.0,0.0,-0.3045,-1.545,-1.682,-1.5081,0.0,0.0,-1.3813,-1.3526,-1.3275,-1.3125,-1.299,-1.3078,-1.3281,-1.3452,-1.3881,-1.4231,-1.4253,-1.5384,0.0,0.0,0.0,0.0,0.0,0.0,0.0,0.0,0.0,0.0,0.0,0.0,0.0,0.0,0.0,0.0,0.0,0.0,0.0,0.0,0.0,0.0,0.0,0.0,0.0,0.0,0.0,0.0,0.0,0.0,0.0,0.0,0.0,0.0,0.0,0.0,0.0,0.0,0.0,0.0,0.0,0.0,0.0,0.0,0.0,0.0,0.0,0.0,0.0,0.0,0.0,0.0,0.0,0.0,0.0,0.0,0.0,0.0,0.0,0.0,0.0,0.0,0.0,0.0,0.0,0.0,0.0,0.0,0.0,0.0,0.0,0.0,0.0,0.0,0.0,0.0,0.0,0.0,0.0,0.0,0.0,0.0,0.0,0.0,0.0,0.0,0.0,0.0,0.0,0.0,0.0,0.0,0.0,-1.3572,-1.2128,-1.0299,-0.9948,-0.4951,-0.1624,-0.9063,-1.2771,-1.459,-1.4372,0.0,-1.374,-1.3485,-1.3363,-1.3315,-1.3268,-1.3302,-1.3505,-1.3874,-1.1271,-1.049,-1.4329,0.0,0.0,0.0,0.0,0.0,0.0,0.0,0.0,0.0,0.0,0.0,0.0,0.0,0.0,0.0,0.0,0.0,0.0,0.0,0.0,0.0,0.0,0.0,0.0,0.0,0.0,0.0,0.0,0.0,0.0,0.0,0.0,0.0,0.0,0.0,0.0,0.0,0.0,0.0,0.0,0.0,0.0,0.0,0.0,0.0,0.0,0.0,0.0,0.0,0.0,0.0,0.0,0.0,0.0,0.0,0.0,0.0,0.0,0.0,0.0,0.0,0.0,0.0,0.0,0.0,0.0,0.0,0.0,0.0,0.0,0.0,0.0,0.0,0.0,0.0,0.0,0.0,0.0,0.0,0.0,0.0,0.0,0.0,0.0,0.0,0.0,0.0,0.0,0.0,0.0,0.0,0.0,0.0,0.0,0.0,-1.3925,-1.4635,0.0,-1.0216,-0.6133,-0.9029,-1.2215,0.0,0.0,0.0,0.0,-1.3573,-1.3417,-1.3336,-1.3336,-1.3342,-1.3519,-1.4021,-1.1362,-0.9445,-0.9513,0.0,0.0,0.0,0.0,0.0,0.0,0.0,0.0,0.0,0.0,0.0,0.0,0.0,0.0,0.0,0.0,0.0,0.0,0.0,0.0,0.0,0.0,0.0,0.0,0.0,0.0,0.0,0.0,0.0,0.0,0.0,0.0,0.0,0.0,0.0,0.0,0.0,0.0,0.0,0.0,0.0,0.0,0.0,0.0,0.0,0.0,0.0,0.0,0.0,0.0,0.0,0.0,0.0,0.0,0.0,0.0,0.0,0.0,0.0,0.0,0.0,0.0,0.0,0.0,0.0,0.0,0.0,0.0,0.0,0.0,0.0,0.0,0.0,0.0,0.0,0.0,0.0,0.0,0.0,0.0,0.0,0.0,0.0,0.0,0.0,0.0,0.0,0.0,0.0,0.0,0.0,0.0,0.0,0.0,0.0,0.0,0.0,0.0,-1.5164,0.0,0.0,0.0,0.0,0.0,0.0,0.0,0.0,0.0,0.0,0.0,-1.3275,-1.3556,-1.3695,-1.372,-1.0743,-0.2295,0.0,0.0,0.0,0.0,0.0,0.0,0.0,0.0,0.0,0.0,0.0,0.0,0.0,0.0,0.0,0.0,0.0,0.0,0.0,0.0,0.0,0.0,0.0,0.0,0.0,0.0,0.0,0.0,0.0,0.0,0.0,0.0,0.0,0.0,0.0,0.0,0.0,0.0,0.0,0.0,0.0,0.0,0.0,0.0,0.0,0.0,0.0,0.0,0.0,0.0,0.0,0.0,0.0,0.0,0.0,0.0,0.0,0.0,0.0,0.0,0.0,0.0,0.0,0.0,0.0,0.0,0.0,0.0,0.0,0.0,0.0,0.0,0.0,0.0,0.0,0.0,0.0,0.0,0.0,0.0,0.0,0.0,0.0,0.0,0.0,0.0,0.0,0.0,0.0,0.0,0.0,0.0,0.0,0.0,0.0,-0.7998,-1.3665,-1.4522,0.0,-1.4251,-1.4343,-1.4421,0.0,0.0,0.0,0.0,0.0,0.0,0.0,0.0,0.0,-1.362,-1.4258,-1.3803,-1.3228,-1.2482,0.0,0.0,0.0,0.0,0.0,0.0,0.0,0.0,0.0,0.0,0.0,0.0,0.0,0.0,0.0,0.0,0.0,0.0,0.0,0.0,0.0,0.0,0.0,0.0,0.0,0.0,0.0,0.0,0.0,0.0,0.0,0.0,0.0,0.0,0.0,0.0,0.0,0.0,0.0,0.0,0.0,0.0,0.0,0.0,0.0,0.0,0.0,0.0,0.0,0.0,0.0,0.0,0.0,0.0,0.0,0.0,0.0,0.0,0.0,0.0,0.0,0.0,0.0,0.0,0.0,0.0,0.0,0.0,0.0,0.0,0.0,0.0,0.0,0.0,0.0,0.0,0.0,0.0,0.0,0.0,0.0,0.0,0.0,0.0,0.0,0.0,0.0,0.0,0.0,0.0,0.0,0.0,0.0,0.0,0.0,-0.3497,-0.7282,-0.7597,-0.771,-0.8684,-1.293,-1.4036,-1.4084,0.0,0.0,0.0,0.0,0.0,0.0,0.0,0.0,0.0,-1.4001,-1.3836,-1.4247,0.0,0.0,0.0,0.0,0.0,0.0,0.0,0.0,0.0,0.0,0.0,0.0,0.0,0.0,0.0,0.0,0.0,0.0,0.0,0.0,0.0,0.0,0.0,0.0,0.0,0.0,0.0,0.0,0.0,0.0,0.0,0.0,0.0,0.0,0.0,0.0,0.0,0.0,0.0,0.0,0.0,0.0,0.0,0.0,0.0,0.0,0.0,0.0,0.0,0.0,0.0,0.0,0.0,0.0,0.0,0.0,0.0,0.0,0.0,0.0,0.0,0.0,0.0,0.0,0.0,0.0,0.0,0.0,0.0,0.0,0.0,0.0,0.0,0.0,0.0,0.0,0.0,0.0,0.0,0.0,0.0,0.0,0.0,0.0,0.0,0.0,0.0,0.0,0.0,0.0,0.0,0.0,0.0,0.0,0.0,0.0,0.0,0.0,0.0,0.0,-0.2233,-1.1322,-1.3707,-1.3794,0.0,0.0,0.0,0.0,0.0,0.0,0.0,0.0,0.0,0.0,0.0,0.0,0.0,0.0,0.0,0.0,0.0,0.0,0.0,0.0,0.0,0.0,0.0,0.0,0.0,0.0,0.0,0.0,0.0,0.0,0.0,0.0,0.0,0.0,0.0,0.0,0.0,0.0,0.0,0.0,0.0,0.0,0.0,0.0,0.0,0.0,0.0,0.0,0.0,0.0,0.0,0.0,0.0,0.0,0.0,0.0,0.0,0.0,0.0,0.0,0.0,0.0,0.0,0.0,0.0,0.0,0.0,0.0,0.0,0.0,0.0,0.0,0.0,0.0,0.0,0.0,0.0,0.0,0.0,0.0,0.0,0.0,0.0,0.0,0.0,0.0,0.0,0.0,0.0,0.0,0.0,0.0,0.0,0.0,0.0,0.0,0.0,0.0,0.0,0.0,0.0,0.0,0.0,0.0,0.0,0.0,0.0,0.0,0.0,0.0,0.0,0.0,-0.2225,-1.1849,-1.4268,-1.4062,0.0,0.0,0.0,0.0,0.0,0.0,0.0,0.0,0.0,0.0,0.0,0.0,0.0,0.0,0.0,0.0,0.0,0.0,0.0,0.0,0.0,0.0,0.0,0.0,0.0,0.0,0.0,0.0,0.0,0.0,0.0,0.0,0.0,0.0,0.0,0.0,0.0,0.0,0.0,0.0,0.0,0.0,0.0,0.0,0.0,0.0,0.0,0.0,0.0,0.0,0.0,0.0,0.0,0.0,0.0,0.0,0.0,0.0,0.0,0.0,0.0,0.0,0.0,0.0,0.0,0.0,0.0,0.0,0.0,0.0,0.0,0.0,0.0,0.0,0.0,0.0,0.0,0.0,0.0,0.0,0.0,0.0,0.0,0.0,0.0,0.0,0.0,0.0,0.0,0.0,0.0,0.0,0.0,0.0,0.0,0.0,0.0,0.0,0.0,0.0,0.0,0.0,0.0,0.0,0.0,0.0,0.0,0.0,0.0,0.0,0.0,0.0,-0.1018,-0.5465,-0.6649,0.0,0.0,0.0,0.0,0.0,0.0,0.0,0.0,0.0,0.0,0.0,0.0,0.0,0.0,0.0,0.0,0.0,0.0,0.0,0.0,0.0,0.0,0.0,0.0,0.0,0.0,0.0,0.0,0.0,0.0,0.0,0.0,0.0,0.0,0.0,0.0,0.0,0.0,0.0,0.0,0.0,0.0,0.0,0.0,0.0,0.0,0.0,0.0,0.0,0.0,0.0,0.0,0.0,0.0,0.0,0.0,0.0,0.0,0.0,0.0,0.0,0.0,0.0,0.0,0.0,0.0,0.0,0.0,0.0,0.0,0.0,0.0,0.0,0.0,0.0,0.0,0.0,0.0,0.0,0.0,0.0,0.0,0.0,0.0,0.0,0.0,0.0,0.0,0.0,0.0,0.0,0.0,0.0,0.0,0.0,0.0,0.0,0.0,0.0,0.0,0.0,0.0,0.0,0.0,0.0,0.0,0.0,0.0,0.0,0.0,0.0,0.0,0.0,0.0,0.0,0.0,0.0,0.0,0.0,0.0,0.0,0.0,0.0,0.0,0.0,0.0,0.0,0.0,0.0,0.0,0.0,0.0,0.0,0.0,0.0,0.0,0.0,0.0,0.0,0.0,0.0,0.0,0.0,0.0,0.0,0.0,0.0,0.0,0.0,0.0,0.0,0.0,0.0,0.0,0.0,0.0,0.0,0.0,0.0,0.0,0.0,0.0,0.0,0.0,0.0,0.0,0.0,0.0,0.0,0.0,0.0,0.0,0.0,0.0,0.0,0.0,0.0,0.0,0.0,0.0,0.0,0.0,0.0,0.0,0.0,0.0,0.0,0.0,0.0,0.0,0.0,0.0,0.0,0.0,-0.3701,0.0,0.0,0.0,0.0,0.0,0.0,0.0,0.0,0.0,0.0,0.0,0.0,0.0,0.0,0.0,0.0,0.0,0.0,0.0,0.0,0.0,0.0,0.0,0.0,0.0,0.0,0.0,0.0,0.0,0.0,0.0,0.0,0.0,0.0,0.0,0.0,0.0,0.0,0.0,0.0,0.0,0.0,0.0,0.0,0.0,0.0,0.0,0.0,0.0,0.0,0.0,0.0,0.0,0.0,0.0,0.0,0.0,0.0,0.0,0.0,0.0,0.0,0.0,0.0,0.0,0.0,0.0,0.0,0.0,0.0,0.0,0.0,0.0,0.0,0.0,0.0,0.0,0.0,0.0,0.0,0.0,0.0,0.0,0.0,0.0,0.0,0.0,0.0,0.0,0.0,0.0,0.0,0.0,0.0,0.0,0.0,0.0,0.0,0.0,0.0,0.0,0.0,0.0,0.0,0.0,0.0,0.0,0.0,0.0,0.0,0.0,0.0,0.0,-1.1585,-1.177,-0.9485,-0.5532,0.0,0.0,0.0,0.0,0.0,0.0,0.0,0.0,0.0,0.0,0.0,0.0,0.0,0.0,0.0,0.0,0.0,0.0,0.0,0.0,0.0,0.0,0.0,0.0,0.0,0.0,0.0,0.0,0.0,0.0,0.0,0.0,0.0,0.0,0.0,0.0,0.0,0.0,0.0,0.0,0.0,0.0,0.0,0.0,0.0,0.0,0.0,0.0,0.0,0.0,0.0,0.0,0.0,0.0,0.0,0.0,0.0,0.0,0.0,0.0,0.0,0.0,0.0,0.0,0.0,0.0,0.0,0.0,0.0,0.0,0.0,0.0,0.0,0.0,0.0,0.0,0.0,0.0,0.0,0.0,0.0,0.0,0.0,0.0,0.0,0.0,0.0,0.0,0.0,0.0,0.0,0.0,0.0,0.0,0.0,0.0,0.0,0.0,0.0,0.0,0.0,0.0,0.0,0.0,0.0,0.0,0.0,0.0,0.0,0.0,0.0,0.0,-1.1133,-1.2143,-1.247,-0.8424,0.0,0.0,0.0,0.0,0.0,0.0,0.0,0.0,0.0,0.0,0.0,0.0,0.0,0.0,0.0,0.0,0.0,0.0,0.0,0.0,0.0,0.0,0.0,0.0,0.0,0.0,0.0,0.0,0.0,0.0,0.0,0.0,0.0,0.0,0.0,0.0,0.0,0.0,0.0,0.0,0.0,0.0,0.0,0.0,0.0,0.0,0.0,0.0,0.0,0.0,0.0,0.0,0.0,0.0,0.0,0.0,0.0,0.0,0.0,0.0,0.0,0.0,0.0,0.0,0.0,0.0,0.0,0.0,0.0,0.0,0.0,0.0,0.0,0.0,0.0,0.0,0.0,0.0,0.0,0.0,0.0,0.0,0.0,0.0,0.0,0.0,0.0,0.0,0.0,0.0,0.0,0.0,0.0,0.0,0.0,0.0,0.0,0.0,0.0,0.0,0.0,0.0,0.0,0.0,0.0,0.0,0.0,0.0,0.0,0.0,0.0,0.0,-1.1005,-1.1563,-1.1013,-0.7168,0.0,0.0,0.0,0.0,0.0,0.0,0.0,0.0,0.0,0.0,0.0,0.0,0.0,0.0,0.0,0.0,0.0,0.0,0.0,0.0,0.0,0.0,0.0,0.0,0.0,0.0,0.0,0.0,0.0,0.0,0.0,0.0,0.0,0.0,0.0,0.0,0.0,0.0,0.0,0.0,0.0,0.0,0.0,0.0,0.0,0.0,0.0,0.0,0.0,0.0,0.0,0.0,0.0,0.0,0.0,0.0,0.0,0.0,0.0,0.0,0.0,0.0,0.0,0.0,0.0,0.0,0.0,0.0,0.0,0.0,0.0,0.0,0.0,0.0,0.0,0.0,0.0,0.0,0.0,0.0,0.0,0.0,0.0,0.0,0.0,0.0,0.0,0.0,0.0,0.0,0.0,0.0,0.0,0.0,0.0,0.0,0.0,0.0,0.0,0.0,0.0,0.0,0.0,0.0,0.0,0.0,0.0,0.0,0.0,0.0,0.0,0.0,0.0,0.0,0.0,-0.9259,0.0,0.0,0.0,0.0,0.0,0.0,0.0,0.0,0.0,0.0,0.0,0.0,0.0,0.0,0.0,0.0,0.0,0.0,0.0,0.0,0.0,0.0,0.0,0.0,0.0,0.0,0.0,0.0,0.0,0.0,0.0,0.0,0.0,0.0,0.0,0.0,0.0,0.0,0.0,0.0,0.0,0.0,0.0,0.0,0.0,0.0,0.0,0.0,0.0,0.0,0.0,0.0,0.0,0.0,0.0,0.0,0.0,0.0,0.0,0.0,0.0,0.0,0.0,0.0,0.0,0.0,0.0,0.0,0.0,0.0,0.0,0.0,0.0,0.0,0.0,0.0,0.0,0.0,0.0,0.0,0.0,0.0,0.0,0.0,0.0,0.0,0.0,0.0,0.0,0.0,0.0,0.0,0.0,0.0,0.0,0.0,0.0,0.0,0.0,0.0,0.0,0.0,0.0,0.0,0.0,0.0,0.0,0.0,0.0,0.0,0.0,0.0,0.0,0.0,-1.2765,-1.0728,0.0,0.0,0.0,0.0,0.0,0.0,0.0,0.0,0.0,0.0,0.0,0.0,0.0,0.0,0.0,0.0,0.0,0.0,0.0,0.0,0.0,0.0,0.0,0.0,0.0,0.0,0.0,0.0,0.0,0.0,0.0,0.0,0.0,0.0,0.0,0.0,0.0,0.0,0.0,0.0,0.0,0.0,0.0,0.0,0.0,0.0,0.0,0.0,0.0,0.0,0.0,0.0,0.0,0.0,0.0,0.0,0.0,0.0,0.0,0.0,0.0,0.0,0.0,0.0,0.0,0.0,0.0,0.0,0.0,0.0,0.0,0.0,0.0,0.0,0.0,0.0,0.0,0.0,0.0,0.0,0.0,0.0,0.0,0.0,0.0,0.0,0.0,0.0,0.0,0.0,0.0,0.0,0.0,0.0,0.0,0.0,0.0,0.0,0.0,0.0,0.0,0.0,0.0,0.0,0.0,0.0,0.0,0.0,0.0,0.0,0.0,0.0,0.0,0.0,0.0,0.0,0.0,0.0,0.0,0.0,0.0,0.0,0.0,0.0,0.0,0.0,0.0,0.0,0.0,0.0,0.0,0.0,0.0,0.0,0.0,0.0,0.0,0.0,0.0,0.0,0.0,0.0,0.0,0.0,0.0,0.0,0.0,0.0,0.0,0.0,0.0,0.0,0.0,0.0,0.0,0.0,0.0,0.0,0.0,0.0,0.0,0.0,0.0,0.0,0.0,0.0,0.0,0.0,0.0,0.0,0.0,0.0,0.0,0.0,0.0,0.0,0.0,0.0,0.0,0.0,0.0,0.0,0.0,0.0,0.0,0.0,0.0,0.0,0.0,0.0,0.0,0.0,0.0,0.0,0.0,0.0,0.0,0.0,0.0,0.0,0.0,0.0,0.0,0.0,0.0,0.0,0.0,0.0,0.0,0.0,0.0,0.0,0.0,0.0,0.0,0.0,0.0,0.0,0.0,0.0,0.0,0.0,0.0,0.0,0.0,0.0,0.0,0.0,0.0,0.0,0.0,0.0,0.0,0.0,0.0,0.0,0.0,0.0,0.0,0.0,0.0,0.0,0.0,0.0,0.0,0.0,0.0,0.0,0.0,0.0,0.0,0.0,0.0,0.0,0.0,0.0,0.0,0.0,0.0,0.0,0.0,0.0,0.0,0.0,0.0,0.0,0.0,0.0,0.0,0.0,0.0,0.0,0.0,0.0,0.0,0.0,0.0,0.0,0.0,0.0,0.0,0.0,0.0,0.0,0.0,0.0,0.0,0.0,0.0,0.0,0.0,0.0,0.0,0.0,0.0,0.0,0.0,0.0,0.0,0.0,0.0,0.0,0.0,0.0,0.0,0.0,0.0,0.0,0.0,0.0,0.0,0.0,0.0,0.0,0.0,0.0,0.0,0.0,0.0,0.0,0.0,0.0,0.0,0.0,0.0,0.0,0.0,0.0,0.0,0.0,0.0,0.0,0.0,0.0,0.0,0.0,0.0,0.0,0.0,0.0,0.0,0.0,0.0,0.0,0.0,0.0,0.0,0.0,0.0,0.0,0.0,0.0,0.0,0.0,0.0,0.0,0.0,0.0,0.0,0.0,0.0,0.0,0.0,0.0,0.0,0.0,0.0,0.0,0.0,0.0,0.0,0.0,0.0,0.0,0.0,0.0,0.0,0.0,0.0,0.0,0.0,0.0,0.0,0.0,0.0,0.0,0.0,0.0,0.0,0.0,0.0,0.0,0.0,0.0,0.0,0.0,0.0,0.0,0.0,0.0,0.0,0.0,0.0,0.0,0.0,0.0,0.0,0.0,0.0,0.0,0.0,0.0,0.0,0.0,0.0,0.0,0.0,0.0,0.0,0.0,0.0,0.0,0.0,0.0,0.0,0.0,0.0,0.0,0.0,0.0,0.0,0.0,0.0,0.0,0.0,0.0,0.0,0.0,0.0,0.0,0.0,0.0,0.0,0.0,0.0,0.0,0.0,0.0,0.0,0.0,0.0,0.0,0.0,0.0,0.0,0.0,0.0,0.0,0.0,0.0,0.0,0.0,0.0,0.0,0.0,0.0,0.0,0.0,0.0,0.0,0.0,0.0,0.0,0.0,0.0,0.0,0.0,0.0,0.0,0.0,0.0,0.0,0.0,0.0,0.0,0.0,0.0,0.0,0.0,0.0,0.0,0.0,0.0,0.0,0.0,0.0,0.0,0.0,0.0,0.0,0.0,0.0,0.0,0.0,0.0,0.0,0.0,0.0,0.0,0.0,0.0,0.0,0.0,0.0,0.0,0.0,0.0,0.0,0.0,0.0,0.0,0.0,0.0,0.0,0.0,0.0,0.0,0.0,0.0,0.0,0.0,0.0,0.0,0.0,0.0,0.0,0.0,0.0,0.0,0.0,0.0,0.0,0.0,0.0,0.0,0.0,0.0,0.0,0.0,0.0,0.0,0.0,0.0,0.0,0.0,0.0,0.0,0.0,0.0,0.0,0.0,0.0,0.0,0.0,0.0,0.0,0.0,0.0,0.0,0.0,0.0,0.0,0.0,0.0,0.0,0.0,0.0,0.0,0.0,0.0,0.0,0.0,0.0,0.0,0.0,0.0,0.0,0.0,0.0,0.0,0.0,0.0,0.0,0.0,0.0,0.0,0.0,0.0,0.0,0.0,0.0,0.0,0.0,0.0,0.0,0.0,0.0,0.0,0.0,0.0,0.0,0.0,0.0,0.0,0.0,0.0,0.0,0.0,0.0,0.0,0.0,0.0,0.0,0.0,0.0,0.0,0.0,0.0,0.0,0.0,0.0,0.0,0.0,0.0,0.0,0.0,0.0,0.0,0.0,0.0,0.0,0.0,0.0,0.0,0.0,0.0,0.0,0.0,0.0,0.0,0.0,0.0,0.0,0.0,0.0,0.0,0.0,0.0,0.0,0.0,0.0,0.0,0.0,0.0,0.0,0.0,0.0,0.0,0.0,0.0,0.0,0.0,0.0,0.0,0.0,0.0,0.0,0.0,0.0,0.0,0.0,0.0,0.0,0.0,0.0,0.0,-0.1766,-0.5706,-0.8893,0.0,0.0,0.0,0.0,0.0,0.0,0.0,0.0,0.0,0.0,0.0,-0.207,0.0,0.0,0.0,0.0,0.0,0.0,0.0,0.0,0.0,0.0,0.0,0.0,0.0,0.0,0.0,0.0,0.0,0.0,0.0,0.0,0.0,0.0,0.0,0.0,0.0,0.0,0.0,0.0,0.0,0.0,0.0,0.0,0.0,0.0,0.0,0.0,0.0,0.0,0.0,0.0,0.0,0.0,0.0,0.0,0.0,0.0,0.0,0.0,0.0,0.0,0.0,0.0,0.0,0.0,0.0,0.0,0.0,0.0,0.0,0.0,0.0,0.0,0.0,0.0,0.0,0.0,0.0,0.0,0.0,0.0,0.0,0.0,0.0,0.0,0.0,0.0,0.0,0.0,0.0,0.0,0.0,0.0,0.0,0.0,0.0,0.0,0.0,0.0,0.0,0.0,0.0,0.0,0.0,0.0,0.0,0.0,0.0,0.0,0.0,0.0,0.0,-0.304,-1.0174,-1.0643,0.0,0.0,0.0,0.0,0.0,0.0,0.0,0.0,0.0,0.0,-1.1384,-0.3703,0.0,0.0,0.0,0.0,0.0,0.0,0.0,0.0,0.0,0.0,0.0,0.0,0.0,0.0,0.0,0.0,0.0,0.0,0.0,0.0,0.0,0.0,0.0,0.0,0.0,0.0,0.0,0.0,0.0,0.0,0.0,0.0,0.0,0.0,0.0,0.0,0.0,0.0,0.0,0.0,0.0,0.0,0.0,0.0,0.0,0.0,0.0,0.0,0.0,0.0,0.0,0.0,0.0,0.0,0.0,0.0,0.0,0.0,0.0,0.0,0.0,0.0,0.0,0.0,0.0,0.0,0.0,0.0,0.0,0.0,0.0,0.0,0.0,0.0,0.0,0.0,0.0,0.0,0.0,0.0,0.0,0.0,0.0,0.0,0.0,0.0,0.0,0.0,0.0,0.0,0.0,0.0,0.0,0.0,0.0,0.0,0.0,0.0,0.0,0.0,0.0,-0.3027,-1.018,-1.0724,-1.0724,0.0,0.0,0.0,0.0,0.0,0.0,0.0,0.0,0.0,-1.1482,-0.3576,0.0,0.0,0.0,0.0,0.0,0.0,0.0,0.0,0.0,0.0,0.0,0.0,0.0,0.0,0.0,0.0,0.0,0.0,0.0,0.0,0.0,0.0,0.0,0.0,0.0,0.0,0.0,0.0,0.0,0.0,0.0,0.0,0.0,0.0,0.0,0.0,0.0,0.0,0.0,0.0,0.0,0.0,0.0,0.0,0.0,0.0,0.0,0.0,0.0,0.0,0.0,0.0,0.0,0.0,0.0,0.0,0.0,0.0,0.0,0.0,0.0,0.0,0.0,0.0,0.0,0.0,0.0,0.0,0.0,0.0,0.0,0.0,0.0,0.0,0.0,0.0,0.0,0.0,0.0,0.0,0.0,0.0,0.0,0.0,0.0,0.0,0.0,0.0,0.0,0.0,0.0,0.0,0.0,0.0,0.0,0.0,0.0,0.0,0.0,0.0,-0.426,-0.7913,-1.0478,-1.0677,-1.0717,-1.0717,0.0,0.0,0.0,0.0,0.0,0.0,0.0,-1.096,-1.1585,-1.0324,-0.6208,0.0,0.0,0.0,0.0,0.0,0.0,0.0,0.0,0.0,0.0,0.0,0.0,0.0,0.0,0.0,0.0,0.0,0.0,0.0,0.0,0.0,0.0,0.0,0.0,0.0,0.0,0.0,0.0,0.0,0.0,0.0,0.0,0.0,0.0,0.0,0.0,0.0,0.0,0.0,0.0,0.0,0.0,0.0,0.0,0.0,0.0,0.0,0.0,0.0,0.0,0.0,0.0,0.0,0.0,0.0,0.0,0.0,0.0,0.0,0.0,0.0,0.0,0.0,0.0,0.0,0.0,0.0,0.0,0.0,0.0,0.0,0.0,0.0,0.0,0.0,0.0,0.0,0.0,0.0,0.0,0.0,0.0,0.0,0.0,0.0,0.0,0.0,0.0,0.0,0.0,0.0,0.0,0.0,0.0,0.0,0.0,0.0,0.0,0.0,-0.6532,-1.0719,-1.0726,-1.0677,-1.0717,-1.0717,-1.0717,0.0,0.0,0.0,0.0,0.0,0.0,0.0,0.0,0.0,-0.9702,0.0,0.0,0.0,0.0,0.0,0.0,0.0,0.0,0.0,0.0,0.0,0.0,0.0,0.0,0.0,0.0,0.0,0.0,0.0,0.0,0.0,0.0,0.0,0.0,0.0,0.0,0.0,0.0,0.0,0.0,0.0,0.0,0.0,0.0,0.0,0.0,0.0,0.0,0.0,0.0,0.0,0.0,0.0,0.0,0.0,0.0,0.0,0.0,0.0,0.0,0.0,0.0,0.0,0.0,0.0,0.0,0.0,0.0,0.0,0.0,0.0,0.0,0.0,0.0,0.0,0.0,0.0,0.0,0.0,0.0,0.0,0.0,0.0,0.0,0.0,0.0,0.0,0.0,0.0,0.0,0.0,0.0,0.0,0.0,0.0,0.0,0.0,0.0,0.0,0.0,0.0,0.0,0.0,0.0,0.0,0.0,0.0,0.0,0.0,-0.6494,-1.0761,-1.0717,-1.0717,-1.0717,-1.0717,-1.0717,0.0,0.0,0.0,0.0,0.0,0.0,0.0,0.0,0.0,-0.9497,0.0,0.0,0.0,0.0,0.0,0.0,0.0,0.0,0.0,0.0,0.0,0.0,0.0,0.0,0.0,0.0,0.0,0.0,0.0,0.0,0.0,0.0,0.0,0.0,0.0,0.0,0.0,0.0,0.0,0.0,0.0,0.0,0.0,0.0,0.0,0.0,0.0,0.0,0.0,0.0,0.0,0.0,0.0,0.0,0.0,0.0,0.0,0.0,0.0,0.0,0.0,0.0,0.0,0.0,0.0,0.0,0.0,0.0,0.0,0.0,0.0,0.0,0.0,0.0,0.0,0.0,0.0,0.0,0.0,0.0,0.0,0.0,0.0,0.0,0.0,0.0,0.0,0.0,0.0,0.0,0.0,0.0,0.0,0.0,0.0,0.0,0.0,0.0,0.0,0.0,0.0,0.0,0.0,0.0,0.0,0.0,0.0,0.0,0.0,-0.6502,-1.0711,-1.0717,-1.0717,-1.0717,-1.0717,-1.0717,-1.0717,0.0,0.0,0.0,0.0,0.0,0.0,0.0,0.0,0.0,0.0,0.0,0.0,0.0,0.0,0.0,0.0,0.0,0.0,0.0,0.0,0.0,0.0,0.0,0.0,0.0,0.0,0.0,0.0,0.0,0.0,0.0,0.0,0.0,0.0,0.0,0.0,0.0,0.0,0.0,0.0,0.0,0.0,0.0,0.0,0.0,0.0,0.0,0.0,0.0,0.0,0.0,0.0,0.0,0.0,0.0,0.0,0.0,0.0,0.0,0.0,0.0,0.0,0.0,0.0,0.0,0.0,0.0,0.0,0.0,0.0,0.0,0.0,0.0,0.0,0.0,0.0,0.0,0.0,0.0,0.0,0.0,0.0,0.0,0.0,0.0,0.0,0.0,0.0,0.0,0.0,0.0,0.0,0.0,0.0,0.0,0.0,0.0,0.0,0.0,0.0,0.0,0.0,0.0,0.0,0.0,0.0,0.0,0.0,-0.827,-1.0744,-1.0724,-1.0717,-1.0717,-1.0717,-1.0717,-1.0717,0.0,0.0,0.0,0.0,0.0,0.0,0.0,0.0,0.0,0.0,0.0,0.0,0.0,0.0,0.0,0.0,0.0,0.0,0.0,0.0,0.0,0.0,0.0,0.0,0.0,0.0,0.0,0.0,0.0,0.0,0.0,0.0,0.0,0.0,0.0,0.0,0.0,0.0,0.0,0.0,0.0,0.0,0.0,0.0,0.0,0.0,0.0,0.0,0.0,0.0,0.0,0.0,0.0,0.0,0.0,0.0,0.0,0.0,0.0,0.0,0.0,0.0,0.0,0.0,0.0,0.0,0.0,0.0,0.0,0.0,0.0,0.0,0.0,0.0,0.0,0.0,0.0,0.0,0.0,0.0,0.0,0.0,0.0,0.0,0.0,0.0,0.0,0.0,0.0,0.0,0.0,0.0,0.0,0.0,0.0,0.0,0.0,0.0,0.0,0.0,0.0,0.0,0.0,0.0,0.0,0.0,0.0,0.0,-1.0751,-1.0744,-1.0724,-1.0717,-1.0717,-1.0717,-1.0717,-1.0717,-1.0717,0.0,0.0,0.0,0.0,0.0,0.0,0.0,0.0,0.0,0.0,0.0,0.0,0.0,0.0,0.0,0.0,0.0,0.0,0.0,0.0,0.0,0.0,0.0,0.0,0.0,0.0,0.0,0.0,0.0,0.0,0.0,0.0,0.0,0.0,0.0,0.0,0.0,0.0,0.0,0.0,0.0,0.0,0.0,0.0,0.0,0.0,0.0,0.0,0.0,0.0,0.0,0.0,0.0,0.0,0.0,0.0,0.0,0.0,0.0,0.0,0.0,0.0,0.0,0.0,0.0,0.0,0.0,0.0,0.0,0.0,0.0,0.0,0.0,0.0,0.0,0.0,0.0,0.0,0.0,0.0,0.0,0.0,0.0,0.0,0.0,0.0,0.0,0.0,0.0,0.0,0.0,0.0,0.0,0.0,0.0,0.0,0.0,0.0,0.0,0.0,0.0,0.0,0.0,0.0,0.0,0.0,0.0,0.0,-1.0724,-1.0717,-1.0717,-1.0717,-1.0717,-1.0717,-1.0717,-1.0717,-1.0717,0.0,0.0,0.0,0.0,0.0,0.0,0.0,0.0,0.0,0.0,0.0,0.0,0.0,0.0,0.0,0.0,0.0,0.0,0.0,0.0,0.0,0.0,0.0,0.0,0.0,0.0,0.0,0.0,0.0,0.0,0.0,0.0,0.0,0.0,0.0,0.0,0.0,0.0,0.0,0.0,0.0,0.0,0.0,0.0,0.0,0.0,0.0,0.0,0.0,0.0,0.0,0.0,0.0,0.0,0.0,0.0,0.0,0.0,0.0,0.0,0.0,0.0,0.0,0.0,0.0,0.0,0.0,0.0,0.0,0.0,0.0,0.0,0.0,0.0,0.0,0.0,0.0,0.0,0.0,0.0,0.0,0.0,0.0,0.0,0.0,0.0,0.0,0.0,0.0,0.0,0.0,0.0,0.0,0.0,0.0,0.0,0.0,0.0,0.0,0.0,0.0,0.0,0.0,0.0,0.0,0.0,0.0,0.0,0.0,0.0,-1.0738,-1.0738,-1.0724,-1.0717,-1.0717,-1.0717,-1.0717,0.0,0.0,0.0,0.0,0.0,0.0,0.0,0.0,0.0,0.0,0.0,0.0,0.0,0.0,0.0,0.0,0.0,0.0,0.0,0.0,0.0,0.0,0.0,0.0,0.0,0.0,0.0,0.0,0.0,0.0,0.0,0.0,0.0,0.0,0.0,0.0,0.0,0.0,0.0,0.0,0.0,0.0,0.0,0.0,0.0,0.0,0.0,0.0,0.0,0.0,0.0,0.0,0.0,0.0,0.0,0.0,0.0,0.0,0.0,0.0,0.0,0.0,0.0,0.0,0.0,0.0,0.0,0.0,0.0,0.0,0.0,0.0,0.0,0.0,0.0,0.0,0.0,0.0,0.0,0.0,0.0,0.0,0.0,0.0,0.0,0.0,0.0,0.0,0.0,0.0,0.0,0.0,0.0,0.0,0.0,0.0,0.0,0.0,0.0,0.0,0.0,0.0,0.0,0.0,0.0,0.0,0.0,0.0,0.0,0.0,-1.0618,-1.0758,-1.0751,-1.0717,-1.0744,-1.0751,0.0,0.0,0.0,0.0,0.0,0.0,0.0,0.0,0.0,0.0,0.0,0.0,0.0,0.0,0.0,0.0,0.0,0.0,0.0,0.0,0.0,0.0,0.0,0.0,0.0,0.0,0.0,0.0,0.0,0.0,0.0,0.0,0.0,0.0,0.0,0.0,0.0,0.0,0.0,0.0,0.0,0.0,0.0,0.0,0.0,0.0,0.0,0.0,0.0,0.0,0.0,0.0,0.0,0.0,0.0,0.0,0.0,0.0,0.0,0.0,0.0,0.0,0.0,0.0,0.0,0.0,0.0,0.0,0.0,0.0,0.0,0.0,0.0,0.0,0.0,0.0,0.0,0.0,0.0,0.0,0.0,0.0,0.0,0.0,0.0,0.0,0.0,0.0,0.0,0.0,0.0,0.0,0.0,0.0,0.0,0.0,0.0,0.0,0.0,0.0,0.0,0.0,0.0,0.0,0.0,0.0,0.0,-0.1145,0.0,0.0,0.0,-1.0725,-1.0719,-1.0724,-1.0719,-1.0719,-1.0717,0.0,0.0,0.0,0.0,0.0,0.0,0.0,0.0,0.0,0.0,0.0,0.0,0.0,0.0,0.0,0.0,0.0,0.0,0.0,0.0,0.0,0.0,0.0,0.0,0.0,0.0,0.0,0.0,0.0,0.0,0.0,0.0,0.0,0.0,0.0,0.0,0.0,0.0,0.0,0.0,0.0,0.0,0.0,0.0,0.0,0.0,0.0,0.0,0.0,0.0,0.0,0.0,0.0,0.0,0.0,0.0,0.0,0.0,0.0,0.0,0.0,0.0,0.0,0.0,0.0,0.0,0.0,0.0,0.0,0.0,0.0,0.0,0.0,0.0,0.0,0.0,0.0,0.0,0.0,0.0,0.0,0.0,0.0,0.0,0.0,0.0,0.0,0.0,0.0,0.0,0.0,0.0,0.0,0.0,0.0,0.0,0.0,0.0,0.0,0.0,0.0,0.0,0.0,0.0,0.0,0.0,0.0,0.0,0.0,0.0,0.0,0.0,-1.1152,-1.088,-1.0732,-1.0697,-1.0763,0.0,0.0,0.0,0.0,0.0,0.0,0.0,0.0,0.0,0.0,0.0,0.0,0.0,0.0,0.0,0.0,0.0,0.0,0.0,0.0,0.0,0.0,0.0,0.0,0.0,0.0,0.0,0.0,0.0,0.0,0.0,0.0,0.0,0.0,0.0,0.0,0.0,0.0,0.0,0.0,0.0,0.0,0.0,0.0,0.0,0.0,0.0,0.0,0.0,0.0,0.0,0.0,0.0,0.0,0.0,0.0,0.0,0.0,0.0,0.0,0.0,0.0,0.0,0.0,0.0,0.0,0.0,0.0,0.0,0.0,0.0,0.0,0.0,0.0,0.0,0.0,0.0,0.0,0.0,0.0,0.0,0.0,0.0,0.0,0.0,0.0,0.0,0.0,0.0,0.0,0.0,0.0,0.0,0.0,0.0,0.0,0.0,0.0,0.0,0.0,0.0,0.0,0.0,0.0,0.0,0.0,0.0,-0.2264,0.0,0.0,0.0,0.0,0.0,-1.0846,-1.0705,0.0,0.0,0.0,0.0,0.0,0.0,0.0,0.0,0.0,0.0,0.0,0.0,0.0,0.0,0.0,0.0,0.0,0.0,0.0,0.0,0.0,0.0,0.0,0.0,0.0,0.0,0.0,0.0,0.0,0.0,0.0,0.0,0.0,0.0,0.0,0.0,0.0,0.0,0.0,0.0,0.0,0.0,0.0,0.0,0.0,0.0,0.0,0.0,0.0,0.0,0.0,0.0,0.0,0.0,0.0,0.0,0.0,0.0,0.0,0.0,0.0,0.0,0.0,0.0,0.0,0.0,0.0,0.0,0.0,0.0,0.0,0.0,0.0,0.0,0.0,0.0,0.0,0.0,0.0,0.0,0.0,0.0,0.0,0.0,0.0,0.0,0.0,0.0,0.0,0.0,0.0,0.0,0.0,0.0,0.0,0.0,0.0,0.0,0.0,0.0,0.0,0.0,0.0,0.0,0.0,0.0,0.0,0.0,-0.0145,0.0,0.0,0.0,0.0,0.0,0.0,-1.0756,0.0,0.0,0.0,0.0,0.0,0.0,0.0,0.0,0.0,0.0,0.0,0.0,0.0,0.0,0.0,0.0,0.0,0.0,0.0,0.0,0.0,0.0,0.0,0.0,0.0,0.0,0.0,0.0,0.0,0.0,0.0,0.0,0.0,0.0,0.0,0.0,0.0,0.0,0.0,0.0,0.0,0.0,0.0,0.0,0.0,0.0,0.0,0.0,0.0,0.0,0.0,0.0,0.0,0.0,0.0,0.0,0.0,0.0,0.0,0.0,0.0,0.0,0.0,0.0,0.0,0.0,0.0,0.0,0.0,0.0,0.0,0.0,0.0,0.0,0.0,0.0,0.0,0.0,0.0,0.0,0.0,0.0,0.0,0.0,0.0,0.0,0.0,0.0,0.0,0.0,0.0,0.0,0.0,0.0,0.0,0.0,0.0,0.0,0.0,0.0,0.0,0.0,0.0,0.0,0.0,0.0,0.0,0.0,0.0,0.0,0.0,-0.119,0.0,0.0,0.0,0.0,0.0,0.0,0.0,0.0,0.0,0.0,0.0,0.0,0.0,0.0,0.0,0.0,0.0,0.0,0.0,0.0,0.0,0.0,0.0,0.0,0.0,0.0,0.0,0.0,0.0,0.0,0.0,0.0,0.0,0.0,0.0,0.0,0.0,0.0,0.0,0.0,0.0,0.0,0.0,0.0,0.0,0.0,0.0,0.0,0.0,0.0,0.0,0.0,0.0,0.0,-1.3462,0.0,0.0,0.0,0.0,0.0,0.0,0.0,0.0,0.0,0.0,0.0,0.0,0.0,0.0,0.0,0.0,0.0,0.0,0.0,0.0,0.0,0.0,0.0,0.0,0.0,0.0,0.0,0.0,0.0,0.0,0.0,0.0,0.0,0.0,0.0,0.0,0.0,0.0,0.0,0.0,0.0,0.0,0.0,0.0,0.0,0.0,0.0,0.0,0.0,0.0,0.0,0.0,0.0,0.0,0.0,0.0,0.0,0.0,0.0,0.0,0.0,0.0,0.0,0.0,0.0,0.0,-0.2781,0.0,0.0,0.0,0.0,0.0,0.0,0.0,0.0,0.0,0.0,0.0,0.0,0.0,0.0,0.0,0.0,0.0,0.0,0.0,0.0,0.0,0.0,0.0,0.0,0.0,0.0,0.0,0.0,0.0,0.0,0.0,0.0,0.0,0.0,0.0,0.0,0.0,0.0,0.0,0.0,0.0,0.0,0.0,0.0,0.0,0.0,0.0,-1.3305,0.0,0.0,0.0,0.0,0.0,0.0,0.0,0.0,0.0,0.0,0.0,0.0,0.0,0.0,0.0,0.0,0.0,0.0,0.0,0.0,0.0,0.0,0.0,0.0,0.0,0.0,0.0,0.0,0.0,0.0,0.0,0.0,0.0,0.0,0.0,0.0,0.0,0.0,0.0,0.0,0.0,0.0,0.0,0.0,0.0,0.0,0.0,0.0,0.0,0.0,0.0,0.0,0.0,0.0,0.0,0.0,0.0,0.0,0.0,0.0,0.0,0.0,0.0,0.0,0.0,0.0,0.0,0.0,0.0,0.0,0.0,0.0,0.0,0.0,0.0,0.0,0.0,0.0,0.0,0.0,0.0,0.0,0.0,0.0,0.0,0.0,0.0,0.0,0.0,0.0,0.0,0.0,0.0,0.0,0.0,0.0,0.0,0.0,0.0,0.0,0.0,0.0,0.0,0.0,0.0,0.0,0.0,0.0,0.0,0.0,0.0,0.0,0.0,0.0,0.0,0.0,0.0,0.0,0.0,0.0,0.0,-0.6322,0.0,0.0,0.0,0.0,0.0,0.0,0.0,0.0,0.0,0.0,0.0,0.0,0.0,0.0,0.0,0.0,0.0,0.0,0.0,0.0,0.0,0.0,0.0,0.0,0.0,0.0,0.0,0.0,0.0,0.0,0.0,0.0,0.0,0.0,0.0,0.0,0.0,0.0,0.0,0.0,0.0,0.0,0.0,0.0,0.0,0.0,0.0,0.0,0.0,0.0,0.0,0.0,0.0,0.0,0.0,0.0,0.0,0.0,0.0,-0.2972,0.0,0.0,0.0,0.0,0.0,0.0,0.0,0.0,0.0,0.0,0.0,0.0,0.0,0.0,0.0,0.0,0.0,0.0,0.0,0.0,0.0,0.0,0.0,0.0,0.0,0.0,0.0,0.0,0.0,0.0,0.0,0.0,0.0,0.0,0.0,0.0,0.0,0.0,0.0,0.0,0.0,0.0,0.0,0.0,0.0,0.0,0.0,0.0,0.0,0.0,0.0,-1.4029,0.0,0.0,-1.5326,-0.5996,0.0,0.0,0.0,0.0,0.0,0.0,0.0,0.0,0.0,0.0,0.0,0.0,0.0,0.0,0.0,0.0,0.0,0.0,0.0,0.0,0.0,0.0,0.0,0.0,0.0,0.0,0.0,0.0,0.0,0.0,0.0,0.0,0.0,0.0,0.0,0.0,0.0,0.0,0.0,0.0,0.0,0.0,0.0,0.0,0.0,0.0,0.0,0.0,0.0,0.0,0.0,0.0,0.0,0.0,0.0,0.0,0.0,0.0,0.0,-0.0,0.0,0.0,0.0,0.0,0.0,0.0,0.0,0.0,0.0,0.0,0.0,0.0,0.0,0.0,0.0,0.0,0.0,0.0,0.0,0.0,0.0,0.0,0.0,0.0,0.0,0.0,0.0,0.0,0.0,0.0,0.0,0.0,0.0,0.0,0.0,0.0,0.0,0.0,0.0,0.0,0.0,0.0,0.0,0.0,0.0,0.0,0.0,0.0,0.0,0.0,0.0,0.0,-1.4295,0.0,-1.4815,-0.5763,0.0,0.0,0.0,0.0,0.0,0.0,0.0,0.0,0.0,0.0,0.0,0.0,0.0,0.0,0.0,0.0,0.0,0.0,0.0,0.0,0.0,0.0,0.0,0.0,0.0,0.0,0.0,0.0,0.0,0.0,0.0,0.0,0.0,0.0,0.0,0.0,0.0,0.0,0.0,0.0,0.0,0.0,0.0,0.0,0.0,0.0,0.0,0.0,0.0,0.0,0.0,0.0,0.0,0.0,0.0,0.0,0.0,0.0,0.0,0.0,0.0,0.0,0.0,0.0,0.0,0.0,0.0,0.0,0.0,0.0,0.0,0.0,0.0,0.0,0.0,0.0,0.0,0.0,0.0,0.0,0.0,0.0,0.0,0.0,0.0,0.0,0.0,0.0,0.0,0.0,0.0,0.0,0.0,0.0,0.0,0.0,0.0,0.0,0.0,0.0,0.0,0.0,0.0,0.0,0.0,0.0,0.0,0.0,0.0,0.0,0.0,0.0,0.0,0.0,-1.2487,-0.488,0.0,0.0,0.0,0.0,0.0,0.0,0.0,0.0,0.0,0.0,0.0,0.0,0.0,0.0,0.0,0.0,0.0,0.0,0.0,0.0,0.0,0.0,0.0,0.0,0.0,0.0,0.0,0.0,0.0,0.0,0.0,0.0,0.0,0.0,0.0,0.0,0.0,0.0,0.0,0.0,0.0,0.0,0.0,0.0,0.0,0.0,0.0,0.0,0.0,0.0,0.0,0.0,0.0,0.0,0.0,0.0,0.0,0.0,0.0,0.0,0.0,0.0,0.0,0.0,0.0,0.0,0.0,0.0,0.0,0.0,0.0,0.0,0.0,0.0,0.0,0.0,0.0,0.0,0.0,0.0,0.0,0.0,0.0,0.0,0.0,0.0,0.0,0.0,0.0,0.0,0.0,0.0,0.0,0.0,0.0,0.0,0.0,0.0,0.0,0.0,0.0,0.0,0.0,0.0,0.0,0.0,0.0,0.0,0.0,0.0,0.0,0.0,0.0,0.0,0.0,0.0,0.0,0.0,0.0,0.0,0.0,0.0,0.0,0.0,0.0,0.0,0.0,0.0,0.0,0.0,0.0,0.0,0.0,0.0,0.0,0.0,0.0,0.0,0.0,0.0,0.0,0.0,0.0,0.0,0.0,0.0,0.0,0.0,0.0,0.0,0.0,0.0,0.0,0.0,0.0,0.0,0.0,0.0,0.0,0.0,0.0,0.0,0.0,0.0,0.0,0.0,0.0,0.0,0.0,0.0,0.0,0.0,0.0,0.0,0.0,0.0,0.0,0.0,0.0,0.0,0.0,0.0,0.0,0.0,0.0,0.0,0.0,0.0,0.0,0.0,0.0,0.0,0.0,0.0,0.0,0.0,0.0,0.0,0.0,0.0,0.0,0.0,0.0,0.0,0.0,0.0,0.0,0.0,0.0,0.0,0.0,0.0,0.0,0.0,0.0,0.0,0.0,0.0,0.0,0.0,0.0,0.0,0.0,0.0,0.0,0.0,0.0,0.0,0.0,0.0,0.0,0.0,0.0,0.0,0.0,0.0,0.0,0.0,0.0,0.0,0.0,0.0,0.0,0.0,0.0,0.0,0.0,0.0,0.0,0.0,0.0,0.0,0.0,0.0,0.0,0.0,0.0,0.0,0.0,0.0,0.0,0.0,0.0,0.0,0.0,0.0,0.0,0.0,0.0,0.0,0.0,0.0,0.0,0.0,0.0,0.0,0.0,0.0,0.0,0.0,0.0,0.0,0.0,0.0,0.0,0.0,0.0,0.0,0.0,0.0,0.0,0.0,0.0,0.0,0.0,0.0,0.0,0.0,0.0,0.0,0.0,0.0,0.0,0.0,0.0,0.0,0.0,0.0,0.0,0.0,0.0,0.0,0.0,0.0,0.0,0.0,0.0,0.0,0.0,0.0,0.0,0.0,0.0,0.0,0.0,0.0,0.0,0.0,0.0,0.0,0.0,0.0,0.0,0.0,0.0,0.0,0.0,0.0,0.0,0.0,0.0,0.0,0.0,0.0,0.0,0.0,0.0,0.0,0.0,0.0,0.0,0.0,0.0,0.0,0.0,0.0,0.0,0.0,0.0,0.0,0.0,0.0,0.0,0.0,0.0,0.0,0.0,0.0,0.0,0.0,0.0,0.0,0.0,0.0,0.0,0.0,0.0,0.0,0.0,0.0,0.0,0.0,0.0,0.0,0.0,0.0,0.0,0.0,0.0,0.0,0.0,0.0,0.0,0.0,0.0,0.0,0.0,0.0,0.0,0.0,0.0,0.0,0.0,0.0,0.0,0.0,0.0,0.0,0.0,0.0,0.0,0.0,0.0,0.0,0.0,0.0,0.0,0.0,0.0,0.0,0.0,0.0,0.0,0.0,0.0,0.0,0.0,0.0,0.0,0.0,0.0,0.0,0.0,0.0,0.0,0.0,0.0,0.0,0.0,0.0,0.0,0.0,0.0,0.0,0.0,0.0,0.0,0.0,0.0,0.0,0.0,0.0,0.0,0.0,0.0,0.0,0.0,0.0,0.0,0.0,0.0,0.0,0.0,-0.5674,0.0,0.0,0.0,0.0,0.0,0.0,0.0,0.0,0.0,0.0,0.0,0.0,0.0,0.0,0.0,0.0,0.0,0.0,0.0,0.0,0.0,0.0,0.0,0.0,0.0,0.0,0.0,0.0,0.0,0.0,0.0,0.0,0.0,0.0,0.0,0.0,0.0,0.0,0.0,0.0,0.0,0.0,0.0,0.0,0.0,0.0,0.0,0.0,0.0,0.0,0.0,0.0,0.0,0.0,0.0,0.0,0.0,0.0,0.0,0.0,0.0,0.0,0.0,0.0,0.0,0.0,0.0,0.0,0.0,0.0,0.0,0.0,0.0,0.0,0.0,0.0,0.0,0.0,0.0,0.0,0.0,0.0,0.0,0.0,0.0,0.0,0.0,0.0,0.0,0.0,0.0,0.0,0.0,0.0,0.0,0.0,0.0,0.0,0.0,0.0,0.0,0.0,0.0,0.0,0.0,0.0,0.0,0.0,0.0,0.0,0.0,0.0,0.0,0.0,0.0,0.0,0.0,0.0,0.0,0.0,0.0,0.0,0.0,0.0,0.0,0.0,0.0,0.0,0.0,0.0,0.0,0.0,0.0,0.0,0.0,0.0,0.0,0.0,0.0,0.0,0.0,0.0,0.0,0.0,0.0,0.0,0.0,0.0,0.0,0.0,0.0,0.0,0.0,0.0,0.0,0.0,0.0,0.0,0.0,0.0,0.0,0.0,0.0,0.0,0.0,0.0,0.0,0.0,0.0,0.0,0.0,0.0,0.0,0.0,0.0,0.0,0.0,0.0,0.0,0.0,0.0,0.0,0.0,0.0,0.0,0.0,0.0,0.0,0.0,0.0,0.0,0.0,0.0,0.0,0.0,0.0,0.0,0.0,0.0,0.0,0.0,0.0,0.0,0.0,0.0,0.0,0.0,0.0,0.0,0.0,0.0,0.0,0.0,0.0,0.0,0.0,0.0,0.0,0.0,0.0,0.0,0.0,0.0,0.0,0.0,0.0,0.0,0.0,0.0,-0.3112,-0.0332,0.0,0.0,0.0,0.0,0.0,0.0,0.0,0.0,0.0,0.0,0.0,0.0,0.0,0.0,0.0,0.0,0.0,0.0,0.0,0.0,0.0,0.0,0.0,0.0,0.0,0.0,0.0,0.0,0.0,0.0,0.0,0.0,0.0,0.0,0.0,0.0,0.0,0.0,0.0,0.0,0.0,0.0,0.0,0.0,0.0,0.0,0.0,0.0,0.0,0.0,0.0,0.0,0.0,0.0,0.0,0.0,0.0,0.0,0.0,0.0,0.0,0.0,0.0,0.0,0.0,0.0,0.0,0.0,0.0,0.0,0.0,0.0,0.0,0.0,0.0,0.0,0.0,0.0,0.0,0.0,0.0,0.0,0.0,0.0,0.0,0.0,0.0,0.0,0.0,0.0,0.0,0.0,0.0,0.0,0.0,0.0,0.0,0.0,0.0,0.0,0.0,0.0,0.0,0.0,0.0,0.0,0.0,0.0,0.0,0.0,0.0,0.0,0.0,-0.8343,-1.0404,-0.0999,0.0,0.0,0.0,0.0,0.0,0.0,0.0,0.0,0.0,0.0,0.0,0.0,0.0,0.0,0.0,0.0,0.0,0.0,0.0,0.0,0.0,0.0,0.0,0.0,0.0,0.0,0.0,0.0,0.0,0.0,0.0,0.0,0.0,0.0,0.0,0.0,0.0,0.0,0.0,0.0,0.0,0.0,0.0,0.0,0.0,0.0,0.0,0.0,0.0,0.0,0.0,0.0,0.0,0.0,0.0,0.0,0.0,0.0,0.0,0.0,0.0,0.0,0.0,0.0,0.0,0.0,0.0,0.0,0.0,0.0,0.0,0.0,0.0,0.0,0.0,0.0,0.0,0.0,0.0,0.0,0.0,0.0,0.0,0.0,0.0,0.0,0.0,0.0,0.0,0.0,0.0,0.0,0.0,0.0,0.0,0.0,0.0,0.0,0.0,0.0,0.0,0.0,0.0,0.0,0.0,0.0,0.0,0.0,0.0,0.0,0.0,0.0,0.0,0.0,-1.303,0.0,-0.3746,0.0,0.0,0.0,0.0,0.0,0.0,0.0,0.0,0.0,0.0,0.0,0.0,0.0,0.0,0.0,0.0,0.0,0.0,0.0,0.0,0.0,0.0,-0.0659,-0.8855,-1.2237,-1.1372,-0.3129,0.0,0.0,0.0,0.0,0.0,0.0,0.0,0.0,0.0,0.0,0.0,0.0,0.0,0.0,0.0,0.0,0.0,0.0,0.0,0.0,0.0,0.0,0.0,0.0,0.0,0.0,0.0,0.0,0.0,0.0,0.0,0.0,0.0,0.0,0.0,0.0,0.0,0.0,0.0,0.0,0.0,0.0,0.0,0.0,0.0,0.0,0.0,0.0,0.0,0.0,0.0,0.0,0.0,0.0,0.0,0.0,0.0,0.0,0.0,0.0,0.0,0.0,0.0,0.0,0.0,0.0,0.0,0.0,0.0,0.0,0.0,0.0,0.0,0.0,0.0,0.0,0.0,0.0,0.0,0.0,0.0,0.0,0.0,0.0,0.0,0.0,0.0,0.0,-0.9004,0.0,0.0,0.0,0.0,0.0,0.0,0.0,0.0,0.0,0.0,0.0,0.0,0.0,0.0,0.0,0.0,-0.0222,-0.4668,-0.664,-0.6347,-0.4176,-0.1979,-0.0659,-0.7981,-1.3838,-1.7053,-0.9627,-0.6719,-0.6269,-0.1568,0.0,0.0,0.0,0.0,0.0,0.0,0.0,0.0,0.0,0.0,0.0,0.0,0.0,0.0,0.0,0.0,0.0,0.0,0.0,0.0,0.0,0.0,0.0,0.0,0.0,0.0,0.0,0.0,0.0,0.0,0.0,0.0,0.0,0.0,0.0,0.0,0.0,0.0,0.0,0.0,0.0,0.0,0.0,0.0,0.0,0.0,0.0,0.0,0.0,0.0,0.0,0.0,0.0,0.0,0.0,0.0,0.0,0.0,0.0,0.0,0.0,0.0,0.0,0.0,0.0,0.0,0.0,0.0,0.0,0.0,0.0,0.0,0.0,0.0,0.0,0.0,0.0,0.0,0.0,0.0,0.0,0.0,0.0,0.0,0.0,-1.4785,-1.077,0.0,0.0,0.0,0.0,0.0,0.0,0.0,0.0,0.0,0.0,0.0,0.0,-0.0,-0.0888,-0.1331,-0.1553,-1.2321,-1.7229,-1.675,-1.1789,-0.6444,-0.1325,-0.1337,-0.7849,-1.788,-1.761,-1.7616,-1.6466,-0.5373,-0.0671,0.0,0.0,0.0,0.0,0.0,0.0,0.0,0.0,0.0,0.0,0.0,0.0,0.0,0.0,0.0,0.0,0.0,0.0,0.0,0.0,0.0,0.0,0.0,0.0,0.0,0.0,0.0,0.0,0.0,0.0,0.0,0.0,0.0,0.0,0.0,0.0,0.0,0.0,0.0,0.0,0.0,0.0,0.0,0.0,0.0,0.0,0.0,0.0,0.0,0.0,0.0,0.0,0.0,0.0,0.0,0.0,0.0,0.0,0.0,0.0,0.0,0.0,0.0,0.0,0.0,0.0,0.0,0.0,0.0,0.0,0.0,0.0,0.0,0.0,0.0,0.0,0.0,0.0,0.0,0.0,0.0,-0.5927,-1.1243,-1.4881,-1.4848,-1.3833,0.0,0.0,0.0,0.0,0.0,0.0,0.0,0.0,0.0,0.0,0.0,0.0,-0.0,-0.9184,-1.3694,-1.3694,-1.1871,-1.343,-1.7686,-1.6138,-1.473,-1.3733,-1.3601,-1.5424,-1.7632,-1.452,-1.5243,-1.7563,-1.4814,-0.7828,0.0,0.0,0.0,0.0,0.0,0.0,0.0,0.0,0.0,0.0,0.0,0.0,0.0,0.0,0.0,0.0,0.0,0.0,0.0,0.0,0.0,0.0,0.0,0.0,0.0,0.0,0.0,0.0,0.0,0.0,0.0,0.0,0.0,0.0,0.0,0.0,0.0,0.0,0.0,0.0,0.0,0.0,0.0,0.0,0.0,0.0,0.0,0.0,0.0,0.0,0.0,0.0,0.0,0.0,0.0,0.0,0.0,0.0,0.0,0.0,0.0,0.0,0.0,0.0,0.0,0.0,0.0,0.0,0.0,0.0,0.0,0.0,0.0,0.0,0.0,0.0,0.0,0.0,0.0,0.0,0.0,-0.2651,-0.7529,-1.535,-1.578,-1.5428,-1.5167,0.0,0.0,-0.0195,0.0,-0.2491,-0.7944,-0.8219,-0.5537,-0.0,0.0,0.0,-0.0224,-1.2144,-1.7847,-1.784,-1.4575,-1.4747,-1.786,-1.7686,-1.7632,-1.7758,-1.788,-1.7914,-1.7652,-1.5413,-1.5898,-1.7968,-1.7968,-1.3668,-0.7379,0.0,0.0,0.0,0.0,0.0,0.0,0.0,0.0,0.0,0.0,0.0,0.0,0.0,0.0,0.0,0.0,0.0,0.0,0.0,0.0,0.0,0.0,0.0,0.0,0.0,0.0,0.0,0.0,0.0,0.0,0.0,0.0,0.0,0.0,0.0,0.0,0.0,0.0,0.0,0.0,0.0,0.0,0.0,0.0,0.0,0.0,0.0,0.0,0.0,0.0,0.0,0.0,0.0,0.0,0.0,0.0,0.0,0.0,0.0,0.0,0.0,0.0,0.0,0.0,0.0,0.0,0.0,0.0,0.0,0.0,0.0,0.0,0.0,0.0,0.0,0.0,0.0,0.0,0.0,0.0,0.0,-0.4195,-1.4676,-1.6381,-1.632,-1.5334,-1.581,-1.1866,0.0,-0.2086,-0.7022,-1.6176,-1.7344,-1.2246,-0.0224,0.0,0.0,-0.0224,-1.1235,-1.6907,-1.7827,-1.7968,-1.7846,-1.7738,-1.7826,-1.7806,-1.7751,-1.788,-1.7948,-1.7982,-1.7948,-1.7948,-1.7968,-1.7935,-1.7968,-1.6206,0.0,0.0,0.0,0.0,0.0,0.0,0.0,0.0,0.0,0.0,0.0,0.0,0.0,0.0,0.0,0.0,0.0,0.0,0.0,0.0,0.0,0.0,0.0,0.0,0.0,0.0,0.0,0.0,0.0,0.0,0.0,0.0,0.0,0.0,0.0,0.0,0.0,0.0,0.0,0.0,0.0,0.0,0.0,0.0,0.0,0.0,0.0,0.0,0.0,0.0,0.0,0.0,0.0,0.0,0.0,0.0,0.0,0.0,0.0,0.0,0.0,0.0,0.0,0.0,0.0,0.0,0.0,0.0,0.0,0.0,0.0,0.0,0.0,0.0,0.0,0.0,0.0,0.0,0.0,0.0,0.0,-0.2677,-0.9135,-1.4218,-1.6918,-1.6727,-1.5708,-1.2605,-0.7546,-1.2142,-1.3567,-1.04,-1.5231,-1.2246,-0.0224,0.0,0.0,-0.0,-0.6937,-1.2999,-1.8002,-1.7914,-1.786,-1.7846,-1.786,-1.786,-1.7846,-1.786,-1.7894,-1.7948,-1.7935,-1.8002,-1.8111,-1.7982,-1.7793,-1.697,0.0,0.0,0.0,0.0,0.0,0.0,0.0,0.0,0.0,0.0,0.0,0.0,0.0,0.0,0.0,0.0,0.0,0.0,0.0,0.0,0.0,0.0,0.0,0.0,0.0,0.0,0.0,0.0,0.0,0.0,0.0,0.0,0.0,0.0,0.0,0.0,0.0,0.0,0.0,0.0,0.0,0.0,0.0,0.0,0.0,0.0,0.0,0.0,0.0,0.0,0.0,0.0,0.0,0.0,0.0,0.0,0.0,0.0,0.0,0.0,0.0,0.0,0.0,0.0,0.0,0.0,0.0,0.0,0.0,0.0,0.0,0.0,0.0,0.0,0.0,0.0,0.0,0.0,0.0,0.0,0.0,-0.2322,-0.8119,-1.3846,-1.7216,-1.6985,-1.6287,-1.3532,-0.8263,-1.1143,-1.1699,-0.8985,-1.4646,-1.5202,-0.9627,-0.3129,0.0,-0.0,-0.6039,-1.2084,-1.8002,-1.7894,-1.786,-1.786,-1.786,-1.786,-1.786,-1.786,-1.788,-1.7894,-1.7894,-1.7948,-1.8023,-1.7935,-1.7968,-1.761,0.0,0.0,0.0,0.0,0.0,0.0,0.0,0.0,0.0,0.0,0.0,0.0,0.0,0.0,0.0,0.0,0.0,0.0,0.0,0.0,0.0,0.0,0.0,0.0,0.0,0.0,0.0,0.0,0.0,0.0,0.0,0.0,0.0,0.0,0.0,0.0,0.0,0.0,0.0,0.0,0.0,0.0,0.0,0.0,0.0,0.0,0.0,0.0,0.0,0.0,0.0,0.0,0.0,0.0,0.0,0.0,0.0,0.0,0.0,0.0,0.0,0.0,0.0,0.0,0.0,0.0,0.0,0.0,0.0,0.0,0.0,0.0,0.0,0.0,0.0,0.0,0.0,0.0,0.0,0.0,0.0,-0.1722,-0.6308,-1.3336,-1.7433,-1.7127,-1.7127,-1.4975,-1.0032,-1.0586,-1.0933,-1.107,-1.5383,-1.7935,-1.7982,-0.7379,-0.1342,-0.0,-0.4694,-1.0743,-1.8002,-1.7914,-1.788,-1.786,-1.786,-1.786,-1.786,-1.786,-1.786,-1.786,-1.788,-1.7914,-1.7968,-1.7948,-1.7982,-1.8036,0.0,0.0,0.0,0.0,0.0,0.0,0.0,0.0,0.0,0.0,0.0,0.0,0.0,0.0,0.0,0.0,0.0,0.0,0.0,0.0,0.0,0.0,0.0,0.0,0.0,0.0,0.0,0.0,0.0,0.0,0.0,0.0,0.0,0.0,0.0,0.0,0.0,0.0,0.0,0.0,0.0,0.0,0.0,0.0,0.0,0.0,0.0,0.0,0.0,0.0,0.0,0.0,0.0,0.0,0.0,0.0,0.0,0.0,0.0,0.0,0.0,0.0,0.0,0.0,0.0,0.0,0.0,0.0,0.0,0.0,0.0,0.0,0.0,0.0,0.0,0.0,0.0,0.0,0.0,0.0,0.0,-0.0218,-0.0654,-1.1138,-1.7758,-1.7467,-1.746,-1.7237,-1.6576,-1.7007,-1.7184,-1.7295,-1.7686,-1.7894,-1.7935,-1.1398,-0.5362,-0.0,-0.0447,-0.6706,-1.8002,-1.7948,-1.7894,-1.786,-1.786,-1.786,-1.786,-1.786,-1.786,-1.786,-1.7914,-1.7982,-1.8091,-1.7947,-1.7934,-1.8124,0.0,0.0,0.0,0.0,0.0,0.0,0.0,0.0,0.0,0.0,0.0,0.0,0.0,0.0,0.0,0.0,0.0,0.0,0.0,0.0,0.0,0.0,0.0,0.0,0.0,0.0,0.0,0.0,0.0,0.0,0.0,0.0,0.0,0.0,0.0,0.0,0.0,0.0,0.0,0.0,0.0,0.0,0.0,0.0,0.0,0.0,0.0,0.0,0.0,0.0,0.0,0.0,0.0,0.0,0.0,0.0,0.0,0.0,0.0,0.0,0.0,0.0,0.0,0.0,0.0,0.0,0.0,0.0,0.0,0.0,0.0,0.0,0.0,0.0,0.0,0.0,0.0,0.0,0.0,0.0,0.0,0.0,0.0,-0.7527,-1.3748,-1.7545,-1.765,-1.7629,-1.7751,-1.7846,-1.7914,-1.7948,-1.7894,-1.7894,-1.7968,-1.57,-0.9624,0.0,0.0,-0.4248,-1.2534,-1.6126,-1.7914,-1.786,-1.786,-1.786,-1.786,-1.786,-1.786,-1.786,-1.788,-1.7948,-1.805,-1.7914,-1.5594,-1.3049,0.0,0.0,0.0,0.0,0.0,0.0,0.0,0.0,0.0,0.0,0.0,0.0,0.0,0.0,0.0,0.0,0.0,0.0,0.0,0.0,0.0,0.0,0.0,0.0,0.0,0.0,0.0,0.0,0.0,0.0,0.0,0.0,0.0,0.0,0.0,0.0,0.0,0.0,0.0,0.0,0.0,0.0,0.0,0.0,0.0,0.0,0.0,0.0,0.0,0.0,0.0,0.0,0.0,0.0,0.0,0.0,0.0,0.0,0.0,0.0,0.0,0.0,0.0,0.0,0.0,0.0,0.0,0.0,0.0,0.0,0.0,0.0,0.0,0.0,0.0,0.0,0.0,0.0,0.0,0.0,0.0,-0.0669,-0.2686,-0.6481,-1.1394,-1.7491,-1.7806,-1.7772,-1.7928,-1.7914,-1.7914,-1.7935,-1.788,-1.7894,-1.7982,-1.5976,-1.1916,-0.5613,-0.5618,-0.6724,-0.9156,-1.5214,-1.7914,-1.786,-1.786,-1.786,-1.786,-1.786,-1.7901,-1.7935,-1.788,-1.7968,-1.788,-1.6577,-1.4263,-1.241,0.0,0.0,0.0,0.0,0.0,0.0,0.0,0.0,0.0,0.0,0.0,0.0,0.0,0.0,0.0,0.0,0.0,0.0,0.0,0.0,0.0,0.0,0.0,0.0,0.0,0.0,0.0,0.0,0.0,0.0,0.0,0.0,0.0,0.0,0.0,0.0,0.0,0.0,0.0,0.0,0.0,0.0,0.0,0.0,0.0,0.0,0.0,0.0,0.0,0.0,0.0,0.0,0.0,0.0,0.0,0.0,0.0,0.0,0.0,0.0,0.0,0.0,0.0,0.0,0.0,0.0,0.0,0.0,0.0,0.0,0.0,0.0,0.0,0.0,0.0,0.0,0.0,0.0,0.0,0.0,0.0,-0.2245,-0.8325,-0.8957,-1.1407,-1.7544,-1.7914,-1.788,-1.7935,-1.788,-1.788,-1.7935,-1.788,-1.788,-1.7935,-1.1938,-1.1974,-1.784,-1.7768,-1.473,-0.9156,-1.5214,-1.7914,-1.786,-1.786,-1.786,-1.786,-1.786,-1.7948,-1.8077,-1.7914,-1.8057,-1.7854,-1.3721,-1.4862,-1.8335,0.0,0.0,0.0,0.0,0.0,0.0,0.0,0.0,0.0,0.0,0.0,0.0,0.0,0.0,0.0,0.0,0.0,0.0,0.0,0.0,0.0,0.0,0.0,0.0,0.0,0.0,0.0,0.0,0.0,0.0,0.0,0.0,0.0,0.0,0.0,0.0,0.0,0.0,0.0,0.0,0.0,0.0,0.0,0.0,0.0,0.0,0.0,0.0,0.0,0.0,0.0,0.0,0.0,0.0,0.0,0.0,0.0,0.0,0.0,0.0,0.0,0.0,0.0,0.0,0.0,0.0,0.0,0.0,0.0,0.0,0.0,0.0,0.0,0.0,0.0,0.0,0.0,0.0,0.0,0.0,0.0,-0.0673,-0.247,-1.0332,-1.5976,-1.7773,-1.7914,-1.786,-1.788,-1.786,-1.786,-1.788,-1.786,-1.7935,-1.8091,-1.1974,-0.7663,-0.5373,-0.5233,-0.887,-1.526,-1.7182,-1.7827,-1.7914,-1.788,-1.788,-1.7914,-1.788,-1.7901,-1.7935,-1.788,-1.8002,-1.7987,-1.684,-1.7285,-1.8233,0.0,0.0,0.0,0.0,0.0,0.0,0.0,0.0,0.0,0.0,0.0,0.0,0.0,0.0,0.0,0.0,0.0,0.0,0.0,0.0,0.0,0.0,0.0,0.0,0.0,0.0,0.0,0.0,0.0,0.0,0.0,0.0,0.0,0.0,0.0,0.0,0.0,0.0,0.0,0.0,0.0,0.0,0.0,0.0,0.0,0.0,0.0,0.0,0.0,0.0,0.0,0.0,0.0,0.0,0.0,0.0,0.0,0.0,0.0,0.0,0.0,0.0,0.0,0.0,0.0,0.0,0.0,0.0,0.0,0.0,0.0,0.0,0.0,0.0,0.0,0.0,0.0,0.0,0.0,0.0,0.0,0.0,0.0,-0.876,-1.5289,-1.7753,-1.7894,-1.786,-1.786,-1.786,-1.786,-1.786,-1.786,-1.7914,-1.8036,-1.4477,-0.8356,0.0,0.0,-0.503,-1.4647,-1.6777,-1.7934,-1.807,-1.7948,-1.7968,-1.807,-1.7948,-1.7989,-1.8111,-1.7935,-1.8036,-1.8301,-1.8179,-1.8179,-1.8233,0.0,0.0,0.0,0.0,0.0,0.0,0.0,0.0,0.0,0.0,0.0,0.0,0.0,0.0,0.0,0.0,0.0,0.0,0.0,0.0,0.0,0.0,0.0,0.0,0.0,0.0,0.0,0.0,0.0,0.0,0.0,0.0,0.0,0.0,0.0,0.0,0.0,0.0,0.0,0.0,0.0,0.0,0.0,0.0,0.0,0.0,0.0,0.0,0.0,0.0,0.0,0.0,0.0,0.0,0.0,0.0,0.0,0.0,0.0,0.0,0.0,0.0,0.0,0.0,0.0,0.0,0.0,0.0,0.0,0.0,0.0,0.0,0.0,0.0,0.0,0.0,0.0,0.0,0.0,0.0,0.0,0.0,0.0,-0.5377,-1.1429,-1.7491,-1.7894,-1.786,-1.786,-1.786,-1.786,-1.786,-1.786,-1.786,-1.788,-1.8124,-1.2489,-0.0679,-0.023,-0.3221,-0.9511,-1.5433,-1.8001,-1.8301,-1.8057,-1.8091,-1.8301,-1.807,-1.8179,-1.8443,-1.8036,-1.8124,-1.8464,-1.8199,-1.8179,-1.8287,0.0,0.0,0.0,0.0,0.0,0.0,0.0,0.0,0.0,0.0,0.0,0.0,0.0,0.0,0.0,0.0,0.0,0.0,0.0,0.0,0.0,0.0,0.0,0.0,0.0,0.0,0.0,0.0,0.0,0.0,0.0,0.0,0.0,0.0,0.0,0.0,0.0,0.0,0.0,0.0,0.0,0.0,0.0,0.0,0.0,0.0,0.0,0.0,0.0,0.0,0.0,0.0,0.0,0.0,0.0,0.0,0.0,0.0,0.0,0.0,0.0,0.0,0.0,0.0,0.0,0.0,0.0,0.0,0.0,0.0,0.0,0.0,0.0,0.0,0.0,0.0,0.0,0.0,0.0,0.0,0.0,0.0,0.0,-0.5373,-1.1407,-1.7524,-1.7914,-1.786,-1.786,-1.786,-1.786,-1.786,-1.786,-1.7914,-1.8043,-1.8247,-1.437,-0.7011,-0.2304,-0.3235,-0.9593,-1.5601,-1.8161,-1.8121,-1.7947,-1.8213,-1.8355,-1.8308,-1.8253,-1.8179,-1.8077,-1.8111,-1.8179,-1.8111,-1.8111,-1.8158,0.0,0.0,0.0,0.0,0.0,0.0,0.0,0.0,0.0,0.0,0.0,0.0,0.0,0.0,0.0,0.0,0.0,0.0,0.0,0.0,0.0,0.0,0.0,0.0,0.0,0.0,0.0,0.0,0.0,0.0,0.0,0.0,0.0,0.0,0.0,0.0,0.0,0.0,0.0,0.0,0.0,0.0,0.0,0.0,0.0,0.0,0.0,0.0,0.0,0.0,0.0,0.0,0.0,0.0,0.0,0.0,0.0,0.0,0.0,0.0,0.0,0.0,0.0,0.0,0.0,0.0,0.0,0.0,0.0,0.0,0.0,0.0,0.0,0.0,0.0,0.0,0.0,0.0,0.0,0.0,0.0,0.0,0.0,-0.5366,-1.1407,-1.7544,-1.7914,-1.786,-1.786,-1.786,-1.786,-1.786,-1.786,-1.7901,-1.7989,-1.8104,-1.659,-1.3448,-0.7406,-0.7674,-1.4093,-1.7117,-1.8316,-1.8349,-1.8128,-1.8375,-1.8552,-1.843,-1.8355,-1.8287,-1.8145,-1.8145,-1.8179,-1.8036,-1.8023,-1.8111,0.0,0.0,0.0,0.0,0.0,0.0,0.0,0.0,0.0,0.0,0.0,0.0,0.0,0.0,0.0,0.0,0.0,0.0,0.0,0.0,0.0,0.0,0.0,0.0,0.0,0.0,0.0,0.0,0.0,0.0,0.0,0.0,0.0,0.0,0.0,0.0,0.0,0.0,0.0,0.0,0.0,0.0,0.0,0.0,0.0,0.0,0.0,0.0,0.0,0.0,0.0,0.0,0.0,0.0,0.0,0.0,0.0,0.0,0.0,0.0,0.0,0.0,0.0,-0.0483,-0.2894,-0.1698,0.0,0.0,0.0,0.0,0.0,0.0,0.0,0.0,0.0,0.0,0.0,0.0,0.0,0.0,0.0,0.0,0.0,-0.5366,-1.1407,-1.7544,-1.7914,-1.786,-1.786,-1.786,-1.786,-1.786,-1.786,-1.786,-1.786,-1.7948,-1.8124,-1.8389,-1.3507,-1.3809,-1.8694,-1.8633,-1.8456,-1.8557,-1.8531,-1.8531,-1.8708,-1.8498,-1.843,-1.8423,-1.8179,-1.8158,-1.8213,-1.7948,-1.8002,-1.8199,0.0,0.0,0.0,0.0,0.0,0.0,0.0,0.0,0.0,0.0,0.0,0.0,0.0,0.0,0.0,0.0,0.0,0.0,0.0,0.0,0.0,0.0,0.0,0.0,0.0,0.0,0.0,0.0,0.0,0.0,0.0,0.0,0.0,0.0,0.0,0.0,0.0,0.0,0.0,0.0,0.0,0.0,0.0,0.0,0.0,0.0,0.0,0.0,0.0,0.0,0.0,0.0,0.0,0.0,0.0,0.0,0.0,0.0,0.0,0.0,0.0,0.0,0.0,-0.2894,-1.4521,-0.8256,0.0,0.0,0.0,0.0,0.0,0.0,0.0,0.0,0.0,0.0,0.0,0.0,0.0,0.0,0.0,0.0,0.0,-0.5366,-1.1407,-1.7544,-1.7914,-1.786,-1.786,-1.786,-1.786,-1.786,-1.786,-1.786,-1.786,-1.8124,-1.8287,-1.8568,-1.7922,-1.8078,-1.8816,-1.847,-1.847,-1.8762,-1.8436,-1.8369,-1.8565,-1.8565,-1.8409,-1.8145,-1.8111,-1.8023,-1.7914,-1.788,-1.8199,-1.864,0.0,0.0,0.0,0.0,0.0,0.0,0.0,0.0,0.0,0.0,0.0,0.0,0.0,0.0,0.0,0.0,0.0,0.0,0.0,0.0,0.0,0.0,0.0,0.0,0.0,0.0,0.0,0.0,0.0,0.0,0.0,0.0,0.0,0.0,0.0,0.0,0.0,0.0,0.0,0.0,0.0,0.0,0.0,0.0,0.0,0.0,0.0,0.0,0.0,0.0,0.0,0.0,0.0,0.0,0.0,0.0,0.0,0.0,0.0,0.0,0.0,0.0,0.0,-0.3403,-1.668,-1.5186,-0.8793,-0.1463,0.0,0.0,0.0,0.0,0.0,0.0,0.0,0.0,0.0,0.0,0.0,0.0,0.0,0.0,0.0,-0.5366,-1.1407,-1.7544,-1.7914,-1.786,-1.786,-1.786,-1.786,-1.786,-1.7948,-1.7989,-1.7989,-1.8213,-1.8375,-1.8477,-1.8586,-1.8708,-1.883,-1.8755,-1.8742,-1.8796,-1.8742,-1.8654,-1.8531,-1.8545,-1.8375,-1.8091,-1.8091,-1.8057,-1.8002,-1.8179,-1.8409,-1.8599]}]]